[[{"header":{"parameterUnit":"m.s-1","parameterCategory":1,"la1":30.6,"la2":29.2853,"lo1":-89.7004,"lo2":-87.6739,"dy":0.0162,"dx":0.0183,"nx":112,"ny":82,"refTime":"2024-03-17T06:00:00:Z","depth":0,"parameterNumber":2,"parameterNumberName":"U-component_of_WINDS"},"data":[0.0,0.0,0.0,0.0,0.0,0.0,0.0,0.0,0.0,0.0,0.0,0.0,0.0,0.0,0.0,0.0,0.0,0.0,0.0,0.0,0.0,0.0,0.0,0.0,0.0,0.0,0.0,0.0,0.0,0.0,0.0,0.0,0.0,0.0,0.0,0.0,0.0,0.0,0.0,0.0,0.0,0.0,0.0,0.0,0.0,0.0,0.0,0.0,0.0,0.0,0.0,0.0,0.0,0.0,0.0,0.0,0.0,0.0,0.0,0.0,0.0,0.0,0.0,0.0,0.0,0.0,0.0,0.0,0.0,0.0,0.0,0.0,0.0,0.0,0.0,0.0,0.0,0.0,0.0,0.0,0.0,0.0,0.0,0.0,0.0,0.0,0.0,0.0,0.0,0.0,-0.094,-0.0291,-0.009,0.0314,0.1121,0.1323,0.1391,0.1391,0.0,0.0,0.0,0.0,0.0,0.0,0.0,0.0,0.0,0.0,0.0,0.0,0.0,0.0,0.0,0.0,0.0,0.0,0.0,0.0,0.0,0.0,0.0,0.0,0.0,0.0,0.0,0.0,0.0,0.0,0.0,0.0,0.0,0.0,0.0,0.0,0.0,0.0,0.0,0.0,0.0,0.0,0.0,0.0,0.0,0.0,0.0,0.0,0.0,0.0,0.0,0.0,0.0,0.0,0.0,0.0,0.0,0.0,0.0,0.0,0.0,0.0,0.0,0.0,0.0,0.0,0.0,0.0,0.0,0.0,0.0,0.0,0.0,0.0,0.0,0.0,0.0,0.0,0.0,0.0,0.0,0.0,0.0,0.0,0.0,0.0,0.0,0.0,0.0,0.0,0.0,0.0,0.0,0.0,0.0,0.0,0.0,0.0,0.0,0.0,0.0,0.0,0.0,0.0,-0.047,-0.1119,-0.047,0.0067,0.0202,0.0942,0.1391,0.1391,0.0,0.0,0.0,0.0,0.0,0.0,0.0,0.0,0.0,0.0,0.0,0.0,0.0,0.0,0.0,0.0,0.0,0.0,0.0,0.0,0.0,0.0,0.0,0.0,0.0,0.0,0.0,0.0,0.0,0.0,0.0,0.0,0.0,0.0,0.0,0.0,0.0,0.0,0.0,0.0,0.0,0.0,0.0,0.0,0.0,0.0,0.0,0.0,0.0,0.0,0.0,0.0,0.0,0.0,0.0,0.0,0.0,0.0,0.0,0.0,0.0,0.0,0.0,0.0,0.0,0.0,0.0,0.0,0.0,0.0,0.0,0.0,0.0,0.0,0.0,0.0,0.0,0.0,0.0,0.0,0.0,0.0,0.0,0.0,0.0,0.0,0.0,0.0,0.0,0.0,0.0,0.0,0.0,0.0,0.0,0.0,0.0,0.0,0.0,0.0,0.0,0.0,0.0,-0.0381,-0.0157,-0.0605,-0.0246,0.0202,0.0718,0.1143,0.1391,0.1391,0.14,0.0,0.0,0.0,0.0,0.0,0.0,0.0,0.0,0.0,0.0,0.0,0.0,0.0,0.0,0.0,0.0,0.0,0.0,0.0,0.0,0.0,0.0,0.0,0.0,0.0,0.0,0.0,0.0,0.0,0.0,0.0,0.0,0.0,0.0,0.0,0.0,0.0,0.0,0.0,0.0,0.0,0.0,0.0,0.0,0.0,0.0,0.0,0.0,0.0,0.0,0.0,0.0,0.0,0.0,0.0,0.0,0.0,0.0,0.0,0.0,0.0,0.0,0.0,0.0,0.0,0.0,0.0,0.0,0.0,0.0,0.0,0.0,0.0,0.0,0.0,0.0,0.0,0.0,0.0,0.0,0.0,0.0,0.0,0.0,0.0,0.0,0.0,0.0,0.0,0.0,0.0,0.0,0.0,0.0,0.0,0.0,0.0,0.0,0.0,0.0,0.0,0.0,-0.112,-0.0336,-0.0336,-0.0336,0.0045,0.0987,0.1076,0.1166,0.1391,0.1391,0.0,0.0,0.0,0.0,0.0,0.0,0.0,0.0,0.0,0.0,0.0,0.0,0.0,0.0,0.0,0.0,0.0,0.0,0.0,0.0,0.0,0.0,0.0,0.0,0.0,0.0,0.0,0.0,0.0,0.0,0.0,0.0,0.0,0.0,0.0,0.0,0.0,0.0,0.0,0.0,0.0,0.0,0.0,0.0,0.0,0.0,0.0,0.0,0.0,0.0,0.0,0.0,0.0,0.0,0.0,0.0,0.0,0.0,0.0,0.0,0.0,0.0,0.0,0.0,0.0,0.0,0.0,0.0,0.0,0.0,0.0,0.0,0.0,0.0,0.0,0.0,0.0,0.0,0.0,0.0,0.0,0.0,0.0,0.0,0.0,0.0,0.0,0.0,0.0,0.0,0.0,0.0,0.0,0.0,0.0,0.0,0.0,0.0,0.0,0.0,0.0,0.0,-0.0851,-0.1298,-0.1298,-0.1298,-0.0918,0.0022,0.009,0.0471,0.1345,0.1391,0.0,0.0,0.0,0.0,0.0,0.0,0.0,0.0,0.0,0.0,0.0,0.0,0.0,0.0,0.0,0.0,0.0,0.0,0.0,0.0,0.0,0.0,0.0,0.0,0.0,0.0,0.0,0.0,0.0,0.0,0.0,0.0,0.0,0.0,0.0,0.0,0.0,0.0,0.0,0.0,0.0,0.0,0.0,0.0,0.0,0.0,0.0,0.0,0.0,0.0,0.0,0.0,0.0,0.0,0.0,0.0,0.0,0.0,0.0,0.0,0.0,0.0,0.0,0.0,0.0,0.0,0.0,0.0,0.0,0.0,0.0,0.0,0.0,0.0,0.0,0.0,0.0,0.0,0.0,0.0,0.0,0.0,0.0,0.0,0.0,0.0,0.0,0.0,0.0,0.0,0.0,0.0,0.0,0.0,0.0,0.0,0.0,0.0,0.0,0.0,0.0,0.0,-0.2485,-0.2329,-0.2329,-0.2329,-0.1947,-0.0963,-0.0873,-0.047,0.0471,0.0,0.0,0.0,0.0,0.0,0.0,0.0,0.0,0.0,0.0,0.0,0.0,0.0,0.0,0.0,0.0,0.0,0.0,0.0,0.0,0.0,0.0,0.0,0.0,0.0,0.0,0.0,0.0,0.0,0.0,0.0,0.0,0.0,0.0,0.0,0.0,0.0,0.0,0.0,0.0,0.0,0.0,0.0,0.0,0.0,0.0,0.0,0.0,0.0,0.0,0.0,0.0,0.0,0.0,0.0,0.0,0.0,0.0,0.0,0.0,0.0,0.0,0.0,0.0,0.0,0.0,0.0,0.0,0.0,0.0,0.0,0.0,0.0,0.0,0.0,0.0,0.0,0.0,0.0,0.0,0.0,0.0,0.0,0.0,0.0,0.0,0.0,0.0,0.0,0.0,0.0,0.0,0.0,0.0,0.0,0.0,0.0,0.0,0.0,0.0,0.0,0.0,-0.3807,-0.3561,-0.3337,-0.3337,-0.3337,-0.2956,-0.197,-0.1879,-0.1343,-0.009,0.0,0.0,0.0,0.0,0.0,0.0,0.0,0.0,0.0,0.0,0.0,0.0,0.0,0.0,0.0,0.0,0.0,0.0,0.0,0.0,0.0,0.0,0.0,0.0,0.0,0.0,0.0,0.0,0.0,0.0,0.0,0.0,0.0,0.0,0.0,0.0,0.0,0.0,0.0,0.0,0.0,0.0,0.0,0.0,0.0,0.0,0.0,0.0,0.0,0.0,0.0,0.0,0.0,0.0,0.0,0.0,0.0,0.0,0.0,0.0,0.0,0.0,0.0,0.0,0.0,0.0,0.0,0.0,0.0,0.0,0.0,0.0,0.0,0.0,0.0,0.0,0.0,0.0,0.0,0.0,0.0,0.0,0.0,0.0,0.0,0.0,0.0,0.0,0.0,0.0,0.0,0.0,0.0,0.0,0.0,0.0,0.0,0.0,0.0,0.0,0.0,0.0,-0.3045,-0.3717,-0.43,-0.43,-0.43,-0.3918,-0.3001,-0.2913,-0.2083,0.0,0.0,0.0,0.0,0.0,0.0,0.0,0.0,0.0,0.0,0.0,0.0,0.0,0.0,0.0,0.0,0.0,0.0,0.0,0.0,0.0,0.0,0.0,0.0,0.0,0.0,0.0,0.0,0.0,0.0,0.0,0.0,0.0,0.0,0.0,0.0,0.0,0.0,0.0,0.0,0.0,0.0,0.0,0.0,0.0,0.0,0.0,0.0,0.0,0.0,0.0,0.0,0.0,0.0,0.0,0.0,0.0,0.0,0.0,0.0,0.0,0.0,0.0,0.0,0.0,0.0,0.0,0.0,0.0,0.0,0.0,0.0,0.0,0.0,0.0,0.0,0.0,0.0,0.0,0.0,0.0,0.0,0.0,0.0,0.0,0.0,0.0,0.0,0.0,0.0,0.0,0.0,0.0,0.0,0.0,0.0,0.0,0.0,0.0,0.0,0.0,0.0,0.0,-0.3918,-0.4119,-0.43,-0.43,-0.43,-0.4188,-0.3918,-0.3896,-0.3358,-0.2128,0.0,0.0,0.0,0.0,0.0,0.0,0.0,0.0,0.0,0.0,0.0,0.0,0.0,0.0,0.0,0.0,0.0,0.0,0.0,0.0,0.0,0.0,0.0,0.0,0.0,0.0,0.0,0.0,0.0,0.0,0.0,0.0,0.0,0.0,0.0,0.0,0.0,0.0,0.0,0.0,0.0,0.0,0.0,0.0,0.0,0.0,0.0,0.0,0.0,0.0,0.0,0.0,0.0,0.0,0.0,0.0,0.0,0.0,0.0,0.0,0.0,0.0,0.0,0.0,0.0,0.0,0.0,0.0,0.0,0.0,0.0,0.0,0.0,0.0,0.0,0.0,0.0,0.0,0.0,0.0,0.0,0.0,0.0,0.0,0.0,0.0,0.0,0.0,0.0,0.0,0.0,0.0,0.0,0.0,0.0,0.0,0.0,0.0,0.0,0.0,0.0,0.0,-0.43,-0.43,-0.43,-0.43,-0.43,-0.43,-0.43,-0.43,-0.3896,-0.2957,0.0,0.0,0.0,0.0,0.0,0.0,0.0,0.0,0.0,0.0,0.0,0.0,0.0,0.0,0.0,0.0,0.0,0.0,0.0,0.0,0.0,0.0,0.0,0.0,0.0,0.0,0.0,0.0,0.0,0.0,0.0,0.0,0.0,0.0,0.0,0.0,0.0,0.0,0.0,0.0,0.0,0.0,0.0,0.0,0.0,0.0,0.0,0.0,0.0,0.0,0.0,0.0,0.0,0.0,0.0,0.0,0.0,0.0,0.0,0.0,0.0,0.0,0.0,0.0,0.0,0.0,0.0,0.0,0.0,0.0,0.0,0.0,0.0,0.0,0.0,0.0,0.0,0.0,0.0,0.0,0.0,0.0,0.0,0.0,0.0,0.0,0.0,0.0,0.0,0.0,0.0,0.0,0.0,0.0,0.0,0.0,0.0,0.0,0.0,0.0,0.0,0.0,-0.43,-0.43,-0.43,-0.43,-0.43,-0.43,-0.43,-0.43,-0.3941,-0.3092,0.0,0.0,0.0,0.0,0.0,0.0,0.0,0.0,0.0,0.0,0.0,0.0,0.0,0.0,0.0,0.0,0.0,0.0,0.0,0.0,0.0,0.0,0.0,0.0,0.0,0.0,0.0,0.0,0.0,0.0,0.0,0.0,0.0,0.0,0.0,0.0,0.0,0.0,0.0,0.0,0.0,0.0,0.0,0.0,0.0,0.0,0.0,0.0,0.0,0.0,0.0,0.0,0.0,0.0,0.0,0.0,0.0,0.0,0.0,0.0,0.2218,0.2462,0.0,0.0,0.0,0.0,0.0,0.0,0.0,0.0,0.0,0.0,0.0,0.0,0.0,0.0,0.0,0.0,0.0,0.0,0.0,0.0,0.0,0.0,0.0,0.0,0.0,0.0,0.0,0.0,0.0,0.0,0.0,0.0,0.0,0.0,0.0,0.0,0.0,0.0,0.0,0.0,-0.43,-0.43,-0.43,-0.43,-0.43,-0.43,-0.43,-0.43,-0.421,-0.4007,-0.3314,0.0,0.0,0.0,0.0,0.0,0.0,0.0,0.0,0.0,0.0,0.0,0.0,0.0,0.0,0.0,0.0,0.0,0.0,0.0,0.0,0.0,0.0,0.0,0.0,0.0,0.0,0.0,0.0,0.0,0.0,0.0,0.0,0.0,0.0,0.0,0.0,0.0,0.0,0.0,0.0,0.0,0.0,0.0,0.0,0.0,0.0,0.0,0.0,0.0,0.0,0.0,0.0,0.0,0.0,0.0,0.0,0.0,0.0,0.0,0.121,0.1545,0.0,0.0,0.0,0.0,0.0,0.0,0.0,0.0,0.0,0.0,0.0,0.0,0.0,0.0,0.0,0.0,0.0,0.0,0.0,0.0,0.0,0.0,0.0,0.0,0.0,0.0,0.0,0.0,0.0,0.0,0.0,0.0,0.0,0.0,0.0,0.0,0.0,0.0,0.0,0.0,-0.4424,-0.4453,-0.4453,-0.4453,-0.4453,-0.4453,-0.4453,-0.4389,-0.434,-0.434,-0.3851,0.0,0.0,0.0,0.0,0.0,0.0,0.0,0.0,0.0,0.0,0.0,0.0,0.0,0.0,0.0,0.0,0.0,0.0,0.0,0.0,0.0,0.0,0.0,0.0,0.0,0.0,0.0,0.0,0.0,0.0,0.0,0.0,0.0,0.0,0.0,0.0,0.0,0.0,0.0,0.0,0.0,0.0,0.0,0.0,0.0,0.0,0.0,0.0,0.0,0.0,0.0,0.0,0.0,0.0317,0.0272,0.0181,0.0181,-0.0204,-0.0838,-0.0227,0.009,0.0202,0.0202,0.0,0.0,0.0,0.0,0.0,0.0,0.0,0.0,0.0,0.0,0.0,0.0,0.0,0.0,0.0,0.0,0.0,0.0,0.0,0.0,0.0,0.0,0.0,0.0,-0.4346,-0.4346,-0.4346,0.0,0.0,0.0,0.0,0.0,0.0,0.0,0.0,0.0,0.0,0.0,-0.4587,-0.4597,-0.4597,-0.4597,-0.4597,-0.4597,-0.4597,-0.4502,-0.4436,-0.4436,-0.4387,-0.4,0.0,0.0,0.0,0.0,0.0,0.0,0.0,0.0,0.0,0.0,0.0,0.0,0.0,0.0,0.0,0.0,0.0,0.0,0.0,0.0,0.0,0.0,0.0,0.0,0.0,0.0,0.0,0.0,0.0,0.0,0.0,0.0,0.0986,0.0896,0.0,0.0,0.0,0.0,0.0,0.0,0.0,0.0,0.0,0.0,0.0,0.0,0.0,-0.0558,-0.1206,-0.1206,-0.1206,-0.1206,-0.1206,-0.1466,-0.1913,-0.1913,-0.222,-0.2741,-0.2647,0.0,-0.1817,-0.1817,0.0,0.0,0.0,0.0,0.0,0.0,0.0,0.0,0.0,0.0,0.0,0.0,0.0,0.0,0.0,0.0,0.0,0.0,0.0,0.0,0.0,0.0,-0.456,-0.456,-0.456,-0.456,0.0,-0.4473,-0.4417,-0.4543,-0.456,0.0,0.0,0.0,0.0,0.0,0.0,0.0,-0.4595,-0.4597,-0.4597,-0.4597,-0.4597,-0.4597,-0.4597,-0.4585,-0.4578,-0.4578,-0.4566,-0.4453,-0.4214,-0.3544,0.0,0.0,0.0,0.0,0.0,0.0,0.0,0.0,0.0,0.0,0.0,0.0,0.0,0.0,0.0,0.0,0.0,0.0,0.0,0.0,0.0,0.0,0.0,0.0,0.0,0.0,0.0,0.0,0.0,0.0426,-0.0067,-0.0426,-0.0471,-0.0471,0.0,0.0,0.0,0.0,0.0,0.0,0.0,0.0,0.0,-0.1011,-0.1012,-0.1323,-0.1953,-0.1953,-0.2096,-0.2407,-0.2407,-0.2526,-0.2739,-0.2739,-0.2881,-0.3097,-0.3097,-0.3113,-0.3131,-0.2831,-0.2707,-0.2729,0.0,0.0,0.0,0.0,-0.3097,-0.3144,-0.3452,-0.3547,-0.3642,-0.4142,0.0,0.0,0.0,0.0,0.0,0.0,0.0,0.0,0.0,0.0,-0.5161,-0.4713,-0.4948,-0.517,-0.4795,-0.4663,-0.4618,0.0,-0.4597,-0.4597,-0.4597,0.0,0.0,0.0,0.0,-0.4715,-0.4912,-0.4943,-0.4943,-0.4943,-0.5063,-0.5159,-0.5159,-0.5136,-0.5107,-0.5107,-0.4931,-0.4787,-0.4744,-0.4205,-0.3627,0.0,0.0,0.0,0.0,0.0,0.0,0.0,0.0,0.0,0.0,0.0,0.0,0.0,0.0,0.0,0.0,0.0,0.0,0.0,0.0,0.0,0.0,0.0,0.0,0.0,0.0,0.0,0.0,-0.065,-0.0852,-0.1345,-0.1391,-0.1416,0.0,0.0,0.0,0.0,0.0,0.0,-0.1492,-0.149,-0.1577,-0.1729,-0.1738,-0.2012,-0.258,-0.2592,-0.2795,-0.3214,-0.3214,-0.3263,-0.341,-0.341,-0.3485,-0.3606,-0.3606,-0.385,-0.4161,-0.3553,-0.3296,-0.3312,-0.3456,-0.3442,-0.3337,-0.348,-0.3528,-0.3601,-0.3985,-0.4129,-0.4177,-0.4542,-0.4648,-0.4632,-0.4632,0.0,0.0,0.0,0.0,-0.4746,-0.4988,-0.5489,-0.5874,-0.5511,-0.5876,-0.614,-0.548,-0.5334,-0.5216,0.0,-0.4732,-0.4759,-0.483,0.0,0.0,0.0,-0.5157,-0.5135,-0.5383,-0.5417,-0.5417,-0.5417,-0.5593,-0.568,-0.5654,-0.5608,-0.5556,-0.5527,-0.5279,-0.5154,-0.5129,-0.494,-0.4472,-0.3708,0.0,0.0,0.0,0.0,0.0,0.0,0.0,0.0,0.0,0.0,0.0,0.0,0.0,0.0,0.0,0.0,0.0,0.0,0.0,0.0,0.0,0.0,0.0,0.0,0.0,0.0,0.0,0.0,0.0,-0.1391,-0.1391,0.0,0.0,0.0,0.0,-0.1496,-0.1499,-0.15,-0.15,-0.1502,-0.1755,-0.2349,-0.2417,-0.2739,-0.3327,-0.3411,-0.344,-0.3468,-0.3468,-0.376,-0.4239,-0.4239,-0.4527,-0.5002,-0.5002,-0.5002,-0.4974,-0.4195,-0.3849,-0.3913,-0.4431,-0.4356,-0.4022,-0.452,-0.472,-0.472,-0.4747,-0.4745,-0.477,-0.477,-0.4742,-0.4702,-0.4702,-0.4702,0.0,0.0,-0.4822,-0.5182,-0.5998,-0.6285,-0.6574,-0.7439,-0.7677,-0.7523,-0.6929,-0.6797,-0.6456,0.0,-0.5081,-0.5185,-0.5499,0.0,-0.5633,-0.5903,-0.5932,-0.5934,-0.5965,-0.5965,-0.5965,-0.5965,-0.5965,-0.5924,-0.5796,-0.5784,-0.5736,-0.5609,-0.5572,-0.5552,-0.5484,-0.5457,-0.5408,-0.5284,-0.5282,0.0,0.0,0.0,0.0,0.0,0.0,0.0,0.0,0.0,0.0,0.0,0.0,0.0,0.0,0.0,0.0,0.0,0.0,0.0,0.0,0.0,0.0,0.0,0.0,0.0,0.0,0.0,0.0,-0.1932,-0.1981,0.0,-0.2496,-0.2522,-0.253,-0.2525,-0.258,-0.2613,-0.2645,-0.2701,-0.2843,-0.3102,-0.3123,-0.3405,-0.3981,-0.4049,-0.4246,-0.46,-0.468,-0.4817,-0.5011,-0.5011,-0.5121,-0.5284,-0.5284,-0.5284,-0.5273,-0.4985,-0.4779,-0.468,-0.4888,-0.4856,-0.4726,-0.4932,-0.4984,-0.4984,-0.4984,-0.4984,-0.5088,-0.5657,-0.5815,-0.5912,-0.6503,-0.6682,-0.6682,-0.6682,-0.6998,-0.74,-0.7686,-0.8477,-0.9119,-0.8929,-0.9302,-0.9466,-0.8789,-0.8651,-0.8548,-0.8183,-0.6813,-0.5717,-0.5847,-0.5847,-0.5953,-0.6215,-0.6112,-0.6061,-0.6244,-0.627,-0.627,-0.627,-0.6405,-0.6495,-0.6453,-0.6448,-0.643,-0.6362,-0.6202,-0.6077,-0.5946,-0.579,-0.5636,-0.5529,-0.5527,-0.5025,0.0,0.0,0.0,0.0,0.0,0.0,0.0,0.0,0.0,0.0,0.0,0.0,0.0,0.0,0.0,0.0,0.0,0.0,0.0,0.0,0.0,0.0,0.0,0.0,0.0,-0.2033,-0.2183,-0.252,-0.2571,-0.2722,-0.3102,-0.3129,-0.3144,-0.321,-0.325,-0.33,-0.3364,-0.3404,-0.3558,-0.3808,-0.3859,-0.4127,-0.47,-0.4777,-0.4985,-0.5324,-0.5413,-0.5469,-0.5469,-0.5469,-0.5469,-0.5469,-0.5469,-0.5469,-0.5469,-0.5469,-0.5398,-0.5252,-0.5163,-0.5108,-0.5108,-0.5108,-0.5108,-0.5108,-0.5108,-0.5108,-0.5241,-0.6109,-0.64,-0.6611,-0.774,-0.8082,-0.8108,-0.8312,-0.8657,-0.9011,-0.9331,-1.0116,-1.0768,-1.0544,-1.09,-1.1098,-1.043,-1.0262,-1.0243,-1.012,-0.8236,-0.67,-0.6835,-0.6515,-0.6329,-0.662,-0.6515,-0.6461,-0.6647,-0.6674,-0.6674,-0.6674,-0.6837,-0.6904,-0.6866,-0.6864,-0.6844,-0.6804,-0.664,-0.65,-0.6404,-0.624,-0.6099,-0.5999,-0.5999,-0.568,-0.5008,0.0,0.0,0.0,0.0,0.0,0.0,0.0,0.0,0.0,0.0,0.0,0.0,0.0,0.0,0.0,0.0,0.0,0.0,0.0,0.0,0.0,0.0,0.0,-0.3099,-0.3099,-0.3101,-0.3126,-0.3127,-0.3177,-0.3237,-0.327,-0.3319,-0.3438,-0.3448,-0.3478,-0.3568,-0.3573,-0.3844,-0.4428,-0.4559,-0.4916,-0.551,-0.5573,-0.5618,-0.5618,-0.5622,-0.5622,-0.5622,-0.5622,-0.5622,-0.5622,-0.5622,-0.5622,-0.5622,-0.5622,-0.5622,-0.5593,-0.5303,-0.5175,-0.5124,-0.5124,-0.5122,-0.512,-0.512,-0.5145,-0.5326,-0.6198,-0.6513,-0.683,-0.8272,-0.8718,-0.8846,-0.9429,-0.9648,-0.9915,-1.0839,-1.114,-1.1419,-1.2292,-1.2487,-1.2346,-1.1814,-1.17,-1.1537,-1.0935,-0.9392,-0.8232,-0.8472,-0.7509,-0.6824,-0.7154,-0.721,0.0,-0.721,-0.721,-0.721,-0.721,-0.721,-0.7136,-0.7027,-0.7018,-0.694,-0.682,-0.6815,-0.6812,-0.6806,-0.6806,-0.6806,-0.6801,-0.6801,-0.6801,-0.6801,0.0,0.0,0.0,0.0,0.0,0.0,0.0,0.0,0.0,0.0,0.0,0.0,0.0,0.0,0.0,0.0,0.0,0.0,0.0,0.0,0.0,-0.3402,-0.3608,-0.3219,-0.3163,-0.3326,-0.3717,-0.3845,-0.4062,-0.4464,-0.4545,-0.4599,-0.4618,-0.4678,-0.4748,-0.486,-0.4918,-0.5042,-0.527,-0.5298,-0.5408,-0.5577,-0.5698,-0.5743,-0.5745,-0.578,-0.5813,-0.5813,-0.5813,-0.5813,-0.5813,-0.5813,-0.5813,-0.5813,-0.5813,-0.5802,-0.5729,-0.5561,-0.549,-0.5467,-0.5467,-0.5427,-0.5426,-0.5682,-0.6266,-0.7098,-0.8222,-0.9144,-1.0008,-1.1042,-1.137,-1.1397,-1.1554,-1.1918,-1.2402,-1.2832,-1.325,-1.3666,-1.4113,-1.4211,-1.4183,-1.4004,-1.3976,-1.3948,-1.378,-1.2641,-1.1085,-0.912,-0.7845,-0.7099,-0.7182,-0.721,0.0,-0.721,-0.721,-0.721,-0.721,-0.721,-0.7196,-0.7138,-0.7136,-0.7122,-0.7087,-0.7084,-0.7048,-0.694,-0.6934,-0.6893,-0.6804,-0.6801,-0.6801,0.0,0.0,0.0,0.0,0.0,0.0,0.0,0.0,0.0,0.0,0.0,0.0,0.0,0.0,0.0,0.0,0.0,0.0,0.0,0.0,0.0,0.0,-0.3982,-0.4253,-0.3992,-0.3914,-0.3995,-0.4374,-0.4479,-0.4677,-0.4998,-0.5112,-0.5155,-0.522,-0.5276,-0.5366,-0.5486,-0.5508,-0.5577,-0.5668,-0.567,-0.5691,-0.5729,-0.581,-0.5837,-0.5839,-0.5892,-0.5886,-0.5886,-0.5886,-0.5886,-0.5886,-0.5886,-0.5886,-0.5916,-0.6039,-0.6097,0.0,0.0,0.0,0.0,0.0,-0.5989,-0.5998,-0.6174,-0.7015,-0.8194,-0.9272,-1.0423,-1.1593,-1.2719,-1.3085,-1.3112,-1.3389,-1.3699,-1.4011,-1.4169,-1.4429,-1.4713,-1.4853,-1.4914,-1.4914,-1.4914,-1.4914,-1.4914,-1.4914,-1.3934,0.0,-1.0932,-0.9718,-0.8765,-0.8204,-0.8122,-0.7924,-0.7392,-0.7335,-0.7335,-0.7335,-0.7335,-0.7335,-0.7335,-0.7335,0.0,0.0,0.0,-0.7207,-0.7089,-0.7084,0.0,0.0,0.0,-0.6977,-0.6977,-0.6352,0.0,0.0,-0.5455,-0.4859,0.0,0.0,0.0,0.0,0.0,0.0,0.0,0.0,0.0,0.0,0.0,0.0,0.0,0.0,0.0,0.0,-0.4467,-0.4854,-0.4987,-0.491,-0.487,-0.5003,-0.5022,-0.5065,-0.513,-0.5193,-0.5285,-0.5404,-0.549,-0.5573,-0.5626,-0.564,0.0,0.0,0.0,-0.5835,-0.5886,-0.5896,-0.5902,-0.5902,-0.5912,-0.5947,-0.5947,-0.5947,-0.5947,-0.5947,-0.6071,-0.6157,-0.6236,-0.6634,-0.6839,-0.6818,-0.6189,-0.6135,-0.6441,-0.6732,-0.6928,-0.7064,-0.7093,0.0,0.0,-0.9993,-1.1121,-1.2384,-1.3706,-1.4104,-1.4218,-1.4739,-1.4914,-1.4919,-1.4918,-1.4923,-1.4934,-1.4955,-1.4995,-1.4995,-1.4995,-1.4995,-1.4995,-1.4995,-1.4124,-1.3375,-1.3375,-1.2272,-1.0949,-0.9596,-0.9393,-0.8933,-0.7664,-0.7489,-0.7489,-0.7489,0.0,0.0,-0.7489,-0.7489,-0.7443,-0.7335,-0.7327,-0.7307,-0.7229,-0.7223,-0.7223,-0.7223,-0.7223,-0.7223,-0.7223,-0.7223,-0.7223,-0.7218,-0.6012,-0.5438,0.0,0.0,0.0,0.0,0.0,0.0,0.0,0.0,0.0,0.0,0.0,0.0,0.0,0.0,0.0,-0.3982,-0.4542,-0.4976,-0.4995,-0.502,-0.5061,-0.5079,-0.512,-0.5201,-0.532,-0.5406,-0.5465,-0.5557,-0.5678,-0.5735,-0.5753,-0.5825,-0.5841,-0.589,-0.5892,-0.59,-0.5886,-0.5959,-0.5995,-0.5997,-0.6096,0.0,-0.6129,-0.6129,-0.6129,-0.6192,-0.705,-0.766,-0.8065,-0.8989,-0.9597,-0.9724,-0.7538,-0.7332,-0.8295,-0.8356,-0.8979,-0.9858,-1.0149,-1.0969,-1.1979,-1.2351,-1.3302,-1.4336,-1.4654,-1.4739,0.0,-1.4885,-1.4914,-1.4929,-1.5099,-1.5153,-1.5196,-1.5413,-1.5461,-1.5461,-1.5461,-1.5461,-1.5461,-1.5461,-1.528,-1.5132,-1.5132,-1.3036,-1.0949,-0.9596,-0.9393,-0.8933,-0.7664,-0.7489,-0.7489,-0.7489,-0.7489,-0.7489,-0.7489,-0.7489,-0.7479,-0.7457,-0.7454,-0.7443,-0.7448,-0.7448,-0.7448,-0.7448,-0.7448,-0.7448,-0.7448,-0.7448,-0.7448,-0.7445,-0.7072,-0.6891,0.0,0.0,0.0,0.0,0.0,0.0,0.0,0.0,0.0,0.0,0.0,-0.3281,-0.3556,0.0,-0.412,-0.444,-0.4789,-0.503,-0.5096,-0.5188,-0.5245,-0.5245,-0.5286,-0.5365,-0.55,-0.5592,-0.5663,-0.5708,-0.5798,-0.5849,-0.5849,-0.5892,-0.5908,-0.5953,-0.5955,-0.5975,-0.6049,-0.6094,-0.6085,-0.6087,-0.6159,-0.6212,-0.6212,-0.6374,-0.6441,-0.6503,-0.7239,-0.8095,-0.907,-1.0479,-1.1224,-1.1317,-1.0009,-0.9717,-1.0007,-1.0185,-1.062,-1.1181,-1.133,-1.2191,-1.3211,-1.3353,-1.4237,-1.5241,-1.5241,-1.5241,-1.5241,-1.5241,-1.5241,-1.5268,-1.5362,-1.5394,-1.5427,-1.5569,-1.5601,-1.5601,-1.5601,-1.5601,-1.5601,-1.5601,-1.5601,-1.5601,-1.5601,-1.3912,-1.2089,-1.0764,-1.0558,-0.9851,-0.7931,-0.7695,-0.7695,-0.7695,-0.7695,-0.7695,-0.7695,-0.7644,-0.7611,-0.7611,-0.7522,-0.7489,-0.7489,-0.7489,-0.7489,-0.7489,-0.7489,-0.7489,-0.7489,-0.7489,-0.7489,-0.7489,-0.7489,-0.7457,0.0,0.0,0.0,0.0,0.0,0.0,0.0,-0.1588,-0.2042,-0.3128,-0.343,-0.3632,-0.4083,-0.4171,-0.438,-0.4907,-0.5028,-0.5081,-0.522,-0.5349,-0.5446,-0.5483,-0.5443,-0.5494,-0.5626,-0.5915,-0.5998,-0.5836,-0.6056,-0.6107,-0.5943,-0.6128,-0.6261,-0.6359,-0.6362,-0.6396,-0.6498,-0.6327,-0.6206,-0.6206,-0.6257,-0.6298,-0.6362,-0.6625,-0.6789,-0.6884,-0.7503,-0.8863,-1.0704,-1.1905,-1.2628,-1.293,-1.293,-1.2594,-1.2143,-1.2105,-1.2243,-1.2453,-1.2453,-1.3181,-1.4058,-1.4058,-1.4753,-1.5601,-1.5601,-1.5601,-1.5601,-1.5601,-1.5601,-1.5601,-1.5601,-1.5601,-1.5601,-1.5601,-1.5418,-1.5294,-1.5537,-1.5418,-1.5294,-1.5537,-1.5601,-1.5507,-1.5264,-1.4391,-1.3241,-1.1912,-1.1491,-1.0495,-0.8205,-0.7903,-0.7903,-0.7903,-0.7903,-0.7903,-0.7903,-0.7788,-0.7733,-0.7733,-0.7641,-0.7587,-0.7587,-0.7587,-0.7587,-0.7587,-0.7587,-0.7587,-0.7587,-0.7587,-0.7587,-0.7589,-0.769,-0.7668,0.1125,0.0931,0.0731,-0.0076,-0.0631,-0.121,0.0,-0.3,-0.3731,-0.3882,-0.4282,-0.4634,-0.4709,-0.48,-0.491,-0.4997,-0.5108,-0.5222,-0.5353,-0.5439,-0.5553,-0.5746,-0.5663,-0.5626,-0.5755,-0.6552,-0.6716,-0.5957,-0.6731,-0.687,-0.6033,-0.6906,-0.7454,-0.7598,-0.7603,-0.7608,-0.7621,-0.6746,-0.63,-0.6302,-0.6417,-0.6623,-0.6918,-0.6951,-0.712,-0.7486,-0.8917,-1.1571,-1.4849,-1.4207,-1.4716,-1.5835,-1.5835,-1.5689,-1.5296,-1.3971,-1.4177,-1.5175,-1.5175,-1.5264,-1.5388,-1.5388,-1.5477,-1.5601,-1.5601,-1.5601,-1.5601,-1.5601,-1.5601,-1.5601,-1.5601,-1.5601,-1.5601,-1.5601,-1.4753,-1.4207,-1.5359,-1.4724,-1.4237,-1.5388,-1.5601,-1.5235,-1.4118,-1.3784,-1.3241,-1.1912,-1.0736,-0.9502,-0.8083,-0.7903,-0.7903,-0.7903,-0.7903,-0.7903,-0.7903,-0.7889,-0.7883,-0.7883,-0.787,-0.7862,-0.7862,-0.7862,-0.7862,-0.7862,-0.7862,-0.7862,-0.7862,-0.7862,-0.7862,-0.7862,-0.7875,-0.7821,0.0302,-0.0479,-0.1135,-0.1488,-0.1968,-0.2521,-0.3176,-0.3681,-0.4083,-0.441,-0.4634,-0.4826,-0.4904,-0.497,-0.5032,-0.5114,-0.5239,-0.5355,-0.5443,-0.5578,-0.5694,-0.5801,-0.6298,-0.6684,-0.6729,-0.7094,-0.7387,-0.7586,-0.7529,-0.7588,-0.7796,-0.8329,-0.8395,-0.7876,-0.7849,-0.7877,-0.7905,-0.7492,-0.7807,-0.886,-0.8911,-0.9235,-0.9727,-0.9995,-1.026,-1.0654,-1.213,-1.3702,-1.5237,-1.5652,-1.6118,-1.6517,-1.6517,-1.6402,-1.6068,-1.5307,-1.529,-1.5601,-1.5601,-1.5601,-1.5601,-1.5601,-1.5601,-1.5601,-1.5601,-1.5601,-1.5601,-1.5601,-1.5601,-1.5601,-1.5601,-1.5601,-1.5601,-1.5601,-1.4629,-1.3844,-1.4391,-1.3451,-1.2907,-1.4237,-1.3874,-1.3421,-1.3665,-1.2427,-1.1249,-1.068,-1.0135,-0.9353,-0.8052,-0.7903,-0.7903,-0.7903,-0.7903,-0.7903,-0.7903,-0.7903,-0.7903,-0.7903,-0.7903,-0.7903,-0.7903,-0.7903,-0.7903,-0.7903,-0.7903,-0.7903,-0.7903,-0.7903,-0.7903,-0.7903,-0.7903,-0.7969,-0.0757,-0.1665,-0.2447,-0.2573,-0.3027,-0.3531,-0.3907,-0.4108,-0.4334,-0.4709,-0.4809,-0.4838,-0.4981,-0.502,-0.5061,-0.5191,-0.5341,-0.5447,-0.5504,-0.5682,-0.591,-0.6204,-0.7145,-0.7892,-0.8166,-0.8197,-0.8272,-0.8462,-0.8456,-0.8668,-0.9182,-0.9627,-0.9552,-0.8841,-0.8812,-0.8967,-0.9255,-0.899,-0.9604,-1.1173,-1.1173,-1.1473,-1.2077,-1.2443,-1.2979,-1.3609,-1.4194,-1.4861,-1.562,-1.6179,-1.655,-1.6791,-1.6791,-1.6614,-1.6387,-1.6241,-1.5987,-1.5723,-1.5723,-1.5655,-1.5601,-1.5601,-1.5601,-1.5601,-1.5601,-1.5601,-1.5601,-1.5601,-1.5601,-1.5601,-1.5601,-1.5601,-1.5507,-1.5175,-1.4088,-1.3151,-1.3151,-1.2123,-1.1581,-1.2877,-1.2367,-1.1912,-1.2517,-1.1133,-0.9808,-0.9478,-0.9505,-0.9143,-0.8052,-0.7903,-0.7903,-0.7903,-0.7994,-0.8027,-0.8027,-0.8116,-0.8177,-0.8177,-0.8086,-0.8086,-0.8177,-0.8086,-0.8086,-0.8177,-0.8177,-0.8177,-0.8177,-0.8177,-0.8177,-0.8177,-0.8177,-0.8302,-0.2195,-0.2371,-0.2522,-0.3054,-0.3581,-0.3982,-0.4008,-0.441,-0.4784,-0.4809,-0.4809,-0.4838,-0.4981,-0.5045,-0.5108,-0.5201,-0.5362,-0.5506,-0.5597,-0.572,-0.6172,-0.7233,-0.8194,-0.9143,-1.0119,-1.0213,-0.9509,-0.778,-0.9408,-1.0224,-0.9514,-1.0477,-1.1073,-1.1087,-1.109,-1.153,-1.2459,-1.1417,-1.1382,-1.2334,-1.2334,-1.2551,-1.2973,-1.3319,-1.4211,-1.544,-1.3919,-1.4815,-1.7214,-1.562,-1.5754,-1.699,-1.699,-1.6888,-1.6683,-1.6672,-1.6407,-1.5996,-1.5996,-1.582,-1.5601,-1.5601,-1.5601,-1.5601,-1.5601,-1.5601,-1.5601,-1.5601,-1.5601,-1.5601,-1.5601,-1.5601,-1.5299,-1.4058,-1.2727,-1.1762,-1.1762,-1.0767,-1.0226,-1.1521,-1.1732,-1.131,-1.0135,-1.0115,-0.9852,-0.8644,-0.8732,-0.8668,-0.7994,-0.7903,-0.7903,-0.7903,-0.8183,-0.84,-0.84,-0.8671,-0.8885,-0.8885,-0.8552,-0.8522,-0.8854,-0.8552,-0.8552,-0.8854,-0.8885,-0.8885,-0.8885,-0.8885,-0.8885,-0.8885,-0.8885,-0.8885,-0.2346,-0.2925,-0.3504,-0.3681,-0.4133,-0.4533,-0.4533,-0.4659,-0.4809,-0.4809,-0.4883,-0.4953,-0.5045,-0.511,-0.522,-0.5366,-0.5492,-0.5833,-0.6549,-0.6769,-0.7393,-0.8827,-0.9474,-1.0062,-1.077,-1.0635,-1.0718,-1.1198,-1.104,-1.1311,-1.2161,-1.2702,-1.2713,-1.2144,-1.2586,-1.3072,-1.3518,-1.3178,-1.3751,-1.5255,-1.5691,-1.5997,-1.6108,-1.6244,-1.6553,-1.6964,-1.641,-1.6716,-1.7549,-1.685,-1.628,-1.5959,-1.6703,-1.6404,-1.5622,-1.6561,-1.6721,-1.6408,-1.612,-1.5928,-1.5836,-1.565,-1.5601,-1.5601,-1.5601,-1.5601,-1.5601,-1.5601,-1.5601,-1.5601,-1.5601,-1.4962,-1.4237,-1.3784,-1.2037,-1.0438,-1.0438,-0.9441,-0.8991,-1.0479,-1.0088,-0.9724,-1.0361,-0.9849,-0.9217,-0.8793,-0.8824,-0.8824,-0.8607,-0.8577,-0.8577,-0.8577,-0.8671,-0.8732,-0.8732,-0.8824,-0.8885,-0.8885,-0.8793,-0.8793,-0.8885,-0.8793,-0.8793,-0.8885,-0.8885,-0.8885,-0.8885,-0.8885,-0.8885,-0.8888,-0.898,-0.9147,-0.2925,-0.3479,-0.4058,-0.4234,-0.4533,-0.4809,-0.4809,-0.4809,-0.4819,-0.4852,-0.493,-0.514,-0.5558,-0.5661,-0.5877,-0.6412,-0.6276,-0.6554,-0.7906,-0.7876,-0.8465,-1.0434,-1.0834,-1.1267,-1.2045,-1.2003,-1.2258,-1.3069,-1.2677,-1.2879,-1.3986,-1.4272,-1.4132,-1.3579,-1.4083,-1.4582,-1.5087,-1.5053,-1.582,-1.7325,-1.7736,-1.7941,-1.7941,-1.7941,-1.7941,-1.7936,-1.7855,-1.7852,-1.7836,-1.7599,-1.6939,-1.6112,-1.6862,-1.6524,-1.5759,-1.6678,-1.691,-1.6758,-1.637,-1.6181,-1.6084,-1.5903,-1.5854,-1.5854,-1.5854,-1.5854,-1.5854,-1.5854,-1.5482,-1.5114,-1.5114,-1.4135,-1.3004,-1.2573,-1.1164,-0.9814,-0.9323,-0.871,-0.8527,-0.958,-0.9212,-0.9057,-1.0101,-0.9672,-0.9277,-0.9373,-0.9328,-0.9185,-0.8922,-0.8885,-0.8885,-0.8885,-0.8976,-0.9034,-0.9034,-0.9156,-0.9217,-0.9217,-0.9095,-0.9095,-0.9217,-0.9095,-0.9095,-0.9217,-0.9217,-0.9217,-0.9217,-0.9268,-0.9293,-0.9296,-0.9443,-0.9635,-0.3858,-0.4008,-0.4158,-0.4684,-0.4809,-0.4809,-0.4809,-0.4813,-0.4842,-0.4979,-0.5031,-0.5376,-0.6344,-0.6631,-0.7062,-0.8119,-0.7662,-0.7783,-0.9568,-0.9075,-0.9458,-1.2032,-1.2316,-1.2759,-1.4012,-1.4261,-1.4087,-1.343,-1.4203,-1.4788,-1.4968,-1.5196,-1.5348,-1.54,-1.5625,-1.6172,-1.7049,-1.7084,-1.7508,-1.8398,-1.8398,-1.8398,-1.8398,-1.8398,-1.8398,-1.8387,-1.8207,-1.811,-1.8089,-1.7841,-1.7576,-1.7344,-1.7284,-1.7134,-1.692,-1.691,-1.6936,-1.6974,-1.6791,-1.6527,-1.6328,-1.6286,-1.6312,-1.6312,-1.6312,-1.6312,-1.6281,-1.6219,-1.5234,-1.4185,-1.4123,-1.3058,-1.1708,-1.0482,-1.0164,-0.9755,-0.8489,-0.8521,-0.8808,-0.884,-0.9124,-0.9347,-0.9347,-0.9599,-0.992,-1.0248,-1.0123,-0.9761,-0.9035,-0.8952,-0.8946,-0.8946,-0.9186,-0.9335,-0.9335,-0.9609,-0.9792,-0.9792,-0.9488,-0.9457,-0.9792,-0.9488,-0.9491,-0.9802,-0.9802,-0.9805,-0.9812,-0.9957,-1.0032,-1.0035,-1.0219,-1.0322,-0.3858,-0.4282,-0.4634,-0.4759,-0.4809,-0.4809,-0.4809,-0.4888,-0.4968,-0.4993,-0.563,-0.6073,-0.564,-0.7068,-0.8285,-0.8166,-0.8894,-0.9964,-1.1349,-1.1369,-1.1908,-1.378,-1.3716,-1.4108,-1.5577,-1.5481,-1.554,-1.6014,-1.53,-1.5169,-1.5899,-1.6002,-1.6215,-1.6544,-1.7133,-1.7657,-1.8022,-1.8027,-1.8164,-1.8398,-1.8398,-1.8398,-1.8398,-1.8398,-1.8398,-1.8398,-1.8339,-1.8312,-1.8296,-1.8094,-1.7333,-1.6309,-1.5984,-1.5783,-1.5715,-1.5525,-1.6084,-1.6996,-1.6937,-1.677,-1.658,-1.6371,-1.6312,-1.6312,-1.6312,-1.6312,-1.6089,-1.5042,-1.4476,-1.3971,-1.2905,-1.1645,-1.0608,-1.0291,-0.9436,-0.871,-0.8649,-0.8712,-0.8936,-0.944,-0.9828,-1.0057,-1.0057,-1.0117,-1.0213,-1.028,-1.0246,-1.0105,-0.9764,-0.9618,-0.9579,-0.9579,-0.964,-0.967,-0.967,-0.9761,-0.9792,-0.9792,-0.9731,-0.97,-0.9792,-0.9731,-0.9751,-0.9957,-0.9961,-1.0018,-1.0164,-1.0202,-1.0222,-1.0226,-1.0371,-1.0436,-0.4259,-0.4558,-0.4809,-0.4809,-0.4809,-0.4819,-0.4885,-0.4934,-0.5123,-0.56,-0.6187,-0.6774,-0.731,-0.8523,-0.9648,-1.0201,-1.0624,-1.1433,-1.3033,-1.2907,-1.3241,-1.4843,-1.4952,-1.5243,-1.6198,-1.6202,-1.6366,-1.6953,-1.6392,-1.6242,-1.6761,-1.6992,-1.7222,-1.7482,-1.7978,-1.8304,-1.8398,-1.8398,-1.8398,-1.8398,-1.8398,-1.8398,-1.8398,-1.8398,-1.8398,-1.8398,-1.8398,-1.8398,-1.8387,-1.8293,-1.7725,-1.6905,-1.6619,-1.6397,-1.6211,-1.6057,-1.6409,-1.7001,-1.7001,-1.6529,-1.5885,-1.5731,-1.6102,-1.6392,-1.5135,-1.5204,-1.5399,-1.3979,-1.3144,-1.2475,-1.1707,-1.0485,-0.9485,-0.9485,-0.9036,-0.8649,-0.8876,-0.9201,-0.9562,-1.0078,-1.034,-1.0473,-1.0473,-1.0473,-1.0473,-1.0473,-1.0415,-1.0341,-1.0224,-1.0114,-1.0022,-1.0022,-1.0022,-1.0022,-1.0022,-1.0022,-1.0022,-1.0022,-1.0022,-1.0022,-1.0022,-1.0022,-1.0063,-1.0116,-1.012,-1.0195,-1.0312,-1.0373,-1.0407,-1.0378,-1.0524,-1.0592,-0.4784,-0.4809,-0.4809,-0.4809,-0.4819,-0.4848,-0.4979,-0.5121,-0.547,-0.6396,-0.6799,-0.7599,-0.9654,-1.0288,-1.1043,-1.2766,-1.2474,-1.2663,-1.4475,-1.4023,-1.4028,-1.5418,-1.5863,-1.6111,-1.6296,-1.6586,-1.6823,-1.699,-1.7265,-1.7426,-1.7426,-1.7852,-1.811,-1.8137,-1.8296,-1.8398,-1.8398,-1.8398,-1.8293,-1.8117,-1.8117,-1.8007,-1.7791,-1.7791,-1.7901,-1.8117,-1.7901,-1.7937,-1.8077,-1.7901,-1.7717,-1.7505,-1.7296,-1.7214,-1.7154,-1.6897,-1.6905,-1.7017,-1.6785,-1.5926,-1.4907,-1.4907,-1.5596,-1.5981,-1.355,-1.3652,-1.4315,-1.2931,-1.1651,-1.0671,-1.0472,-0.9513,-0.862,-0.8653,-0.8884,-0.9117,-0.9217,-0.9788,-1.0356,-1.0654,-1.0688,-1.0688,-1.0688,-1.0688,-1.0688,-1.0688,-1.0609,-1.0521,-1.0521,-1.0382,-1.0312,-1.0312,-1.0312,-1.0312,-1.0312,-1.0312,-1.0312,-1.0312,-1.0312,-1.0312,-1.0312,-1.0312,-1.0322,-1.0342,-1.0342,-1.0352,-1.0337,-1.0463,-1.0521,-1.0524,-1.066,-1.0688,-0.4684,-0.4809,-0.4809,-0.4809,-0.4892,-0.4976,-0.4995,-0.5694,-0.6361,-0.6564,-0.7844,-0.8968,-0.9096,-1.0699,-1.2183,-1.2696,-1.3649,-1.4583,-1.5319,-1.5294,-1.5299,-1.5572,-1.5984,-1.6269,-1.6312,-1.6694,-1.6964,-1.7001,-1.741,-1.7658,-1.7658,-1.7938,-1.818,-1.8334,-1.8382,-1.8398,-1.8398,-1.8398,-1.7796,-1.6583,-1.6583,-1.5907,-1.4662,-1.4662,-1.5376,-1.6513,-1.5234,0.0,-1.6478,-1.5195,-1.4645,-1.4492,-1.3107,-1.3984,-1.5893,-1.4329,-1.5295,-1.7117,-1.5731,-1.5103,-1.4907,-1.4907,-1.4278,-1.3451,-1.296,-1.296,-1.2865,-1.1457,-1.0899,-1.0439,-0.9283,-0.8787,-0.8653,-0.895,-0.905,-0.9283,-0.9888,-1.0323,-1.0621,-1.0688,-1.0688,-1.0688,-1.0688,-1.0688,-1.0688,-1.0688,-1.0664,-1.068,-1.068,-1.0446,-1.0312,-1.0312,-1.0312,-1.0312,-1.0312,-1.0312,-1.0312,-1.0312,-1.0312,-1.0312,-1.0312,-1.0312,-1.0334,-1.0453,-1.0456,-1.0517,-1.0643,-1.0637,-1.068,-1.068,-1.0674,-1.0688,-0.4734,-0.4809,-0.4809,-0.4809,-0.4904,-0.5009,-0.5032,-0.5865,-0.675,-0.7215,-0.843,-0.9581,-1.0182,-1.1446,-1.2601,-1.3263,-1.4223,-1.5052,-1.5531,-1.5601,-1.5601,-1.5601,-1.6021,-1.6312,-1.6312,-1.6732,-1.706,-1.719,-1.7523,-1.7683,-1.7683,-1.8033,-1.8285,-1.8398,-1.8398,-1.8042,-1.7263,-1.7263,-1.6513,-1.4982,-1.4982,-1.4627,-1.3915,-1.3915,-1.4307,-1.4946,-1.4236,-1.4307,-1.4946,-1.42,-1.3915,-1.3836,-1.3007,-1.3478,-1.4484,-1.3581,-1.4044,-1.5005,-1.4203,-1.338,-1.2709,-1.2709,-1.2738,-1.2533,-1.1054,-1.1123,-1.142,-1.0008,-0.9613,-0.9446,-0.8787,-0.8587,-0.8687,-0.9017,-0.9383,-0.9821,-1.0356,-1.0588,-1.0688,-1.0688,-1.0688,-1.0688,-1.0688,-1.0688,-1.0688,-1.0688,-1.0688,-1.0688,-1.0688,-1.0599,-1.051,-1.051,-1.051,-1.051,-1.051,-1.051,-1.051,-1.051,-1.051,-1.051,-1.051,-1.051,-1.0541,-1.0609,-1.0612,-1.0646,-1.0688,-1.0688,-1.0688,-1.0688,-1.0688,-1.0688,-0.4809,-0.4809,-0.4813,-0.4834,-0.4932,-0.505,-0.5116,-0.604,-0.7119,-0.7843,-0.8889,-1.0076,-1.1373,-1.2032,-1.2656,-1.3467,-1.4336,-1.4966,-1.5171,-1.5418,-1.5601,-1.5601,-1.6021,-1.6312,-1.6312,-1.6732,-1.7109,-1.739,-1.7642,-1.7786,-1.7839,-1.8194,-1.8398,-1.8398,-1.8077,-1.7369,-1.6195,-1.5872,-1.4946,-1.3416,-1.3416,-1.3234,-1.2917,-1.2917,-1.3091,-1.3377,-1.3059,-1.3095,-1.3377,-1.3059,-1.2917,-1.2917,-1.2917,-1.2972,-1.3091,-1.3021,-1.3018,-1.3019,-1.2681,-1.1725,-1.0638,-1.0339,-1.0995,-1.1483,-0.928,-0.938,-1.0008,-0.8917,-0.8587,-0.8587,-0.8587,-0.8653,-0.882,-0.925,-0.9821,-1.0389,-1.0654,-1.0688,-1.0688,-1.0688,-1.0688,-1.0688,-1.0688,-1.0688,-1.0688,-1.0688,-1.0688,-1.0688,-1.0688,-1.0688,-1.0688,-1.0688,-1.0688,-1.0688,-1.0688,-1.0688,-1.0688,-1.0688,-1.0688,-1.0688,-1.0688,-1.0688,-1.0688,-1.0688,-1.0688,-1.0688,-1.0688,-1.0688,-1.0688,-1.0688,-1.0688,-1.0688,-0.4809,-0.4809,-0.483,-0.4964,-0.5028,-0.512,-0.5183,-0.6583,-0.7907,-0.7971,-0.9388,-1.0798,-1.1459,-1.2032,-1.2381,-1.2278,-1.374,-1.4669,-1.3965,-1.4873,-1.5601,-1.5601,-1.6021,-1.6312,-1.6312,-1.6732,-1.7109,-1.739,-1.7803,-1.8148,-1.8323,-1.8377,-1.8398,-1.8398,-1.7082,-1.6336,-1.6195,-1.4804,-1.3341,-1.1801,-1.1801,-1.1087,-0.9735,-0.9735,-1.0482,-1.1729,-1.0341,-1.0518,0.0,-1.0305,-0.9735,-0.9735,-0.9735,-1.0545,-1.1763,-1.1487,-1.2195,-1.3078,-1.1616,-1.093,-1.0505,-0.9217,-0.8884,-0.895,-0.8687,-0.8687,-0.8753,-0.862,-0.8587,-0.8587,-0.8587,-0.8817,-0.9217,-0.9924,-1.0389,-1.0654,-1.0688,-1.0688,-1.0688,-1.0688,-1.0688,-1.0688,-1.0688,-1.0688,-1.0688,-1.0688,-1.0688,-1.0688,-1.0688,-1.0688,-1.0688,-1.0688,-1.0688,-1.0688,-1.0688,-1.0688,-1.0688,-1.0688,-1.0688,-1.0688,-1.0688,-1.0688,-1.0688,-1.0688,-1.0688,-1.0688,-1.0688,-1.0688,-1.0688,-1.0688,-1.0688,-1.0688,-0.4809,-0.4809,-0.4832,-0.4974,-0.5041,-0.5266,-0.5897,-0.7065,-0.8168,-0.8723,-0.9833,-1.0884,-1.1486,-1.1759,-1.2179,-1.2936,-1.3145,-1.3533,-1.448,-1.3827,-1.3844,-1.5418,-1.459,-1.419,-1.4949,-1.4689,-1.4607,-1.4899,-1.5342,-1.5612,-1.569,-1.6583,-1.7082,-1.7082,-1.5624,-1.4374,-1.344,-1.2838,-1.1732,-1.023,-1.023,-0.9912,-0.9304,-0.9304,-0.9627,-1.0197,-0.9554,-0.966,0.0,-0.9554,-0.9304,-0.9304,-0.9304,-0.966,-1.0188,-1.0102,-1.0352,-1.0671,-0.9949,-0.9646,-0.9453,-0.8812,-0.8587,-0.8587,-0.8587,-0.8587,-0.8587,-0.8587,-0.8587,-0.8653,-0.8851,-0.9319,-0.9821,-1.0123,-1.0455,-1.0688,-1.0688,-1.0688,-1.0688,-1.0688,-1.0688,-1.0688,-1.0688,-1.0688,-1.0688,-1.0688,-1.0688,-1.0688,-1.0688,-1.0688,-1.0688,-1.0688,-1.0688,-1.0688,-1.0688,-1.0688,-1.0688,-1.0688,-1.0688,-1.0688,-1.0688,-1.0688,-1.0688,-1.0688,-1.0688,-1.0688,-1.0688,-1.0688,-1.0688,-1.0688,-1.0688,-1.0688,-0.4809,-0.483,-0.4896,-0.499,-0.529,-0.5734,-0.6461,-0.7557,-0.861,-0.9278,-1.008,-1.0829,-1.1267,-1.1623,-1.2069,-1.2766,-1.2574,-1.2896,-1.4421,-1.2935,-1.2689,-1.5389,-1.3697,-1.2823,-1.4185,-1.35,-1.3055,-1.3273,-1.3669,-1.3915,-1.3915,-1.4516,-1.5053,-1.5518,-1.4018,-1.2699,-1.1621,-1.1159,-1.0374,-0.9304,-0.9304,-0.9304,-0.9304,-0.9304,-0.9304,-0.9304,-0.9304,-0.9304,0.0,-0.9304,-0.9304,-0.9304,-0.9304,-0.9304,-0.9304,-0.9304,-0.9231,-0.9087,-0.9,-0.8902,-0.8789,-0.8702,-0.8617,-0.8587,-0.8587,-0.8587,-0.8587,-0.8587,-0.8687,-0.8851,-0.9319,-0.9821,-1.0226,-1.0326,-1.0522,-1.0688,-1.0688,-1.0688,-1.0688,-1.0688,-1.0688,-1.0688,-1.0688,-1.0688,-1.0688,-1.0688,-1.0688,-1.0688,-1.0688,-1.0688,-1.0688,-1.0688,-1.0688,-1.0688,-1.0688,-1.0688,-1.0688,-1.0688,-1.0688,-1.0688,-1.0688,-1.0688,-1.0688,-1.0688,-1.0688,-1.0688,-1.0688,-1.1115,-1.131,-1.1343,-1.1736,-1.193,-0.4809,-0.4902,-0.502,-0.5084,-0.5844,-0.6599,-0.6687,-0.8094,-0.9388,-0.9388,-1.008,-1.0692,-1.0719,-1.1618,-1.2064,-1.1083,-1.2084,-1.3059,-1.33,-1.2366,-1.2768,-1.5636,-1.3811,-1.291,-1.4458,-1.3819,-1.3289,-1.3293,-1.3669,-1.3915,-1.3915,-1.248,-1.2337,-1.388,-1.2445,-1.1621,-1.1586,-1.0089,-0.9304,-0.9304,-0.9304,-0.9304,-0.9304,-0.9304,-0.9304,-0.9304,-0.9304,-0.9304,0.0,-0.9304,-0.9304,-0.9304,-0.9304,-0.9304,-0.9304,-0.9304,-0.9231,-0.9098,-0.9098,-0.8973,-0.8803,-0.8803,-0.8718,-0.8587,-0.8587,-0.8587,-0.8587,-0.8587,-0.8851,-0.9253,-0.999,-1.019,-1.0289,-1.0621,-1.0688,-1.0688,-1.0688,-1.0688,-1.0688,-1.0688,-1.0688,-1.0688,-1.0688,-1.0688,-1.0688,-1.0688,-1.0688,-1.0688,-1.0688,-1.0688,-1.0688,-1.0688,-1.0688,-1.0688,-1.0688,-1.0688,-1.0688,-1.0688,-1.0688,-1.0688,-1.0688,-1.0688,-1.0688,-1.0688,-1.0688,-1.0688,-1.0688,-1.2095,-1.2783,-1.2816,-1.4222,-1.4842,-0.4912,-0.5409,-0.5785,-0.5295,-0.633,-0.7497,-0.7564,-0.853,-0.9581,-1.0162,-1.0496,-1.0829,-1.124,-1.1623,-1.1996,-1.2467,-1.1723,-1.1545,-1.2901,-1.0803,-1.0425,-1.3995,-1.308,-1.1725,-1.0605,-1.0312,-1.0253,-1.0282,-1.0495,-1.0675,-1.0767,-1.0305,-1.0734,-1.2266,-1.0839,-1.0017,-1.0017,-0.9554,-0.9304,-0.9304,-0.9304,-0.9304,-0.9304,-0.9304,-0.9304,-0.9304,-0.9304,-0.9304,-0.9304,-0.9304,-0.9304,-0.9304,-0.9304,-0.9304,-0.9304,-0.9304,-0.928,-0.9239,-0.9125,-0.8995,-0.8846,-0.883,-0.8856,-0.895,-0.895,-0.895,-0.8987,-0.9259,-0.9591,-0.9891,-1.0127,-1.0356,-1.0555,-1.0654,-1.0688,-1.0688,-1.0688,-1.0688,-1.0688,-1.0688,-1.0636,-1.0565,-1.0565,-1.0483,-1.0419,-1.0419,-1.0419,-1.0419,-1.0419,-1.0419,-1.0419,-1.0419,-1.0507,-1.0605,-1.0677,-1.0688,-1.0688,-1.0688,-1.1604,-1.1703,-1.0754,-1.1604,-1.2128,-1.2128,-1.2128,-1.2622,-1.3571,-1.4025,-1.4254,-1.4254,-1.4679,-1.5424,-0.4981,-0.5667,-0.6155,-0.5395,-0.6844,-0.8372,-0.8066,-0.8972,-1.0053,-1.0582,-1.0692,-1.0802,-1.1185,-1.1154,-1.1362,-1.2238,-1.0855,-1.0308,-1.2132,-0.9802,-0.8818,-1.1341,-1.154,-1.0723,-0.8798,-0.8732,-0.8821,-0.8908,-0.903,-0.9149,-0.9299,-0.9304,-0.9732,-1.0695,-0.9804,-0.9304,-0.9304,-0.9304,-0.9304,-0.9304,-0.9304,-0.9304,-0.9304,-0.9304,-0.9304,-0.9304,-0.9304,-0.9304,0.0,-0.9304,-0.9304,-0.9304,-0.9304,-0.9304,-0.9304,-0.9304,-0.9304,-0.9294,-0.9187,-0.9054,-0.8906,-0.8864,-0.896,-0.915,-0.9419,-0.9419,-0.9422,-0.9794,-1.0027,-1.0223,-1.0356,-1.0555,-1.0688,-1.0688,-1.0688,-1.0704,-1.0646,-1.0633,-1.0619,-1.0565,-1.0477,-1.0412,-1.0412,-1.0369,-1.0312,-1.0312,-1.0312,-1.0312,-1.0312,-1.0312,-1.0312,-1.0312,-1.0358,-1.0696,-1.137,-1.1472,-1.1475,-1.1475,-1.2816,-1.3206,-1.2326,-1.3144,-1.36,-1.36,-1.36,-1.4025,-1.4907,-1.5429,-1.5981,-1.6467,-1.6467,-1.6953,0.0,-0.5706,-0.6226,-0.542,-0.7314,-0.914,-0.8143,-0.9361,0.0,-1.061,-1.0665,-1.0692,-1.0692,-1.046,-1.0374,-1.0831,-0.9749,-0.9415,-1.1036,-0.9413,-0.8085,-0.8174,-0.9546,-0.997,-0.8706,-0.8724,-0.8807,-0.8895,-0.9017,-0.9136,-0.9285,-0.9299,-0.9304,-0.9304,-0.9304,-0.9304,-0.9304,-0.9304,-0.9304,-0.9304,-0.9304,-0.9304,-0.9304,-0.9304,-0.9304,0.0,-0.9304,-0.9304,-0.9304,-0.9304,-0.9304,-0.9304,-0.9304,-0.9304,-0.9304,-0.9304,-0.9304,-0.9304,-0.9304,-0.915,-0.8948,-0.8967,-0.9075,-0.9316,-1.0024,-0.9994,-0.9794,-1.0127,-1.0223,-1.0323,-1.0621,-1.0677,-1.0704,-1.0704,-1.0697,-1.0649,-1.0507,-1.0477,-1.0436,-1.0307,-1.0305,-1.0263,-1.0263,-1.0256,-1.0249,-1.0249,-1.0249,-1.0249,-1.0249,-1.0249,-1.0249,-1.0249,-1.0351,-1.1011,-1.2431,-1.2686,-1.2832,-1.2947,-1.4254,-1.5005,-1.4907,-1.5005,-1.5038,-1.5038,-1.5136,-1.5201,-1.5201,-1.6495,-1.7829,-1.911,-1.911,-1.9116,-0.5116,0.0,-0.6369,-0.5545,-0.7379,-0.8975,0.0,-0.8923,-1.0496,-0.9833,-1.0249,-1.0692,-1.0692,-1.0633,-1.0658,-1.0859,-0.9921,-0.9357,-0.986,-0.9593,-0.9063,-0.8302,-0.9433,-0.9835,-0.8698,-0.8614,-0.8682,-0.8804,-0.8889,-0.9011,-0.9133,-0.9258,-0.9304,-0.9304,-0.9304,-0.9304,-0.9304,-0.9304,-0.9304,-0.9304,-0.9304,-0.9304,-0.9304,-0.9304,-0.9304,-0.9304,-0.9304,-0.9304,-0.9304,-0.9304,-0.9304,-0.9304,-0.9304,-0.9304,-0.9304,-0.9304,-0.9304,-0.9304,-0.9304,-0.9327,-0.9406,-0.9786,-0.991,-1.0024,-1.0455,-1.0356,-1.016,-1.0489,-1.0588,-1.0588,-1.0688,-1.0633,-1.0548,-1.0548,-1.0463,-1.0407,-1.0337,-1.0363,-1.0352,-1.0318,-1.0185,-1.0072,-1.0072,-0.9974,-0.9927,-0.9927,-0.9927,-0.9927,-0.9927,-0.9927,-0.9927,-0.9927,-1.092,-1.1751,-1.2102,-1.2458,-1.3153,-1.4343,-1.5716,-1.6009,-1.494,-1.5944,-1.6527,-1.6527,-1.7571,-1.8098,-1.8098,-1.8451,-1.8778,-1.911,-1.911,-1.9213,-0.4779,-0.5673,-0.6409,-0.5607,-0.7096,-0.8392,-0.7018,-0.8454,-0.997,-0.9499,-0.9778,-1.0107,-1.0107,-0.9557,-0.9189,-0.9525,-0.8849,-0.8389,-0.8735,-0.8909,-0.8827,-0.8275,-0.889,-0.9163,-0.8634,-0.8587,-0.8672,-0.8795,-0.8849,-0.8971,-0.9092,-0.9242,-0.9304,-0.9304,-0.9304,-0.9304,-0.9304,-0.9304,-0.9304,-0.9304,-0.9304,-0.9304,-0.9304,-0.9304,-0.9304,-0.9304,-0.9304,-0.9304,-0.9304,-0.9304,-0.9304,-0.9304,-0.9304,-0.9304,-0.9304,-0.9304,-0.9304,-0.9341,-0.9518,-0.9679,-0.9808,-1.0116,-1.0193,-1.0259,-1.0588,-1.0555,-1.0455,-1.0654,-1.0688,-1.0688,-1.0688,-1.066,-1.0578,-1.051,-1.0432,-1.0341,-1.0205,-1.0175,-1.0154,-1.0083,-0.9971,-0.9913,-0.9913,-0.9846,-0.9792,-0.9792,-0.9792,-1.0004,-1.0604,-1.0668,-1.0906,-1.1533,-1.2314,-1.3078,-1.3774,-1.4015,-1.4593,-1.5611,-1.7119,-1.7604,-1.6861,-1.7571,-1.7958,-1.7958,-1.8714,-1.911,-1.911,-1.911,-1.911,-1.911,-1.911,-1.9249,-0.4325,-0.5341,-0.6267,-0.5556,-0.6599,-0.7565,-0.6712,-0.8011,-0.9333,-0.9058,-0.9196,-0.9361,-0.9278,-0.8122,-0.7402,-0.7968,-0.7602,-0.7371,-0.7842,-0.7993,-0.811,-0.8185,-0.8294,-0.8443,-0.8573,-0.8587,-0.863,-0.877,-0.8856,-0.8933,-0.9038,-0.9204,-0.9277,-0.9277,-0.9296,-0.9304,-0.9304,-0.9304,-0.9304,-0.9304,-0.9304,-0.9304,-0.9304,-0.9304,-0.9304,-0.9304,-0.9304,0.0,-0.9304,-0.9304,-0.9304,-0.9304,-0.9304,-0.9304,-0.9304,-0.9304,-0.9338,-0.9443,-0.9872,-1.0071,-1.0188,-1.025,-1.0289,-1.0323,-1.0621,-1.0688,-1.0688,-1.0688,-1.0688,-1.0688,-1.0688,-1.0671,-1.0646,-1.0493,-1.0443,-1.0348,-1.0042,-0.9984,-0.9944,-0.9815,-0.9792,-0.9792,-0.9792,-0.9974,-1.0092,-1.0092,-1.0274,-1.0785,-1.1868,-1.2019,-1.244,-1.3575,-1.3874,-1.4515,-1.5819,-1.6145,-1.645,-1.6838,-1.8221,-1.9068,-1.9104,-1.911,-1.911,-1.911,-1.911,-1.911,-1.911,-1.911,-1.911,-1.911,-1.9152,-1.931,-0.4445,-0.5021,-0.5558,-0.5433,-0.6158,-0.6685,-0.5798,-0.7568,-0.8975,-0.7432,-0.8343,-0.9251,-0.8733,-0.7848,-0.7458,-0.8226,-0.8009,-0.7798,-0.7894,-0.7919,-0.7983,-0.8177,-0.822,-0.8318,-0.8565,-0.8587,-0.8595,-0.8614,-0.8728,-0.8841,-0.886,-0.9038,-0.9125,-0.9125,-0.9253,-0.9304,-0.9304,-0.9304,-0.9304,-0.9304,-0.9304,-0.9304,-0.9304,-0.9304,-0.9304,-0.9304,0.0,-0.9304,-0.9304,-0.9304,-0.9304,-0.9304,-0.9304,-0.9304,-0.9304,-0.9304,-0.9518,-0.9883,-1.0336,-1.0509,-1.0529,-1.0615,-1.0621,-1.0621,-1.0688,-1.0688,-1.0688,-1.0688,-1.0688,-1.0688,-1.0688,-1.0622,-1.049,-1.0348,-1.0212,-1.0038,-0.9863,-0.9825,-0.9819,-0.9795,-0.9792,-0.9792,-0.9792,-1.0694,-1.142,-1.142,-1.2376,-1.3186,-1.3366,-1.3396,-1.3455,-1.3665,-1.4649,-1.5407,-1.5653,-1.6867,-1.7732,-1.8016,-1.8502,-1.8874,-1.9098,-1.911,-1.911,-1.911,-1.911,-1.911,-1.911,-1.911,-1.911,-1.9116,-1.9334,-1.9588,-0.3998,-0.4679,-0.5409,-0.5409,-0.5714,-0.5882,-0.5493,-0.6712,-0.7706,-0.6879,-0.7349,-0.79,-0.782,-0.7234,-0.7046,-0.7896,-0.7938,-0.7903,-0.7903,-0.796,-0.8066,-0.8183,-0.8261,-0.8402,-0.8571,-0.8587,-0.8587,-0.8587,-0.8735,-0.8803,-0.8803,-0.8906,-0.903,-0.9098,-0.9149,-0.9242,-0.9304,-0.9304,-0.9304,-0.9304,-0.9304,-0.9304,-0.9304,-0.9304,-0.9304,-0.9304,0.0,-0.9304,-0.9304,-0.9304,-0.9304,-0.9304,-0.9304,-0.9304,-0.9341,-0.9554,-0.999,-1.0494,-1.0569,-1.0747,-1.0908,-1.0749,-1.0688,-1.0688,-1.0688,-1.0688,-1.0688,-1.0688,-1.0688,-1.0688,-1.0688,-1.0633,-1.0558,-1.0366,-1.0226,-1.0107,-0.9842,-0.9792,-0.9792,-0.9792,-0.9792,-1.0031,-1.0698,-1.1299,-1.1963,-1.2681,-1.3306,-1.3963,-1.4649,-1.4738,-1.4976,-1.5693,-1.6408,-1.6845,-1.6845,-1.7636,-1.8215,-1.8487,-1.8784,-1.8977,-1.9098,-1.911,-1.911,-1.911,-1.911,-1.911,-1.911,-1.911,-1.9177,-1.9322,-1.9443,-1.9727,-0.3587,-0.4484,-0.5409,-0.5409,-0.5409,-0.5409,-0.5409,-0.6077,-0.6631,-0.6437,-0.6548,-0.674,-0.6849,-0.6709,-0.678,-0.7487,-0.7766,-0.7903,-0.7903,-0.7982,-0.8096,-0.8185,-0.8285,-0.8432,-0.8573,-0.8587,-0.8587,-0.8587,-0.8707,-0.8762,-0.8762,-0.8842,-0.8916,-0.9011,-0.9041,-0.9111,-0.9264,-0.9264,-0.9277,-0.9304,-0.9304,-0.9304,-0.9304,-0.9304,-0.9304,-0.9304,-0.9304,-0.9304,-0.9304,-0.9304,-0.9304,-0.9304,-0.9304,-0.9377,-0.9485,-0.999,-1.0512,-1.0918,-1.0804,-1.09,-1.107,-1.0806,-1.0688,-1.0688,-1.0688,-1.0688,-1.0688,-1.0688,-1.0688,-1.0688,-1.0688,-1.0688,-1.0646,-1.0351,-1.0312,-1.0195,-0.9856,-0.9792,-0.9792,-0.9792,-1.0031,-1.0543,-1.1541,-1.22,-1.2946,-1.3993,-1.4456,-1.5054,-1.6012,-1.6187,-1.6613,-1.7583,-1.7883,-1.7998,-1.7998,-1.8227,-1.8469,-1.8705,-1.8905,-1.9044,-1.9104,-1.911,-1.911,-1.911,-1.911,-1.911,-1.911,-1.9171,-1.9304,-1.9503,-1.963,-1.9914,-0.3587,-0.4484,-0.5409,-0.5409,-0.5409,-0.5409,-0.5409,-0.6077,-0.6464,-0.5659,-0.6133,-0.6548,-0.5989,-0.6517,-0.7101,-0.7286,-0.7642,-0.7903,-0.7903,-0.7908,-0.7973,-0.8174,-0.8212,-0.8304,-0.8565,-0.8587,-0.8587,-0.8587,-0.8595,-0.86,-0.86,-0.8751,-0.8822,-0.883,-0.887,-0.8989,-0.9111,-0.9111,-0.9163,-0.9304,-0.9304,-0.9304,-0.9304,-0.9304,-0.9304,-0.9304,-0.9304,-0.9304,-0.9304,-0.9304,-0.9304,-0.9304,-0.9304,-0.9518,-0.9951,-1.0645,-1.0886,-1.0854,-1.108,-1.1043,-1.0904,-1.0738,-1.0688,-1.0688,-1.0688,-1.0688,-1.0688,-1.0688,-1.0688,-1.0688,-1.0688,-1.0688,-1.0646,-1.0351,-1.0312,-1.0195,-0.9856,-0.9792,-0.9792,-0.9792,-1.0755,-1.1601,-1.1692,-1.372,-1.5362,-1.5451,-1.669,-1.7631,-1.7721,-1.7949,-1.8141,-1.8233,-1.8251,-1.8263,-1.8263,-1.8505,-1.8668,-1.8686,-1.8735,-1.885,-1.9098,-1.911,-1.911,-1.911,-1.911,-1.911,-1.911,-1.9352,-1.9479,-1.9509,-2.0017,-2.0271,-0.3587,-0.4484,-0.5409,-0.5409,-0.5409,-0.5409,-0.5409,-0.5659,-0.5798,-0.5465,-0.5659,-0.5974,-0.6238,-0.6932,-0.7519,-0.7664,-0.7812,-0.7903,-0.7903,-0.7903,-0.7962,-0.8174,-0.8204,-0.8296,-0.8565,-0.8587,-0.8587,-0.8587,-0.8587,-0.8587,-0.8587,-0.8664,-0.8724,-0.88,-0.8815,-0.8897,-0.8984,-0.906,-0.9119,-0.9163,-0.9269,-0.9304,-0.9304,-0.9304,-0.9304,-0.9304,-0.9304,-0.9304,-0.9304,-0.9304,-0.9304,-0.9341,-0.959,-1.0062,-1.0596,-1.0798,-1.1015,-1.1144,-1.1045,-1.0958,-1.089,-1.0735,-1.0688,-1.0688,-1.0688,-1.0688,-1.0688,-1.0688,-1.0688,-1.0688,-1.0688,-1.0649,-1.0527,-1.0327,-1.0209,-1.0049,-0.9836,-0.9792,-1.0031,-1.0815,-1.136,-1.223,-1.3844,-1.509,-1.612,-1.6909,-1.7684,-1.8137,-1.8137,-1.8227,-1.8294,-1.8294,-1.8438,-1.8633,-1.8764,-1.8905,-1.8959,-1.8959,-1.8959,-1.9001,-1.9104,-1.911,-1.911,-1.911,-1.911,-1.911,-1.911,-1.937,-1.9588,-1.9769,-2.0138,-2.0398,-0.3895,-0.4623,-0.5409,-0.5409,-0.5409,-0.5409,-0.5409,-0.5409,-0.5409,-0.5409,-0.543,-0.5666,-0.6461,-0.7054,-0.7528,-0.7853,-0.7903,-0.7903,-0.7903,-0.7903,-0.7976,-0.8155,-0.818,-0.8283,-0.8513,-0.8565,-0.8587,-0.8587,-0.8587,-0.8587,-0.8587,-0.8587,-0.8625,-0.8743,-0.8746,-0.8772,-0.8859,-0.8943,-0.9025,-0.91,-0.9179,-0.9269,-0.9304,-0.9304,-0.9304,-0.9304,-0.9304,-0.9304,-0.9304,-0.9304,-0.9377,-0.9552,-1.0015,-1.0505,-1.0957,-1.0918,-1.1046,-1.1223,-1.0985,-1.0884,-1.0826,-1.0721,-1.0688,-1.0688,-1.0688,-1.0688,-1.0688,-1.0688,-1.0688,-1.0677,-1.066,-1.0571,-1.0456,-1.0346,-1.0161,-0.9978,-0.9822,-1.0122,-1.0668,-1.1541,-1.238,-1.3534,-1.5398,-1.6208,-1.6926,-1.7871,-1.8239,-1.842,-1.842,-1.8487,-1.8541,-1.8541,-1.8735,-1.8911,-1.9092,-1.911,-1.911,-1.911,-1.911,-1.911,-1.911,-1.911,-1.911,-1.911,-1.9189,-1.9231,-1.9231,-1.9582,-1.9854,-2.0014,-2.0313,-2.0531,-0.4508,-0.4931,-0.5409,-0.5409,-0.5409,-0.5409,-0.5409,-0.5409,-0.5409,-0.5409,-0.5449,-0.5738,-0.6475,-0.6729,-0.7047,-0.7792,-0.7903,-0.7903,-0.7903,-0.7903,-0.7946,-0.8072,-0.816,-0.825,-0.8375,-0.8522,-0.8587,-0.8587,-0.8587,-0.8587,-0.8587,-0.8587,-0.8587,-0.8587,-0.8587,-0.8677,-0.88,-0.8803,-0.8891,-0.9095,-0.9095,-0.9157,-0.9304,-0.9304,-0.9304,-0.9304,-0.9304,-0.9304,-0.9304,-0.9304,-0.9554,-0.9973,-1.056,-1.0789,-1.0841,-1.1112,-1.107,-1.0914,-1.0914,-1.0813,-1.0688,-1.0688,-1.0688,-1.0688,-1.0688,-1.0688,-1.0688,-1.0688,-1.0684,-1.0683,-1.0531,-1.049,-1.0453,-1.0346,-1.0161,-0.9974,-0.9852,-1.0815,-1.1722,-1.1722,-1.3844,-1.568,-1.5972,-1.7084,-1.801,-1.8257,-1.8523,-1.8686,-1.8686,-1.8947,-1.911,-1.911,-1.911,-1.911,-1.911,-1.911,-1.911,-1.911,-1.911,-1.911,-1.911,-1.911,-1.911,-1.911,-1.9364,-1.9497,-1.9503,-2.0047,-2.0313,-2.0319,-2.0585,-2.07,-0.4508,-0.4931,-0.5409,-0.5409,-0.5409,-0.5409,-0.5409,-0.5409,-0.5409,-0.5409,-0.5871,-0.634,-0.6547,-0.7145,-0.7649,-0.7864,-0.7903,-0.7903,-0.7903,-0.7903,-0.7946,-0.8072,-0.816,-0.825,-0.8375,-0.8522,-0.8587,-0.8587,-0.8587,-0.8587,-0.8587,-0.8587,-0.8587,-0.8587,-0.8817,-0.887,-0.8675,-0.923,-0.9282,-0.888,-0.9205,-0.9356,-0.9304,-0.9304,-0.9304,-0.9304,-0.9304,-0.9446,-0.9735,-1.0023,-1.0293,-1.0563,-1.0735,-1.0904,-1.1074,-1.0998,-1.0951,-1.0897,-1.0792,-1.0725,-1.0688,-1.0688,-1.0688,-1.0688,-1.0688,-1.0688,-1.0688,-1.0688,-1.0643,-1.0551,-1.0504,-1.0337,-1.014,-1.0096,-1.0647,-1.1179,-1.116,-1.2169,-1.3366,-1.4257,-1.522,-1.62,-1.7156,-1.7971,-1.8506,-1.8559,-1.8826,-1.8989,-1.8989,-1.9056,-1.911,-1.911,-1.911,-1.911,-1.911,-1.911,-1.911,-1.911,-1.911,-1.911,-1.911,-1.911,-1.9195,-1.9376,-1.9461,-1.9594,-1.9799,-2.0144,-2.0313,-2.0319,-2.0585,-2.07,-0.4845,-0.5128,-0.5409,-0.5409,-0.5409,-0.5409,-0.5409,-0.5409,-0.5437,-0.5547,-0.6009,-0.6494,-0.6754,-0.7292,-0.775,-0.7869,-0.7903,-0.7903,-0.7903,-0.7903,-0.7927,-0.8003,-0.8089,-0.8212,-0.8302,-0.8451,-0.8541,-0.8584,-0.8587,-0.8587,-0.8587,-0.8587,-0.8587,-0.8587,-0.8917,-0.9017,-0.8787,-0.9433,-0.9565,-0.9211,-0.9357,-0.9396,-0.9379,-0.9286,-0.9333,-0.9552,-0.9612,-0.9807,-1.0051,-1.0389,-1.0604,-1.0735,-1.0819,-1.0951,-1.106,-1.0877,-1.0823,-1.0813,-1.0718,-1.0688,-1.0688,-1.0688,-1.0688,-1.0688,-1.0688,-1.0688,-1.0688,-1.0688,-1.0609,-1.0606,-1.1056,-1.0976,-1.0783,-1.0783,-1.1271,-1.1842,-1.238,-1.3515,-1.4679,-1.5451,-1.6242,-1.7022,-1.7895,-1.8427,-1.8753,-1.8825,-1.9007,-1.911,-1.911,-1.911,-1.911,-1.911,-1.911,-1.911,-1.911,-1.911,-1.911,-1.911,-1.9207,-1.9261,-1.9261,-1.9261,-1.9334,-1.9497,-1.9709,-1.9902,-2.0077,-2.0337,-2.047,-2.047,-2.0628,-2.07,-0.5409,-0.5409,-0.5409,-0.5409,-0.5409,-0.5437,-0.5437,-0.5465,-0.5547,-0.5766,-0.6009,-0.6379,-0.6985,-0.7292,-0.7538,-0.7841,-0.7903,-0.7903,-0.7903,-0.7903,-0.7903,-0.7903,-0.8009,-0.8132,-0.8191,-0.8313,-0.8465,-0.8579,-0.8587,-0.8587,-0.8587,-0.8587,-0.862,-0.8653,-0.8984,-0.915,-0.915,-0.9591,-0.9786,-0.9798,-0.9496,-0.9431,-0.9527,-0.9271,-0.942,-0.991,-1.0152,-1.0242,-1.0268,-1.0525,-1.0637,-1.0645,-1.0829,-1.0907,-1.0877,-1.0738,-1.0688,-1.0688,-1.0688,-1.0688,-1.0688,-1.0688,-1.0688,-1.0688,-1.0688,-1.0688,-1.0684,-1.0704,-1.0592,-1.0726,-1.1893,-1.209,-1.2018,-1.226,-1.2196,-1.238,-1.3605,-1.4857,-1.5782,-1.5782,-1.6928,-1.8022,-1.8251,-1.8529,-1.8832,-1.9074,-1.911,-1.911,-1.911,-1.911,-1.911,-1.911,-1.911,-1.911,-1.911,-1.911,-1.9116,-1.914,-1.9494,-1.964,-1.9533,-1.9539,-1.9545,-1.9576,-2.0059,-2.0325,-2.035,-2.0585,-2.07,-2.07,-2.07,-2.07,-0.5409,-0.5409,-0.5409,-0.5409,-0.5547,-0.5712,-0.5712,-0.591,-0.6051,-0.5849,-0.6377,-0.693,-0.7076,-0.7469,-0.7811,-0.7903,-0.7903,-0.7903,-0.7903,-0.7903,-0.7903,-0.7903,-0.8009,-0.8132,-0.8191,-0.8313,-0.8465,-0.8579,-0.8587,-0.8587,-0.8587,-0.8587,-0.872,-0.8984,-0.9356,-0.9558,-0.9558,-1.019,-1.0239,-0.9737,-0.9901,-0.9906,-0.9729,-0.9521,-0.9631,-1.0001,-1.0357,-1.0518,-1.055,-1.0933,-1.0994,-1.0856,-1.089,-1.084,-1.0732,-1.0698,-1.0688,-1.0688,-1.0688,-1.0688,-1.0688,-1.0688,-1.0688,-1.0688,-1.0688,-1.0688,-1.0697,-1.0575,-1.0436,-1.0605,-1.1744,-1.1908,-1.2289,-1.4326,-1.4799,-1.4827,-1.5124,-1.6196,-1.7097,-1.7097,-1.7691,-1.8221,-1.8281,-1.8711,-1.9044,-1.9098,-1.911,-1.911,-1.911,-1.911,-1.911,-1.911,-1.911,-1.911,-1.911,-1.911,-1.9195,-1.94,-2.0495,-2.0759,-1.9851,-1.9796,-1.9893,-2.0132,-2.0253,-2.041,-2.0616,-2.0676,-2.07,-2.07,-2.07,-2.07,-0.5409,-0.5409,-0.5409,-0.5409,-0.5603,-0.5794,-0.5794,-0.6158,-0.6437,-0.6267,-0.6691,-0.7131,-0.728,-0.7619,-0.7903,-0.7903,-0.7903,-0.7903,-0.7903,-0.7903,-0.7903,-0.7903,-0.7957,-0.8044,-0.8136,-0.8258,-0.8345,-0.8497,-0.8557,-0.8653,-0.8817,-0.8851,-0.902,-0.9389,-0.9758,-0.9927,-0.9927,-1.0455,-1.0522,-1.019,-1.019,-1.0128,-1.0,-1.0035,-1.0127,-1.0294,-1.061,-1.0752,-1.0745,-1.0914,-1.0907,-1.0806,-1.0806,-1.0759,-1.0688,-1.0688,-1.0688,-1.0688,-1.0688,-1.0688,-1.0688,-1.0688,-1.0688,-1.0688,-1.0688,-1.067,-1.0595,-1.0514,-1.081,-1.1389,-1.2614,-1.3236,-1.4048,-1.6048,-1.6048,-1.5782,-1.6378,-1.7032,-1.7514,-1.7514,-1.7919,-1.8294,-1.8294,-1.8728,-1.911,-1.911,-1.911,-1.911,-1.911,-1.911,-1.911,-1.911,-1.9673,-1.9851,-1.935,-2.0496,-2.1095,-2.0705,-2.2178,-2.2754,-2.2158,-2.2278,-2.2029,-2.1334,-2.2139,-2.2624,-2.2777,-2.205,-2.2057,-2.2736,-2.2022,-2.2085,-0.5409,-0.5409,-0.5409,-0.5465,-0.5684,-0.5907,-0.5933,-0.6379,-0.6796,-0.6796,-0.6976,-0.7251,-0.746,-0.7712,-0.7903,-0.7903,-0.7903,-0.7903,-0.7903,-0.7903,-0.7903,-0.7903,-0.7903,-0.7949,-0.8074,-0.8144,-0.8231,-0.8375,-0.8505,-0.8731,-0.9084,-0.9117,-0.9319,-0.9761,-1.006,-1.0223,-1.0289,-1.0319,-1.0349,-1.0319,-0.9785,-0.9552,-0.9558,-1.0051,-1.0397,-1.0634,-1.0792,-1.0877,-1.0867,-1.0738,-1.0688,-1.0688,-1.0688,-1.0688,-1.0688,-1.0688,-1.0688,-1.0688,-1.0688,-1.0688,-1.0688,-1.0688,-1.0688,-1.0714,-1.0654,-1.0592,-1.0545,-1.0716,-1.1362,-1.2338,-1.3824,-1.4901,-1.593,-1.7214,-1.6703,-1.6231,-1.7273,-1.7514,-1.7514,-1.7514,-1.7919,-1.8324,-1.8414,-1.882,-1.911,-1.911,-1.9296,-1.936,-1.9142,-1.9514,-1.9717,-1.9549,-2.0718,-2.1206,-2.0376,-2.239,-2.3329,-2.2498,-2.4028,-2.4896,-2.4683,-2.5357,-2.4936,-2.3271,-2.4391,-2.5008,-2.5008,-2.3774,-2.3808,-2.4974,-2.3747,-2.3842,-0.5409,-0.5409,-0.5465,-0.5684,-0.5993,-0.63,-0.652,-0.6879,-0.7127,-0.7127,-0.729,-0.746,-0.7489,-0.7712,-0.7903,-0.7903,-0.7903,-0.7903,-0.7903,-0.7903,-0.7903,-0.7903,-0.7903,-0.7949,-0.8074,-0.8102,-0.8205,-0.8402,-0.8432,-0.8615,-0.9078,-0.9117,-0.9419,-1.0127,-1.019,-1.0356,-1.0621,-0.948,-0.8875,-0.8873,-0.7536,-0.69,-0.6969,-0.8269,-0.9531,-1.0678,-1.0725,-1.0718,-1.0715,-1.0694,-1.0688,-1.0688,-1.0688,-1.0688,-1.0688,-1.0688,-1.0688,-1.0688,-1.0688,-1.0688,-1.0688,-1.0688,-1.0688,-1.0697,-1.0561,-1.0507,-1.0694,-1.1545,-1.1894,-1.2523,-1.48,-1.5502,-1.593,-1.7214,-1.7361,-1.7303,-1.7449,-1.7514,-1.7514,-1.7514,-1.7919,-1.8438,-1.8923,-1.9062,-1.911,-1.911,-2.0075,-2.0417,-1.9264,-2.1139,-2.2244,-2.1372,-2.2482,-2.3338,-2.3551,-2.3904,-2.4166,-2.425,-2.5681,-2.6048,-2.4995,-2.7361,-2.804,-2.6591,-2.5525,-2.5008,-2.5008,-2.4805,-2.4805,-2.5008,-2.4805,-2.4805,-0.5573,-0.5629,-0.5687,-0.5993,-0.63,-0.655,-0.6659,-0.6963,-0.721,-0.721,-0.735,-0.7489,-0.7489,-0.7712,-0.7903,-0.7903,-0.7903,-0.7903,-0.7903,-0.7903,-0.7903,-0.7903,-0.7903,-0.7922,-0.7976,-0.8044,-0.8192,-0.8426,-0.8531,-0.8883,-0.9566,-0.9605,-0.9872,-1.0452,-1.0489,-1.0187,-0.9546,-0.8909,-0.8171,-0.7367,-0.67,-0.64,-0.6433,-0.7067,-0.7702,-0.8374,-1.0014,-1.025,-0.9579,-1.0382,-1.0688,-1.0688,-1.0688,-1.0688,-1.0688,-1.0688,-1.0688,-1.0688,-1.0688,-1.0688,-1.0688,-1.0688,-1.0663,-1.0578,-1.0514,-1.0881,-1.143,-1.1871,-1.2969,-1.4255,-1.5329,-1.6137,-1.6826,-1.7367,-1.7514,-1.7514,-1.7514,-1.7514,-1.7556,-1.7702,-1.8052,-1.8655,-1.9807,-2.0131,-2.0487,-2.1233,-2.1825,-2.2013,-2.1423,-2.2545,-2.3216,-2.278,-2.4136,-2.4889,-2.4465,-2.588,-2.6557,-2.6098,-2.74,-2.7974,-2.7419,-2.8633,-2.9004,-2.8403,-2.7733,-2.7427,-2.7427,-2.662,-2.6653,-2.7393,-2.6586,-2.6653,-0.5852,-0.5935,-0.5991,-0.6328,-0.655,-0.6715,-0.6796,-0.7039,-0.7229,-0.7229,-0.7396,-0.7565,-0.7565,-0.7733,-0.7903,-0.7903,-0.7903,-0.7903,-0.7903,-0.7903,-0.7903,-0.7903,-0.7903,-0.7903,-0.7903,-0.808,-0.8268,-0.8483,-0.8669,-0.9101,-0.988,-0.9987,-1.0189,-1.0627,-1.0667,-1.0014,-0.8607,-0.7872,-0.6769,-0.5332,-0.5332,-0.5332,-0.5332,-0.57,-0.5867,-0.6034,-0.8909,-0.9779,-0.9211,-1.0283,-1.0688,-1.0688,-1.0688,-1.0688,-1.0688,-1.0688,-1.0688,-1.0688,-1.0688,-1.0688,-1.0681,-1.0673,-1.0585,-1.0541,-1.0813,-1.141,-1.2123,-1.2747,-1.42,-1.5663,-1.5989,-1.6797,-1.7514,-1.7514,-1.7514,-1.7514,-1.7514,-1.7514,-1.7675,-1.8265,-1.8518,-1.9193,-2.0883,-2.1307,-2.1829,-2.2937,-2.3454,-2.36,-2.3263,-2.4143,-2.467,-2.4442,-2.5864,-2.6576,-2.5862,-2.7736,-2.8602,-2.7783,-2.8708,-2.9307,-2.9307,-2.9307,-2.9307,-2.9307,-2.9307,-2.9307,-2.9307,-2.8238,-2.8271,-2.9275,-2.8238,-2.8304,-0.6188,-0.6274,-0.6328,-0.6604,-0.6687,-0.6796,-0.7099,-0.7244,-0.7297,-0.7297,-0.7492,-0.7693,-0.7693,-0.779,-0.7903,-0.7903,-0.7903,-0.7903,-0.7903,-0.7903,-0.7903,-0.7903,-0.7903,-0.7903,-0.7903,-0.8189,-0.8427,-0.8508,-0.8809,-0.9186,-0.9694,-0.99,-1.0172,-1.0504,-1.0643,-1.0014,-0.8607,-0.5904,-0.3831,-0.2423,-0.2423,-0.2423,-0.2457,-0.3798,-0.44,-0.4568,-0.7472,-0.941,-1.0585,-1.0688,-1.0688,-1.0688,-1.0688,-1.0688,-1.0688,-1.0688,-1.0688,-1.0688,-1.0688,-1.0688,-1.0697,-1.0551,-1.05,-1.0694,-1.1643,-1.1962,-1.2493,-1.478,-1.5491,-1.5871,-1.7097,-1.7449,-1.7514,-1.7514,-1.7514,-1.7514,-1.7514,-1.7514,-1.791,-1.9322,-1.9618,-2.0222,-2.2105,-2.2403,-2.2581,-2.3025,-2.4454,-2.5007,-2.3752,-2.6127,-2.7614,-2.6728,-2.7838,-2.8759,-2.901,-2.9175,-2.9258,-2.9176,-2.9242,-2.9307,-2.9307,-2.9307,-2.9307,-2.9307,-2.9307,-2.9307,-2.9307,-2.9242,-2.9242,-2.9307,-2.9209,-2.9242,-0.6581,-0.6686,-0.6757,-0.7114,-0.7216,-0.7247,-0.7359,-0.7483,-0.757,-0.757,-0.7761,-0.7957,-0.7957,-0.7927,-0.7903,-0.7903,-0.7903,-0.7903,-0.7903,-0.7903,-0.7903,-0.7903,-0.8089,-0.8214,-0.8214,-0.8519,-0.8812,-0.9008,-0.9137,-0.9385,-0.9867,-0.9958,-1.0094,-1.0351,-1.0497,-0.9488,-0.72,-0.4366,-0.2692,-0.2188,-0.2188,-0.2658,-0.3564,-0.4066,-0.5302,-0.7105,-0.8141,-0.8875,-0.941,-1.0319,-1.0688,-1.0688,-1.0688,-1.0688,-1.0688,-1.0688,-1.0688,-1.0688,-1.0688,-1.0656,-1.0565,-1.051,-1.0934,-1.1525,-1.1894,-1.3082,-1.4475,-1.5359,-1.6201,-1.6915,-1.7391,-1.7514,-1.7514,-1.7514,-1.7514,-1.7713,-1.849,-1.8664,-1.8807,-1.9342,-2.0213,-2.1414,-2.3221,-2.3684,-2.4289,-2.5774,-2.6504,-2.6802,-2.657,-2.7743,-2.8454,-2.813,-2.8714,-2.917,-2.9299,-2.9307,-2.9307,-2.9307,-2.9307,-2.9307,-2.9307,-2.9307,-2.9307,-2.9307,-2.9307,-2.9307,-2.9307,-2.9307,-2.9307,-2.9307,-2.9307,-2.9307,-0.7007,-0.7143,-0.7219,-0.7501,-0.7608,-0.7638,-0.7638,-0.7731,-0.782,-0.782,-0.8009,-0.8145,-0.8145,-0.8049,-0.7981,-0.7968,-0.7963,-0.7949,-0.7908,-0.7994,-0.8058,-0.8058,-0.8366,-0.8583,-0.8583,-0.8854,-0.9095,-0.9275,-0.9396,-0.9591,-0.9906,-0.9991,-0.9898,-0.9631,-0.9267,-0.795,-0.5684,-0.3329,-0.2172,-0.2173,-0.2652,-0.3396,-0.4301,-0.4801,-0.6337,-0.8607,-0.8607,-0.8875,-0.9377,-1.0316,-1.0688,-1.0688,-1.0688,-1.0688,-1.0688,-1.0688,-1.0688,-1.0681,-1.0663,-1.0575,-1.057,-1.0881,-1.1454,-1.2149,-1.2969,-1.434,-1.5693,-1.6107,-1.6856,-1.7514,-1.7514,-1.7514,-1.7514,-1.7514,-1.7801,-1.8315,-1.9123,-1.9296,-1.955,-2.0379,-2.1328,-2.2572,-2.4383,-2.4962,-2.5715,-2.7361,-2.7826,-2.8092,-2.8357,-2.8725,-2.8956,-2.8956,-2.917,-2.9307,-2.9307,-2.9307,-2.9307,-2.9307,-2.9307,-2.9307,-2.9307,-2.9406,-2.9471,-2.9471,-2.9611,-2.9676,-2.9676,-2.9414,-2.9307,-2.9307,-2.9406,-2.9471,0.0,0.0,0.0,-0.7717,-0.7801,-0.7913,-0.7913,-0.8006,-0.8096,-0.8096,-0.816,-0.8212,-0.8212,-0.8212,-0.8174,-0.8115,-0.8088,-0.8042,-0.7919,-0.8183,-0.84,-0.84,-0.8705,-0.8915,-0.8915,-0.9156,-0.9305,-0.9305,-0.9609,-0.9792,-0.9792,-0.993,-0.9481,-0.8342,-0.6935,-0.5559,-0.4215,-0.2811,-0.2108,-0.2173,-0.3602,-0.4329,-0.4462,-0.5826,-0.726,-0.8662,-0.8662,-0.9434,-1.0674,-1.0684,-1.0688,-1.0688,-1.0688,-1.0688,-1.0688,-1.0714,-1.0681,-1.0657,-1.0538,-1.0483,-1.0655,-1.1658,-1.2008,-1.2489,-1.4889,-1.5634,-1.59,-1.7156,-1.7514,-1.7514,-1.7514,-1.7514,-1.7514,-1.7537,-1.846,-1.9325,-1.9377,-1.9412,-2.0127,-2.2523,-2.3046,-2.3675,-2.5575,-2.6242,-2.6747,-2.7509,-2.8271,-2.88,-2.8794,-2.9102,-2.9307,-2.9307,-2.9307,-2.9307,-2.9307,-2.9307,-2.9307,-2.9307,-2.9307,-2.9307,-2.9307,-2.9626,-2.9813,-2.9813,-3.0198,-3.0411,-3.0411,-2.9676,-2.9349,-2.934,-2.9659,-2.9813,-0.7858,0.0,0.0,0.0,0.0,0.0,-0.8101,-0.8228,-0.8318,-0.8318,-0.841,-0.8489,-0.8489,-0.8489,-0.8451,-0.8337,-0.82,-0.8042,-0.7919,-0.8183,-0.84,-0.84,-0.8854,-0.9186,-0.9186,-0.9488,-0.967,-0.967,-0.9761,-0.9792,-0.9792,-0.9832,-0.9331,-0.8181,-0.6733,-0.5405,-0.4215,-0.2814,-0.2562,-0.3465,-0.3901,-0.511,-0.7055,-0.7443,-0.8447,-0.9816,-0.9816,-1.0045,-1.0419,-1.0633,-1.0688,-1.0688,-1.0688,-1.0688,-1.0707,-1.0595,-1.0555,-1.0534,-1.0388,-1.0266,-1.0343,-1.158,-1.256,-1.3525,-1.5116,-1.6225,-1.7062,-1.7397,-1.7514,-1.7514,-1.7514,-1.7514,-1.7713,-1.8606,-1.9065,-1.9781,-2.158,-2.1977,-2.2176,-2.2862,-2.3933,-2.4991,-2.577,-2.6242,-2.6842,-2.7878,-2.822,-2.8545,-2.9093,-2.9248,-2.9307,-2.9307,-2.9307,-2.9307,-2.9307,-2.9307,-2.9307,-2.9307,-2.9528,-2.965,-2.965,-3.0026,-3.023,-3.023,-3.0337,-3.0411,-3.0411,-3.0207,-3.0109,-3.0109,-3.0198,-3.023,-0.8033,-0.8124,-0.8157,-0.8248,0.0,0.0,-0.838,-0.8437,-0.8489,-0.8489,-0.8541,-0.8587,-0.8587,-0.8587,-0.8615,-0.8598,-0.8524,-0.8365,-0.8186,-0.8429,-0.8644,-0.8763,-0.9217,-0.9518,-0.9518,-0.97,-0.9792,-0.9792,-0.9792,-0.9792,-0.9792,-0.9792,-0.8998,-0.7248,-0.6348,-0.5317,-0.4074,-0.3276,-0.354,-0.4811,-0.5417,-0.6554,-0.8124,-0.8733,-0.9475,-1.0312,-1.0312,-1.0312,-1.0293,-1.0466,-1.0538,-1.0538,-1.0538,-1.0538,-1.0527,-1.0436,-1.0437,-1.0382,-1.0236,-1.0465,-1.1051,-1.2289,-1.3518,-1.4738,-1.6018,-1.6915,-1.7514,-1.7514,-1.7514,-1.7514,-1.7514,-1.7883,-1.8431,-1.9123,-2.0091,-2.1238,-2.2692,-2.3525,-2.4006,-2.4006,-2.4754,-2.5569,-2.605,-2.6482,-2.7094,-2.8049,-2.8331,-2.8648,-2.923,-2.9307,-2.934,-2.9495,-2.9495,-2.9495,-2.9495,-2.9495,-2.9495,-2.9495,-2.9683,-2.9878,-3.0026,-3.0426,-3.0629,-3.0629,-3.075,-3.0815,-3.0815,-3.0532,-3.0467,-3.0597,-3.0467,-3.0467,-0.8072,0.0,0.0,-0.8337,-0.8484,0.0,-0.8568,-0.8579,-0.8587,-0.8587,-0.8587,-0.8587,-0.8587,-0.8587,-0.8654,-0.8844,-0.8878,-0.8813,-0.8586,-0.8795,-0.9053,-0.9278,-0.9609,-0.9792,-0.9792,-0.9792,-0.9792,-0.9792,-0.9792,-0.9792,-0.9792,-0.9792,-0.8684,-0.6202,-0.611,-0.5468,-0.412,-0.4177,-0.4862,-0.6141,-0.7462,-0.8147,-0.8341,-0.9653,-1.0229,-1.0229,-1.0229,-1.0229,-1.0229,-1.0229,-1.0281,-1.0312,-1.0312,-1.0312,-1.0312,-1.0259,-1.0256,-1.0264,-1.0201,-1.0974,-1.217,-1.3481,-1.4679,-1.5841,-1.712,-1.7514,-1.7514,-1.7514,-1.7514,-1.7514,-1.7514,-1.8402,-1.9319,-1.9463,-2.1295,-2.3046,-2.3227,-2.4379,-2.5423,-2.5509,-2.5526,-2.5732,-2.64,-2.6846,-2.7343,-2.8023,-2.8492,-2.8877,-2.9237,-2.9314,-2.9504,-2.9822,-2.9887,-2.9887,-2.9887,-2.9887,-2.9887,-2.9887,-2.9911,-3.0083,-3.0434,-3.0782,-3.0976,-3.0976,-3.1249,-3.141,-3.141,-3.0815,-3.0653,-3.0935,-3.0662,-3.0662,-0.8166,-0.8185,-0.821,-0.8231,-0.8329,0.0,-0.8451,-0.8522,-0.8587,-0.8587,-0.8587,-0.8587,-0.8587,-0.8587,-0.8612,-0.8657,-0.8804,-0.891,-0.899,-0.9246,-0.9409,-0.9321,-0.9609,-0.9792,-0.9792,-0.9792,-0.9792,-0.9792,-0.9792,-0.9792,-0.9792,-0.9792,-0.9083,-0.7551,-0.752,-0.6877,-0.5529,-0.5515,-0.6199,-0.7523,-0.7793,-0.8485,-0.9477,-0.9757,-0.991,-0.991,-0.991,-0.991,-0.991,-0.991,-1.0056,-1.0312,-1.0312,-1.0312,-1.0263,-1.0109,-1.0062,-1.0166,-1.1046,-1.1532,-1.2125,-1.4485,-1.5391,-1.5841,-1.712,-1.7514,-1.7514,-1.7514,-1.7514,-1.7514,-1.7514,-1.8402,-1.955,-2.0508,-2.1913,-2.3344,-2.4644,-2.5167,-2.5577,-2.6177,-2.6297,-2.6319,-2.6494,-2.6846,-2.7249,-2.7655,-2.8057,-2.857,-2.9206,-2.9542,-2.9855,-3.023,-3.0272,-3.0272,-3.0272,-3.0272,-3.0272,-3.0272,-3.0555,-3.0709,-3.0815,-3.1129,-3.1313,-3.1313,-3.1377,-3.141,-3.141,-3.1281,-3.1258,-3.1313,-3.1258,-3.1258,-0.8111,-0.8144,-0.816,-0.8188,-0.825,0.0,0.0,-0.8418,-0.8503,-0.8503,-0.8549,-0.8653,-0.882,-0.8851,-0.8987,-0.9322,-0.9468,-0.9618,-0.9787,-0.9673,-0.9593,-0.9568,-0.97,-0.9792,-0.9792,-0.9792,-0.9792,-0.9792,-0.9792,-0.9792,-0.9792,-0.9792,-0.9207,-0.795,-0.7889,-0.7581,-0.6907,-0.6907,-0.7551,-0.8839,-0.8839,-0.9177,-0.9792,-0.9792,-0.9792,-0.9792,-0.9792,-0.9792,-0.9792,-0.9792,-0.991,-1.0049,-1.0049,-1.0049,-1.0042,-0.9934,-1.0302,-1.0931,-1.1512,-1.2556,-1.3874,-1.5184,-1.6018,-1.6679,-1.7303,-1.7514,-1.7514,-1.7514,-1.7514,-1.7625,-1.8233,-1.929,-2.0551,-2.1946,-2.3265,-2.4466,-2.5451,-2.5941,-2.6307,-2.6688,-2.7031,-2.7162,-2.6842,-2.7086,-2.7358,-2.7574,-2.8085,-2.8671,-2.9221,-2.9766,-3.023,-3.0629,-3.0662,-3.0662,-3.0662,-3.0662,-3.0662,-3.0662,-3.0815,-3.0967,-3.1129,-3.1313,-3.141,-3.141,-3.141,-3.141,-3.141,-3.141,-3.141,-3.141,-3.141,-3.141,-0.8023,-0.805,-0.8074,-0.8141,-0.8153,-0.8169,0.0,0.0,0.0,-0.838,-0.8492,-0.8662,-0.9045,-0.9117,-0.9302,-0.9918,-1.0121,-1.0221,-1.0307,-0.9999,-0.9789,-0.9825,-0.9808,-0.9792,-0.9792,-0.9792,-0.9792,-0.9792,-0.9792,-0.9792,-0.9792,-0.9792,-0.9329,-0.8285,-0.8255,-0.8255,-0.8255,-0.8255,-0.8778,-0.9792,-0.9792,-0.9792,-0.9792,-0.9792,-0.9792,-0.9792,-0.9792,-0.9792,-0.9792,-0.9792,-0.9792,-0.9792,-0.9792,-0.9792,-0.9792,-0.9792,-1.0607,-1.1752,-1.1993,-1.3635,-1.5634,-1.59,-1.6644,-1.7514,-1.7514,-1.7514,-1.7537,-1.7772,-1.786,-1.811,-1.9319,-2.0615,-2.1893,-2.3205,-2.4519,-2.5612,-2.6026,-2.6587,-2.7028,-2.7157,-2.7697,-2.7908,-2.7366,-2.7448,-2.7596,-2.7664,-2.8322,-2.8951,-2.9339,-3.0012,-3.0629,-3.0967,-3.1,-3.1,-3.1,-3.1,-3.1,-3.1,-3.1,-3.1129,-3.1377,-3.141,-3.141,-3.141,-3.141,-3.141,-3.141,-3.141,-3.141,-3.141,-3.141,-3.141,-0.7919,-0.7922,-0.7924,-0.7941,-0.8025,-0.8107,-0.8107,0.0,-0.8256,-0.8364,0.0,-0.8566,-0.903,0.0,0.0,-0.9302,-0.9826,-1.0051,-0.9658,-1.0074,-1.0274,-1.0025,-0.9873,-0.9792,-0.9792,-0.9792,-0.9792,-0.9792,-0.9792,-0.9792,-0.9792,-0.9792,-0.9731,-0.9576,-0.9576,-0.9576,-0.9576,-0.9576,-0.9667,-0.9792,-0.9792,-0.9792,-0.9792,-0.9792,-0.9792,-0.9792,-0.9792,-0.9792,-0.9792,-0.9792,-0.9792,-0.9792,-0.9792,-0.9792,-0.9792,-0.9792,-1.0607,-1.1872,-1.3066,-1.4411,-1.5782,-1.6915,-1.7391,-1.7514,-1.7514,-1.7514,-1.7713,-1.8781,-1.9094,-1.9377,-2.0594,-2.2047,-2.3278,-2.347,-2.4688,-2.6035,-2.6745,-2.6946,-2.7166,-2.7767,-2.8182,-2.8337,-2.796,-2.793,-2.7938,-2.7961,-2.8619,-2.927,-2.9618,-3.0347,-3.0967,-3.1322,-3.1345,-3.1345,-3.1345,-3.1345,-3.1345,-3.1345,-3.1345,-3.1345,-3.141,-3.141,-3.141,-3.141,-3.141,-3.141,-3.141,-3.141,-3.141,-3.141,-3.141,-3.141,-0.7903,-0.8058,-0.815,-0.7964,-0.8097,-0.8231,-0.8041,0.0,-0.8144,-0.8227,0.0,0.0,0.0,0.0,0.0,0.0,-1.0251,-1.0425,-1.0207,-1.0373,-1.0382,-1.0052,-0.9961,-0.989,-0.9798,-0.9792,-0.9792,-0.9792,-0.9792,-0.9792,-0.9792,-0.9792,-0.9792,-0.9792,-0.9792,-0.9792,-0.9792,-0.9792,-0.9792,-0.9792,-0.9792,-0.9792,-0.9792,-0.9792,-0.9792,-0.9792,-0.9792,-0.9792,-0.9792,-0.9792,-0.9792,-0.9792,-0.9792,-0.9792,-0.9879,-1.0637,-1.1718,-1.3036,-1.4351,-1.5634,-1.6797,-1.7332,-1.7514,-1.7514,-1.7514,-1.8,-1.8664,-1.9152,-1.9962,-2.1017,-2.2423,-2.3465,-2.441,-2.5565,-2.6335,-2.6979,-2.7454,-2.773,-2.7961,-2.8241,-2.8567,-2.8746,-2.8588,-2.8418,-2.8208,-2.802,-2.8838,-2.9533,-2.968,-3.0565,-3.1249,-3.1377,-3.141,-3.141,-3.141,-3.141,-3.141,-3.141,-3.141,-3.141,-3.141,-3.141,-3.141,-3.141,-3.141,-3.141,-3.141,-3.141,-3.141,-3.141,-3.141,-3.141,-0.7933,-0.815,-0.8308,-0.7994,-0.8089,-0.8214,-0.7964,0.0,0.0,0.0,-0.8125,0.0,0.0,0.0,-0.9632,-1.0225,0.0,-1.0596,-1.0515,-1.0544,-1.0443,-1.0116,-1.0005,-0.9913,-0.9802,-0.9792,-0.9792,-0.9792,-0.9792,-0.9792,-0.9792,-0.9792,-0.9792,-0.9792,-0.9792,-0.9792,-0.9792,-0.9792,-0.9792,-0.9792,-0.9792,-0.9792,-0.9792,-0.9792,-0.9792,-0.9792,-0.9792,-0.9792,-0.9792,-0.9792,-1.0004,-1.0334,-1.0334,-1.0543,-1.0933,-1.148,-1.2766,-1.4351,-1.5273,-1.6437,-1.7514,-1.7514,-1.7514,-1.7573,-1.7889,-1.8606,-1.9484,-2.0362,-2.1445,-2.2719,-2.438,-2.5098,-2.5742,-2.7149,-2.7573,-2.7733,-2.8056,-2.8337,-2.8517,-2.8606,-2.8836,-2.9014,-2.9014,-2.8806,-2.8537,-2.8319,-2.9175,-2.9844,-2.9844,-3.0756,-3.141,-3.141,-3.141,-3.141,-3.141,-3.141,-3.141,-3.141,-3.141,-3.141,-3.141,-3.141,-3.141,-3.141,-3.141,-3.141,-3.141,-3.141,-3.141,-3.141,-3.141,-3.1474,-0.7994,-0.815,-0.8308,-0.7994,-0.7903,-0.7903,0.0,0.0,-0.7941,0.0,0.0,0.0,0.0,0.0,0.0,0.0,0.0,0.0,0.0,-1.041,-1.0605,-1.0307,-1.0008,-0.9795,-0.9792,-0.9792,-0.9792,-0.9792,-0.9792,-0.9792,-0.9792,-0.9792,-0.9792,-0.9792,-0.9792,-0.9792,-0.9792,-0.9792,-0.9792,-0.9792,-0.9792,-0.9792,-0.9792,-0.9792,-0.9792,-0.9792,-0.9792,-0.9792,-0.9792,-0.9792,-1.0516,-1.1631,-1.1631,-1.244,-1.3426,-1.2169,-1.3336,-1.554,-1.5599,-1.6437,-1.7514,-1.7514,-1.7514,-1.7713,-1.889,-1.9267,-1.9952,-2.2991,-2.3905,-2.4367,-2.6295,-2.7124,-2.7417,-2.7484,-2.7748,-2.8071,-2.8427,-2.8487,-2.8606,-2.8925,-2.8984,-2.9014,-2.9014,-2.8984,-2.8984,-2.8984,-2.9642,-3.0173,-3.0173,-3.0892,-3.141,-3.141,-3.141,-3.141,-3.141,-3.141,-3.141,-3.141,-3.141,-3.141,-3.141,-3.141,-3.141,-3.141,-3.141,-3.141,-3.141,-3.141,-3.141,-3.141,-3.141,-3.1598,-0.8607,-0.876,-0.8882,-0.8366,-0.8397,-0.8455,0.0,0.0,0.0,0.0,0.0,0.0,0.0,0.0,0.0,0.0,0.0,0.0,0.0,-1.0214,-0.9887,-0.8966,-0.9418,-0.9792,-0.9792,-0.9792,-0.9792,-0.9792,-0.9792,-0.9792,-0.9792,-0.9792,-0.9792,-0.9792,-0.9792,-0.9792,-0.9792,-0.9792,-0.9792,-0.9792,-0.9792,-0.9792,-0.9792,-0.9792,-0.9792,-0.9792,-0.9792,-0.9792,-0.9852,-1.0698,-1.1299,-1.1782,-1.2681,-1.3814,-1.4887,-1.4441,-1.4857,-1.5723,-1.6555,-1.715,-1.7514,-1.7514,-1.7514,-1.7772,-1.921,-2.0375,-2.1655,-2.373,-2.5283,-2.6522,-2.734,-2.7865,-2.822,-2.8448,-2.8578,-2.8687,-2.8806,-2.8836,-2.8865,-2.8984,-2.9014,-2.9014,-2.9014,-2.9014,-2.9014,-2.9014,-2.9672,-3.0204,-3.0204,-3.0892,-3.141,-3.141,-3.141,-3.141,-3.141,-3.141,-3.141,-3.141,-3.141,-3.141,-3.141,-3.141,-3.141,-3.141,-3.141,-3.141,-3.141,-3.141,-3.1557,-3.179,-3.179,-3.1873,-0.8915,-0.9095,-0.9186,-0.8705,-0.8732,0.0,-0.8211,0.0,-0.8208,0.0,0.0,0.0,0.0,0.0,0.0,0.0,0.0,0.0,0.0,-0.9733,-0.9013,-0.8196,-0.9109,-0.9636,-0.9177,-0.9545,-0.9792,-0.9792,-0.9792,-0.9792,-0.9792,-0.9792,-0.9792,-0.9792,-0.9792,-0.9792,-0.9792,-0.9792,-0.9792,-0.9792,-0.9792,-0.9792,-0.9792,-0.9792,-0.9792,-0.9819,-1.0274,-1.0486,-1.0577,-1.1868,-1.2676,-1.3186,-1.4053,-1.5213,-1.6378,-1.5811,-1.5959,-1.6561,-1.7397,-1.7749,-1.783,-1.783,-1.8117,-1.8758,-2.0339,-2.1864,-2.3362,-2.5032,-2.6516,-2.7698,-2.7991,-2.8387,-2.8725,-2.8955,-2.9014,-2.9014,-2.9014,-2.9014,-2.9014,-2.9014,-2.9014,-2.9014,-2.9014,-2.9014,-2.9014,-2.9014,-2.9672,-3.0204,-3.0204,-3.0892,-3.141,-3.141,-3.141,-3.141,-3.141,-3.141,-3.141,-3.141,-3.141,-3.141,-3.141,-3.141,-3.141,-3.141,-3.141,-3.141,-3.141,-3.141,-3.163,-3.201,-3.2148,-3.2294]},{"header":{"parameterUnit":"m.s-1","parameterCategory":1,"la1":30.6,"la2":29.2853,"lo1":-89.7004,"lo2":-87.6739,"dy":0.0162,"dx":0.0183,"nx":112,"ny":82,"refTime":"2024-03-17T06:00:00:Z","depth":0,"parameterNumber":3,"parameterNumberName":"V-component_of_WINDS"},"data":[0.0,0.0,0.0,0.0,0.0,0.0,0.0,0.0,0.0,0.0,0.0,0.0,0.0,0.0,0.0,0.0,0.0,0.0,0.0,0.0,0.0,0.0,0.0,0.0,0.0,0.0,0.0,0.0,0.0,0.0,0.0,0.0,0.0,0.0,0.0,0.0,0.0,0.0,0.0,0.0,0.0,0.0,0.0,0.0,0.0,0.0,0.0,0.0,0.0,0.0,0.0,0.0,0.0,0.0,0.0,0.0,0.0,0.0,0.0,0.0,0.0,0.0,0.0,0.0,0.0,0.0,0.0,0.0,0.0,0.0,0.0,0.0,0.0,0.0,0.0,0.0,0.0,0.0,0.0,0.0,0.0,0.0,0.0,0.0,0.0,0.0,0.0,0.0,0.0,0.0,4.1024,4.1073,4.1094,4.1092,4.1098,4.1092,4.1109,4.1109,0.0,0.0,0.0,0.0,0.0,0.0,0.0,0.0,0.0,0.0,0.0,0.0,0.0,0.0,0.0,0.0,0.0,0.0,0.0,0.0,0.0,0.0,0.0,0.0,0.0,0.0,0.0,0.0,0.0,0.0,0.0,0.0,0.0,0.0,0.0,0.0,0.0,0.0,0.0,0.0,0.0,0.0,0.0,0.0,0.0,0.0,0.0,0.0,0.0,0.0,0.0,0.0,0.0,0.0,0.0,0.0,0.0,0.0,0.0,0.0,0.0,0.0,0.0,0.0,0.0,0.0,0.0,0.0,0.0,0.0,0.0,0.0,0.0,0.0,0.0,0.0,0.0,0.0,0.0,0.0,0.0,0.0,0.0,0.0,0.0,0.0,0.0,0.0,0.0,0.0,0.0,0.0,0.0,0.0,0.0,0.0,0.0,0.0,0.0,0.0,0.0,0.0,0.0,0.0,4.1071,4.102,4.1071,4.1094,4.1093,4.1102,4.1109,4.1109,0.0,0.0,0.0,0.0,0.0,0.0,0.0,0.0,0.0,0.0,0.0,0.0,0.0,0.0,0.0,0.0,0.0,0.0,0.0,0.0,0.0,0.0,0.0,0.0,0.0,0.0,0.0,0.0,0.0,0.0,0.0,0.0,0.0,0.0,0.0,0.0,0.0,0.0,0.0,0.0,0.0,0.0,0.0,0.0,0.0,0.0,0.0,0.0,0.0,0.0,0.0,0.0,0.0,0.0,0.0,0.0,0.0,0.0,0.0,0.0,0.0,0.0,0.0,0.0,0.0,0.0,0.0,0.0,0.0,0.0,0.0,0.0,0.0,0.0,0.0,0.0,0.0,0.0,0.0,0.0,0.0,0.0,0.0,0.0,0.0,0.0,0.0,0.0,0.0,0.0,0.0,0.0,0.0,0.0,0.0,0.0,0.0,0.0,0.0,0.0,0.0,0.0,0.0,4.1072,4.1093,4.105,4.1073,4.1093,4.1107,4.1097,4.1109,4.1109,4.0738,0.0,0.0,0.0,0.0,0.0,0.0,0.0,0.0,0.0,0.0,0.0,0.0,0.0,0.0,0.0,0.0,0.0,0.0,0.0,0.0,0.0,0.0,0.0,0.0,0.0,0.0,0.0,0.0,0.0,0.0,0.0,0.0,0.0,0.0,0.0,0.0,0.0,0.0,0.0,0.0,0.0,0.0,0.0,0.0,0.0,0.0,0.0,0.0,0.0,0.0,0.0,0.0,0.0,0.0,0.0,0.0,0.0,0.0,0.0,0.0,0.0,0.0,0.0,0.0,0.0,0.0,0.0,0.0,0.0,0.0,0.0,0.0,0.0,0.0,0.0,0.0,0.0,0.0,0.0,0.0,0.0,0.0,0.0,0.0,0.0,0.0,0.0,0.0,0.0,0.0,0.0,0.0,0.0,0.0,0.0,0.0,0.0,0.0,0.0,0.0,0.0,0.0,4.1059,4.1073,4.1073,4.1073,4.1074,4.1101,4.1099,4.1097,4.1109,4.1109,0.0,0.0,0.0,0.0,0.0,0.0,0.0,0.0,0.0,0.0,0.0,0.0,0.0,0.0,0.0,0.0,0.0,0.0,0.0,0.0,0.0,0.0,0.0,0.0,0.0,0.0,0.0,0.0,0.0,0.0,0.0,0.0,0.0,0.0,0.0,0.0,0.0,0.0,0.0,0.0,0.0,0.0,0.0,0.0,0.0,0.0,0.0,0.0,0.0,0.0,0.0,0.0,0.0,0.0,0.0,0.0,0.0,0.0,0.0,0.0,0.0,0.0,0.0,0.0,0.0,0.0,0.0,0.0,0.0,0.0,0.0,0.0,0.0,0.0,0.0,0.0,0.0,0.0,0.0,0.0,0.0,0.0,0.0,0.0,0.0,0.0,0.0,0.0,0.0,0.0,0.0,0.0,0.0,0.0,0.0,0.0,0.0,0.0,0.0,0.0,0.0,0.0,4.1046,4.1015,4.1015,4.1015,4.1025,4.1094,4.1094,4.1091,4.1091,4.1109,0.0,0.0,0.0,0.0,0.0,0.0,0.0,0.0,0.0,0.0,0.0,0.0,0.0,0.0,0.0,0.0,0.0,0.0,0.0,0.0,0.0,0.0,0.0,0.0,0.0,0.0,0.0,0.0,0.0,0.0,0.0,0.0,0.0,0.0,0.0,0.0,0.0,0.0,0.0,0.0,0.0,0.0,0.0,0.0,0.0,0.0,0.0,0.0,0.0,0.0,0.0,0.0,0.0,0.0,0.0,0.0,0.0,0.0,0.0,0.0,0.0,0.0,0.0,0.0,0.0,0.0,0.0,0.0,0.0,0.0,0.0,0.0,0.0,0.0,0.0,0.0,0.0,0.0,0.0,0.0,0.0,0.0,0.0,0.0,0.0,0.0,0.0,0.0,0.0,0.0,0.0,0.0,0.0,0.0,0.0,0.0,0.0,0.0,0.0,0.0,0.0,0.0,4.0999,4.1008,4.1008,4.1008,4.1008,4.1043,4.1045,4.1052,4.1091,0.0,0.0,0.0,0.0,0.0,0.0,0.0,0.0,0.0,0.0,0.0,0.0,0.0,0.0,0.0,0.0,0.0,0.0,0.0,0.0,0.0,0.0,0.0,0.0,0.0,0.0,0.0,0.0,0.0,0.0,0.0,0.0,0.0,0.0,0.0,0.0,0.0,0.0,0.0,0.0,0.0,0.0,0.0,0.0,0.0,0.0,0.0,0.0,0.0,0.0,0.0,0.0,0.0,0.0,0.0,0.0,0.0,0.0,0.0,0.0,0.0,0.0,0.0,0.0,0.0,0.0,0.0,0.0,0.0,0.0,0.0,0.0,0.0,0.0,0.0,0.0,0.0,0.0,0.0,0.0,0.0,0.0,0.0,0.0,0.0,0.0,0.0,0.0,0.0,0.0,0.0,0.0,0.0,0.0,0.0,0.0,0.0,0.0,0.0,0.0,0.0,0.0,4.0937,4.0959,4.0977,4.0977,4.0977,4.0987,4.1007,4.0992,4.1033,4.1094,0.0,0.0,0.0,0.0,0.0,0.0,0.0,0.0,0.0,0.0,0.0,0.0,0.0,0.0,0.0,0.0,0.0,0.0,0.0,0.0,0.0,0.0,0.0,0.0,0.0,0.0,0.0,0.0,0.0,0.0,0.0,0.0,0.0,0.0,0.0,0.0,0.0,0.0,0.0,0.0,0.0,0.0,0.0,0.0,0.0,0.0,0.0,0.0,0.0,0.0,0.0,0.0,0.0,0.0,0.0,0.0,0.0,0.0,0.0,0.0,0.0,0.0,0.0,0.0,0.0,0.0,0.0,0.0,0.0,0.0,0.0,0.0,0.0,0.0,0.0,0.0,0.0,0.0,0.0,0.0,0.0,0.0,0.0,0.0,0.0,0.0,0.0,0.0,0.0,0.0,0.0,0.0,0.0,0.0,0.0,0.0,0.0,0.0,0.0,0.0,0.0,0.0,4.0981,4.0945,4.0907,4.0907,4.0907,4.0926,4.0984,4.101,4.1021,0.0,0.0,0.0,0.0,0.0,0.0,0.0,0.0,0.0,0.0,0.0,0.0,0.0,0.0,0.0,0.0,0.0,0.0,0.0,0.0,0.0,0.0,0.0,0.0,0.0,0.0,0.0,0.0,0.0,0.0,0.0,0.0,0.0,0.0,0.0,0.0,0.0,0.0,0.0,0.0,0.0,0.0,0.0,0.0,0.0,0.0,0.0,0.0,0.0,0.0,0.0,0.0,0.0,0.0,0.0,0.0,0.0,0.0,0.0,0.0,0.0,0.0,0.0,0.0,0.0,0.0,0.0,0.0,0.0,0.0,0.0,0.0,0.0,0.0,0.0,0.0,0.0,0.0,0.0,0.0,0.0,0.0,0.0,0.0,0.0,0.0,0.0,0.0,0.0,0.0,0.0,0.0,0.0,0.0,0.0,0.0,0.0,0.0,0.0,0.0,0.0,0.0,0.0,4.0926,4.0906,4.0907,4.0907,4.0907,4.0919,4.0926,4.0928,4.0956,4.1039,0.0,0.0,0.0,0.0,0.0,0.0,0.0,0.0,0.0,0.0,0.0,0.0,0.0,0.0,0.0,0.0,0.0,0.0,0.0,0.0,0.0,0.0,0.0,0.0,0.0,0.0,0.0,0.0,0.0,0.0,0.0,0.0,0.0,0.0,0.0,0.0,0.0,0.0,0.0,0.0,0.0,0.0,0.0,0.0,0.0,0.0,0.0,0.0,0.0,0.0,0.0,0.0,0.0,0.0,0.0,0.0,0.0,0.0,0.0,0.0,0.0,0.0,0.0,0.0,0.0,0.0,0.0,0.0,0.0,0.0,0.0,0.0,0.0,0.0,0.0,0.0,0.0,0.0,0.0,0.0,0.0,0.0,0.0,0.0,0.0,0.0,0.0,0.0,0.0,0.0,0.0,0.0,0.0,0.0,0.0,0.0,0.0,0.0,0.0,0.0,0.0,0.0,4.0907,4.0907,4.0907,4.0907,4.0907,4.0907,4.0907,4.0907,4.0928,4.1007,0.0,0.0,0.0,0.0,0.0,0.0,0.0,0.0,0.0,0.0,0.0,0.0,0.0,0.0,0.0,0.0,0.0,0.0,0.0,0.0,0.0,0.0,0.0,0.0,0.0,0.0,0.0,0.0,0.0,0.0,0.0,0.0,0.0,0.0,0.0,0.0,0.0,0.0,0.0,0.0,0.0,0.0,0.0,0.0,0.0,0.0,0.0,0.0,0.0,0.0,0.0,0.0,0.0,0.0,0.0,0.0,0.0,0.0,0.0,0.0,0.0,0.0,0.0,0.0,0.0,0.0,0.0,0.0,0.0,0.0,0.0,0.0,0.0,0.0,0.0,0.0,0.0,0.0,0.0,0.0,0.0,0.0,0.0,0.0,0.0,0.0,0.0,0.0,0.0,0.0,0.0,0.0,0.0,0.0,0.0,0.0,0.0,0.0,0.0,0.0,0.0,0.0,4.0907,4.0907,4.0907,4.0907,4.0907,4.0907,4.0907,4.0907,4.0924,4.0997,0.0,0.0,0.0,0.0,0.0,0.0,0.0,0.0,0.0,0.0,0.0,0.0,0.0,0.0,0.0,0.0,0.0,0.0,0.0,0.0,0.0,0.0,0.0,0.0,0.0,0.0,0.0,0.0,0.0,0.0,0.0,0.0,0.0,0.0,0.0,0.0,0.0,0.0,0.0,0.0,0.0,0.0,0.0,0.0,0.0,0.0,0.0,0.0,0.0,0.0,0.0,0.0,0.0,0.0,0.0,0.0,0.0,0.0,0.0,0.0,4.1034,4.0981,0.0,0.0,0.0,0.0,0.0,0.0,0.0,0.0,0.0,0.0,0.0,0.0,0.0,0.0,0.0,0.0,0.0,0.0,0.0,0.0,0.0,0.0,0.0,0.0,0.0,0.0,0.0,0.0,0.0,0.0,0.0,0.0,0.0,0.0,0.0,0.0,0.0,0.0,0.0,0.0,4.0907,4.0907,4.0907,4.0907,4.0907,4.0907,4.0907,4.0907,4.0917,4.0917,4.096,0.0,0.0,0.0,0.0,0.0,0.0,0.0,0.0,0.0,0.0,0.0,0.0,0.0,0.0,0.0,0.0,0.0,0.0,0.0,0.0,0.0,0.0,0.0,0.0,0.0,0.0,0.0,0.0,0.0,0.0,0.0,0.0,0.0,0.0,0.0,0.0,0.0,0.0,0.0,0.0,0.0,0.0,0.0,0.0,0.0,0.0,0.0,0.0,0.0,0.0,0.0,0.0,0.0,0.0,0.0,0.0,0.0,0.0,0.0,4.1056,4.1026,0.0,0.0,0.0,0.0,0.0,0.0,0.0,0.0,0.0,0.0,0.0,0.0,0.0,0.0,0.0,0.0,0.0,0.0,0.0,0.0,0.0,0.0,0.0,0.0,0.0,0.0,0.0,0.0,0.0,0.0,0.0,0.0,0.0,0.0,0.0,0.0,0.0,0.0,0.0,0.0,4.2092,4.2148,4.2148,4.2148,4.2148,4.2148,4.2148,4.1762,4.1512,4.1512,4.1168,0.0,0.0,0.0,0.0,0.0,0.0,0.0,0.0,0.0,0.0,0.0,0.0,0.0,0.0,0.0,0.0,0.0,0.0,0.0,0.0,0.0,0.0,0.0,0.0,0.0,0.0,0.0,0.0,0.0,0.0,0.0,0.0,0.0,0.0,0.0,0.0,0.0,0.0,0.0,0.0,0.0,0.0,0.0,0.0,0.0,0.0,0.0,0.0,0.0,0.0,0.0,0.0,0.0,4.1542,4.1542,4.1542,4.1542,4.1542,4.1534,4.1542,4.1367,4.1093,4.1093,0.0,0.0,0.0,0.0,0.0,0.0,0.0,0.0,0.0,0.0,0.0,0.0,0.0,0.0,0.0,0.0,0.0,0.0,0.0,0.0,0.0,0.0,0.0,0.0,4.1354,4.1354,4.1354,0.0,0.0,0.0,0.0,0.0,0.0,0.0,0.0,0.0,0.0,0.0,4.3411,4.3508,4.3508,4.3508,4.3508,4.3508,4.3508,4.283,4.2425,4.2425,4.1743,4.1311,0.0,0.0,0.0,0.0,0.0,0.0,0.0,0.0,0.0,0.0,0.0,0.0,0.0,0.0,0.0,0.0,0.0,0.0,0.0,0.0,0.0,0.0,0.0,0.0,0.0,0.0,0.0,0.0,0.0,0.0,0.0,0.0,4.1062,4.1064,0.0,0.0,0.0,0.0,0.0,0.0,0.0,0.0,0.0,0.0,0.0,0.0,0.0,4.2594,4.3342,4.3362,4.3362,4.3362,4.3362,4.3334,4.3278,4.3278,4.3263,4.3273,4.3278,0.0,4.1093,4.1093,0.0,0.0,0.0,0.0,0.0,0.0,0.0,0.0,0.0,0.0,0.0,0.0,0.0,0.0,0.0,0.0,0.0,0.0,0.0,0.0,0.0,0.0,4.3158,4.3158,4.3158,4.3158,0.0,4.2558,4.225,4.3003,4.3158,0.0,0.0,0.0,0.0,0.0,0.0,0.0,4.3488,4.3508,4.3508,4.3508,4.3508,4.3508,4.3508,4.3391,4.3333,4.3333,4.3216,4.2816,4.2075,4.2097,0.0,0.0,0.0,0.0,0.0,0.0,0.0,0.0,0.0,0.0,0.0,0.0,0.0,0.0,0.0,0.0,0.0,0.0,0.0,0.0,0.0,0.0,0.0,0.0,0.0,0.0,0.0,0.0,0.0,4.1072,4.1094,4.1091,4.1091,4.1091,0.0,0.0,0.0,0.0,0.0,0.0,0.0,0.0,0.0,4.3113,4.3133,4.33,4.3648,4.3648,4.3641,4.3645,4.3645,4.3638,4.3605,4.3605,4.3596,4.3601,4.3601,4.3169,4.2443,4.2484,4.2727,4.3078,0.0,0.0,0.0,0.0,4.3601,4.3598,4.3555,4.3547,4.3539,4.3514,0.0,0.0,0.0,0.0,0.0,0.0,0.0,0.0,0.0,0.0,4.3405,4.3476,4.343,4.3679,4.4685,4.4601,4.4173,0.0,4.3508,4.3508,4.3508,0.0,0.0,0.0,0.0,4.4399,4.4849,4.4904,4.4904,4.4904,4.4871,4.4841,4.4841,4.4431,4.4178,4.4178,4.3707,4.3271,4.2883,4.2939,4.2796,0.0,0.0,0.0,0.0,0.0,0.0,0.0,0.0,0.0,0.0,0.0,0.0,0.0,0.0,0.0,0.0,0.0,0.0,0.0,0.0,0.0,0.0,0.0,0.0,0.0,0.0,0.0,0.0,4.1108,4.1104,4.1091,4.1109,4.1187,0.0,0.0,0.0,0.0,0.0,0.0,4.2728,4.3353,4.378,4.4009,4.4224,4.4407,4.4574,4.4788,4.4893,4.4905,4.4905,4.4901,4.489,4.489,4.4904,4.4875,4.4875,4.4854,4.4748,4.3919,4.3704,4.3918,4.3907,4.4045,4.4249,4.4219,4.4215,4.4209,4.4156,4.4143,4.4139,4.4142,4.3993,4.3838,4.3838,0.0,0.0,0.0,0.0,4.4454,4.4428,4.4506,4.4615,4.4681,4.4634,4.4934,4.6298,4.659,4.623,0.0,4.479,4.4806,4.4779,0.0,0.0,0.0,4.5706,4.5964,4.6565,4.6639,4.6639,4.6639,4.6599,4.647,4.6257,4.5673,4.5246,4.5013,4.4394,4.3957,4.3743,4.3785,4.3697,4.3475,0.0,0.0,0.0,0.0,0.0,0.0,0.0,0.0,0.0,0.0,0.0,0.0,0.0,0.0,0.0,0.0,0.0,0.0,0.0,0.0,0.0,0.0,0.0,0.0,0.0,0.0,0.0,0.0,0.0,4.1109,4.1109,0.0,0.0,0.0,0.0,4.3509,4.3607,4.3626,4.3626,4.3685,4.4047,4.4821,4.5639,4.6443,4.7207,4.8023,4.8433,4.845,4.845,4.8448,4.8448,4.8448,4.8402,4.8355,4.8355,4.8355,4.8083,4.4843,4.3992,4.4731,4.4742,4.524,4.5977,4.5891,4.5871,4.5871,4.5888,4.5868,4.5866,4.5866,4.5358,4.4734,4.4734,4.4734,0.0,0.0,4.588,4.7079,4.6942,4.7535,4.8107,4.7981,4.7964,4.8008,4.8156,4.8175,4.8222,0.0,4.8347,4.8316,4.8262,0.0,4.8266,4.8293,4.8309,4.8328,4.8364,4.8364,4.8364,4.8364,4.8364,4.8034,4.7204,4.7107,4.6719,4.5889,4.5795,4.5424,4.4664,4.4648,4.4241,4.343,4.341,0.0,0.0,0.0,0.0,0.0,0.0,0.0,0.0,0.0,0.0,0.0,0.0,0.0,0.0,0.0,0.0,0.0,0.0,0.0,0.0,0.0,0.0,0.0,0.0,0.0,0.0,0.0,0.0,4.2651,4.2708,0.0,4.3131,4.3168,4.3305,4.3618,4.4163,4.4728,4.5274,4.5799,4.6476,4.732,4.7652,4.7946,4.8234,4.9052,4.9466,4.9474,5.0035,5.0317,5.0317,5.0317,5.0306,5.027,5.027,5.027,5.0173,4.8966,4.7985,4.7249,4.7248,4.7447,4.7716,4.7675,4.767,4.767,4.767,4.767,4.7659,4.7575,4.7359,4.7091,4.7013,4.6988,4.6988,4.6988,4.7357,4.773,4.7685,4.7769,4.7889,4.7885,4.7854,4.8001,4.8606,4.875,4.8947,4.9563,4.906,4.8531,4.8496,4.8496,4.8483,4.8431,4.8464,4.849,4.8447,4.8443,4.8443,4.8443,4.8446,4.8315,4.8006,4.7967,4.7831,4.7525,4.7507,4.7149,4.6339,4.6319,4.5905,4.5033,4.5013,4.4758,0.0,0.0,0.0,0.0,0.0,0.0,0.0,0.0,0.0,0.0,0.0,0.0,0.0,0.0,0.0,0.0,0.0,0.0,0.0,0.0,0.0,0.0,0.0,0.0,0.0,4.2803,4.2991,4.354,4.3596,4.3724,4.4012,4.4049,4.4263,4.4846,4.5411,4.6112,4.7009,4.7554,4.8228,4.9071,4.9381,4.9672,4.9955,5.0772,5.1184,5.1189,5.1768,5.2037,5.2037,5.2037,5.2037,5.2037,5.2037,5.2037,5.2037,5.2037,5.1358,5.0234,4.9379,4.8855,4.8599,4.8599,4.8599,4.8599,4.8599,4.8599,4.8585,4.8444,4.8407,4.8378,4.8191,4.8135,4.813,4.8056,4.8174,4.8327,4.8286,4.8367,4.8447,4.8436,4.8417,4.8552,4.92,4.9335,4.9518,5.0161,4.9713,4.9234,4.9215,4.9278,4.9322,4.9244,4.9278,4.9285,4.9241,4.9237,4.9237,4.9237,4.9234,4.9126,4.8856,4.8836,4.8701,4.8411,4.8394,4.8157,4.7638,4.76,4.7323,4.6745,4.6745,4.647,4.5958,0.0,0.0,0.0,0.0,0.0,0.0,0.0,0.0,0.0,0.0,0.0,0.0,0.0,0.0,0.0,0.0,0.0,0.0,0.0,0.0,0.0,0.0,0.0,4.364,4.364,4.3659,4.3677,4.3697,4.4046,4.4883,4.4998,4.568,4.7317,4.7453,4.7862,4.8737,4.8795,4.9186,4.998,5.0831,5.1641,5.2426,5.3303,5.373,5.373,5.3769,5.3769,5.3769,5.3769,5.3769,5.3769,5.3769,5.3769,5.3769,5.3769,5.3769,5.3497,5.0994,4.9496,4.8755,4.8755,4.8735,4.8716,4.8716,4.8694,4.8635,4.8512,4.8451,4.8407,4.8142,4.8063,4.802,4.781,4.8363,4.9007,4.8891,4.9484,5.0082,4.9995,4.9967,4.9982,5.005,5.0057,5.0095,5.023,5.0521,5.0723,5.0624,5.0815,5.0971,5.0906,5.0898,0.0,5.0898,5.0898,5.0898,5.0898,5.0898,5.0573,4.98,4.9742,4.9378,4.8527,4.8488,4.8469,4.843,4.843,4.843,4.8392,4.8392,4.8392,4.8392,0.0,0.0,0.0,0.0,0.0,0.0,0.0,0.0,0.0,0.0,0.0,0.0,0.0,0.0,0.0,0.0,0.0,0.0,0.0,0.0,0.0,4.5439,4.5208,4.463,4.4536,4.4759,4.5336,4.5972,4.6424,4.6623,4.7203,4.7767,4.8236,4.8859,4.9597,5.047,5.1072,5.1767,5.2627,5.2899,5.3124,5.3342,5.4213,5.464,5.466,5.5284,5.5595,5.5595,5.5595,5.5595,5.5595,5.5595,5.5595,5.5595,5.5595,5.5204,5.4504,5.3187,5.2507,5.2293,5.2293,5.1904,5.1355,5.1366,5.0806,5.0105,4.9972,4.9792,4.9606,4.9426,4.9372,4.9365,4.9309,4.9403,4.9626,5.0182,5.0437,5.067,5.1216,5.1351,5.1359,5.1367,5.1375,5.1383,5.1428,5.1659,5.1596,5.0749,5.0784,5.0914,5.0902,5.0898,0.0,5.0898,5.0898,5.0898,5.0898,5.0898,5.0801,5.0593,5.0573,5.0476,5.0225,5.0206,4.9954,4.9378,4.9339,4.9049,4.8411,4.8392,4.8392,0.0,0.0,0.0,0.0,0.0,0.0,0.0,0.0,0.0,0.0,0.0,0.0,0.0,0.0,0.0,0.0,0.0,0.0,0.0,0.0,0.0,0.0,4.6098,4.6015,4.592,4.5594,4.5665,4.6494,4.7053,4.7485,4.7806,4.8638,4.9301,4.9668,5.0467,5.1322,5.2193,5.2681,5.3342,5.4216,5.4235,5.443,5.4799,5.5281,5.5534,5.5553,5.6058,5.6295,5.6295,5.6295,5.6295,5.6295,5.6295,5.6295,5.6291,5.6278,5.5958,0.0,0.0,0.0,0.0,0.0,5.3337,5.2903,5.2903,5.2403,5.1738,5.1595,5.1375,5.1104,5.0896,5.0823,5.0816,5.0744,5.0681,5.0738,5.12,5.127,5.1311,5.1799,5.1904,5.1904,5.1904,5.1904,5.1904,5.1904,5.2115,0.0,5.1429,5.1493,5.1684,5.1796,5.1828,5.1859,5.1977,5.1985,5.1985,5.1985,5.1985,5.1985,5.1985,5.1985,0.0,0.0,0.0,5.1076,5.0244,5.0206,0.0,0.0,0.0,4.9451,4.9451,4.9496,0.0,0.0,4.8581,4.8252,0.0,0.0,0.0,0.0,0.0,0.0,0.0,0.0,0.0,0.0,0.0,0.0,0.0,0.0,0.0,0.0,4.6132,4.6427,4.7198,4.6715,4.6582,4.7354,4.7528,4.7936,4.8813,4.9671,5.0545,5.1416,5.2232,5.3028,5.3808,5.3944,0.0,0.0,0.0,5.5514,5.6295,5.6392,5.645,5.645,5.6547,5.6583,5.6583,5.6583,5.6583,5.6583,5.657,5.6501,5.6375,5.631,5.6206,5.6032,5.5397,5.4637,5.3913,5.3858,5.3755,5.3658,5.3654,0.0,0.0,5.2952,5.2746,5.2464,5.2175,5.2069,5.2038,5.1933,5.1904,5.1922,5.2024,5.2043,5.2081,5.2156,5.2185,5.2185,5.2185,5.2185,5.2185,5.2185,5.2367,5.2543,5.2543,5.2631,5.2783,5.3065,5.3101,5.32,5.3477,5.3502,5.3502,5.3502,0.0,0.0,5.3502,5.3502,5.3173,5.2399,5.2341,5.1989,5.1231,5.1192,5.1192,5.1192,5.1192,5.1192,5.1192,5.1192,5.1192,5.1153,4.9637,4.8917,0.0,0.0,0.0,0.0,0.0,0.0,0.0,0.0,0.0,0.0,0.0,0.0,0.0,0.0,0.0,4.6098,4.6635,4.7101,4.7276,4.7764,4.8153,4.8327,4.8971,4.9748,5.0619,5.1435,5.2274,5.3148,5.4019,5.4563,5.4737,5.5417,5.5867,5.6039,5.6058,5.6136,5.6295,5.6994,5.7344,5.7363,5.8001,0.0,5.8311,5.8311,5.8311,5.8305,5.8207,5.7697,5.6932,5.6753,5.6218,5.5502,5.5841,5.5691,5.5299,5.529,5.4757,5.401,5.3936,5.3317,5.2538,5.2452,5.2259,5.2026,5.1957,5.1933,0.0,5.1912,5.1904,5.2062,5.2765,5.2953,5.3103,5.3752,5.3921,5.3921,5.3921,5.3921,5.3921,5.3921,5.3952,5.3994,5.3994,5.3272,5.2783,5.3065,5.3101,5.32,5.3477,5.3502,5.3502,5.3502,5.3502,5.3502,5.3502,5.3502,5.3424,5.327,5.325,5.3173,5.2995,5.2995,5.2995,5.2995,5.2995,5.2995,5.2995,5.2995,5.2995,5.2975,5.1962,5.1474,0.0,0.0,0.0,0.0,0.0,0.0,0.0,0.0,0.0,0.0,0.0,4.6192,4.6152,0.0,4.6223,4.6645,4.7042,4.7606,4.8483,4.9357,4.9901,4.9901,5.0289,5.1047,5.2329,5.3203,5.3883,5.431,5.5165,5.565,5.565,5.6058,5.6508,5.6936,5.6955,5.7149,5.7554,5.7981,5.8198,5.8218,5.8603,5.8794,5.8794,5.8796,5.8808,5.8782,5.8696,5.8288,5.767,5.7411,5.6752,5.5937,5.6225,5.5999,5.5511,5.5459,5.5119,5.4649,5.4618,5.4152,5.3611,5.3556,5.3368,5.3151,5.3151,5.3151,5.3151,5.3151,5.3151,5.3245,5.3685,5.3798,5.391,5.4296,5.4409,5.4409,5.4409,5.4409,5.4409,5.4409,5.4409,5.4409,5.4409,5.4038,5.3835,5.4115,5.4156,5.4309,5.4701,5.4755,5.4755,5.4755,5.4755,5.4755,5.4755,5.4387,5.4155,5.4155,5.3734,5.3502,5.3502,5.3502,5.3502,5.3502,5.3502,5.3502,5.3502,5.3502,5.3502,5.3502,5.3502,5.327,0.0,0.0,0.0,0.0,0.0,0.0,0.0,4.6184,4.6185,4.6183,4.6162,4.6146,4.6089,4.6218,4.6552,4.7187,4.7587,4.8347,4.9923,5.0891,5.1549,5.1899,5.1785,5.2271,5.3808,5.4563,5.5045,5.5239,5.5864,5.633,5.6544,5.6524,5.6883,5.7776,5.7795,5.8106,5.8743,5.8958,5.905,5.905,5.9221,5.9295,5.9288,5.9299,5.93,5.9269,5.8978,5.865,5.8283,5.787,5.7257,5.6568,5.6568,5.6084,5.5344,5.5172,5.5081,5.5034,5.5034,5.4905,5.4727,5.4727,5.4584,5.4409,5.4409,5.4409,5.4409,5.4409,5.4409,5.4409,5.4409,5.4409,5.4409,5.4409,5.4441,5.4455,5.4407,5.4441,5.4455,5.4407,5.4409,5.4415,5.4464,5.4661,5.489,5.5154,5.5243,5.5441,5.5944,5.6008,5.6008,5.6008,5.6008,5.6008,5.6008,5.5412,5.5026,5.5026,5.4368,5.3981,5.3981,5.3981,5.3981,5.3981,5.3981,5.3981,5.3981,5.3981,5.3981,5.4,5.4716,5.4561,4.5826,4.6123,4.6205,4.6269,4.6246,4.6195,0.0,4.6153,4.6119,4.6106,4.6051,4.6017,4.601,4.6648,4.7206,4.7295,4.8599,4.9943,5.093,5.1746,5.2834,5.4385,5.3883,5.3808,5.4757,5.4844,5.5198,5.6091,5.6082,5.6458,5.7399,5.728,5.7586,5.8453,5.8492,5.8531,5.8628,5.9501,5.9943,5.9963,6.0736,6.1087,6.1015,6.1011,6.1012,6.0968,5.9887,5.9013,5.8335,5.765,5.7159,5.6859,5.6859,5.6333,5.5509,5.5011,5.4696,5.4489,5.4489,5.4464,5.4449,5.4449,5.4424,5.4409,5.4409,5.4409,5.4409,5.4409,5.4409,5.4409,5.4409,5.4409,5.4409,5.4409,5.4584,5.4689,5.4458,5.4592,5.4681,5.4449,5.4409,5.4472,5.4712,5.4776,5.489,5.5154,5.5395,5.566,5.5962,5.6008,5.6008,5.6008,5.6008,5.6008,5.6008,5.5911,5.5872,5.5872,5.5776,5.5718,5.5718,5.5718,5.5718,5.5718,5.5718,5.5718,5.5718,5.5718,5.5718,5.5718,5.5814,5.5427,4.6151,4.6228,4.6216,4.6226,4.6228,4.6181,4.6141,4.6123,4.6089,4.6059,4.6017,4.6155,4.6657,4.7043,4.7625,4.8658,4.9843,5.095,5.1785,5.3067,5.4174,5.4909,5.5012,5.5182,5.5551,5.5525,5.5644,5.5972,5.6473,5.6918,5.7284,5.7663,5.8344,5.9323,5.9366,5.9579,6.0048,6.0475,6.0573,6.0408,6.0756,6.0885,6.0769,6.0746,6.0701,6.0614,5.9957,5.9497,5.9183,5.8671,5.8119,5.76,5.76,5.7085,5.6266,5.5547,5.4903,5.4409,5.4409,5.4409,5.4409,5.4409,5.4409,5.4409,5.4409,5.4409,5.4409,5.4409,5.4409,5.4409,5.4409,5.4409,5.4409,5.4409,5.4597,5.4761,5.4661,5.4839,5.495,5.4681,5.4754,5.4847,5.4806,5.506,5.5293,5.5426,5.5528,5.5705,5.5967,5.6008,5.6008,5.6008,5.6008,5.6008,5.6008,5.6008,5.6008,5.6008,5.6008,5.6008,5.6008,5.6008,5.6008,5.6008,5.6008,5.6008,5.6008,5.6008,5.6008,5.6008,5.6008,5.5821,4.6263,4.6239,4.6205,4.6198,4.619,4.6154,4.6104,4.6087,4.6066,4.601,4.5999,4.6271,4.714,4.7509,4.8153,4.9651,5.0814,5.1824,5.2643,5.4058,5.5074,5.5258,5.5676,5.593,5.5891,5.5886,5.5974,5.6202,5.6796,5.7356,5.7771,5.8312,5.9057,6.0056,6.008,6.0452,6.1238,6.1297,6.1283,6.1215,6.1215,6.116,6.1063,6.099,6.0898,6.076,6.0426,6.0164,5.9992,5.9601,5.9053,5.8436,5.8436,5.7938,5.715,5.6521,5.5639,5.4719,5.4719,5.4597,5.4409,5.4409,5.4409,5.4409,5.4409,5.4409,5.4409,5.4409,5.4409,5.4409,5.4409,5.4409,5.4415,5.4489,5.4719,5.4912,5.4912,5.5108,5.5224,5.4957,5.5074,5.5154,5.504,5.5336,5.5626,5.5703,5.5679,5.5759,5.5967,5.6008,5.6008,5.6008,5.5995,5.601,5.601,5.5977,5.5968,5.5968,5.5981,5.5981,5.5968,5.5981,5.5981,5.5968,5.5968,5.5968,5.5968,5.5968,5.5968,5.5968,5.5968,5.5969,4.6217,4.6209,4.6201,4.6208,4.615,4.6098,4.6096,4.6059,4.6002,4.5999,4.5999,4.6271,4.714,4.7997,4.8855,4.9748,5.1283,5.2662,5.3536,5.4427,5.5242,5.5881,5.5867,5.5759,5.561,5.5613,5.6074,5.7168,5.6982,5.7615,5.9439,5.9415,5.9744,6.0556,6.0575,6.091,6.1584,6.1786,6.217,6.2724,6.2724,6.2741,6.2715,6.2662,6.2486,6.2214,6.1671,6.1121,6.0529,5.9992,5.9573,5.9253,5.9253,5.8774,5.8061,5.8023,5.6982,5.5555,5.5555,5.5057,5.4409,5.4409,5.4409,5.4409,5.4409,5.4409,5.4409,5.4409,5.4409,5.4409,5.4409,5.4409,5.4474,5.4727,5.4992,5.5186,5.5186,5.5389,5.5511,5.5237,5.5193,5.5281,5.5528,5.5591,5.5698,5.5957,5.5924,5.5914,5.5995,5.6008,5.6008,5.6008,5.6007,5.5994,5.5994,5.5933,5.59,5.59,5.5971,5.5976,5.5905,5.5971,5.5971,5.5905,5.59,5.59,5.59,5.59,5.59,5.59,5.59,5.59,4.621,4.6177,4.6137,4.6123,4.6084,4.6027,4.6027,4.6015,4.5999,4.5999,4.6463,4.7123,4.7997,4.8874,4.9923,5.1322,5.2526,5.3531,5.4314,5.5133,5.5683,5.5731,5.5684,5.5819,5.6224,5.6349,5.6452,5.6618,5.7803,5.8705,5.9113,5.9599,6.0295,6.1229,6.118,6.1497,6.226,6.2333,6.2349,6.234,6.2212,6.2134,6.2145,6.211,6.2048,6.1958,6.1783,6.158,6.1327,6.0632,6.0363,6.0347,5.9598,5.9276,5.9204,5.8968,5.8192,5.7103,5.5987,5.5433,5.5114,5.4578,5.4409,5.4409,5.4409,5.4409,5.4409,5.4409,5.4409,5.4409,5.4409,5.4527,5.4681,5.4776,5.5147,5.5472,5.5472,5.567,5.5784,5.5524,5.5616,5.5681,5.5566,5.5678,5.5826,5.5914,5.5909,5.5909,5.5923,5.5928,5.5928,5.5928,5.5933,5.5924,5.5924,5.5909,5.59,5.59,5.5914,5.5914,5.59,5.5914,5.5914,5.59,5.59,5.59,5.59,5.59,5.59,5.5919,5.6498,5.6748,4.6177,4.6138,4.6091,4.6075,4.6027,4.5999,4.5999,4.5999,4.6096,4.6407,4.6909,4.7653,4.8786,4.9443,5.0361,5.1989,5.3028,5.386,5.4527,5.538,5.5807,5.5453,5.5416,5.5688,5.6364,5.6772,5.7057,5.7178,5.8386,5.9161,5.9251,6.0026,6.0761,6.1407,6.1614,6.208,6.2843,6.2851,6.2864,6.2871,6.2757,6.2698,6.2698,6.2698,6.2698,6.2679,6.2398,6.2257,6.22,6.1374,6.0952,6.0792,6.004,5.9709,5.9592,5.9382,5.8971,5.8324,5.6972,5.6315,5.5977,5.546,5.5291,5.5291,5.5291,5.5291,5.5291,5.5291,5.5356,5.5437,5.5437,5.5655,5.591,5.5988,5.6286,5.6557,5.666,5.6797,5.6844,5.6676,5.6757,5.6782,5.6566,5.6661,5.6766,5.677,5.6501,5.6207,5.5933,5.59,5.59,5.59,5.5885,5.5856,5.5856,5.5836,5.5826,5.5826,5.5846,5.5846,5.5826,5.5846,5.5846,5.5826,5.5826,5.5826,5.5826,5.6134,5.6289,5.6308,5.7194,5.7578,4.6128,4.6096,4.6082,4.6012,4.5999,4.5999,4.5999,4.6038,4.631,4.712,4.737,4.7883,4.9438,4.9736,5.0248,5.1809,5.2846,5.3677,5.426,5.5157,5.5588,5.5128,5.5125,5.5405,5.6069,5.6932,5.784,5.8758,5.8737,5.9035,5.9896,6.0665,6.113,6.1197,6.1946,6.2674,6.3351,6.3342,6.3672,6.4294,6.4294,6.4294,6.4294,6.4294,6.4294,6.4257,6.3496,6.3158,6.3083,6.2219,6.1421,6.0736,6.0652,6.0126,5.9374,5.9337,5.9309,5.9196,5.8436,5.7638,5.6943,5.6915,5.6887,5.6887,5.6887,5.6887,5.6896,5.6914,5.7104,5.7293,5.7309,5.7561,5.787,5.8145,5.8201,5.8291,5.8548,5.8543,5.8501,5.8496,5.8432,5.8397,5.8397,5.8337,5.8303,5.8305,5.7594,5.6804,5.6054,5.5929,5.589,5.589,5.5831,5.5787,5.5787,5.574,5.5708,5.5708,5.5761,5.5766,5.5708,5.5761,5.578,5.5766,5.5766,5.5785,5.5824,5.6651,5.7074,5.7093,5.7953,5.8352,4.6128,4.6051,4.6017,4.6004,4.5999,4.5999,4.5999,4.6502,4.7023,4.7256,4.8247,4.9236,4.974,5.009,5.0873,5.2671,5.2969,5.3434,5.4714,5.5109,5.5135,5.4758,5.5397,5.6064,5.6647,5.7524,5.8377,5.9119,5.9429,5.9866,6.0524,6.078,6.1451,6.2698,6.2843,6.3266,6.4036,6.4054,6.4137,6.4294,6.4294,6.4294,6.4294,6.4294,6.4294,6.4294,6.4088,6.3994,6.3937,6.3101,6.2768,6.2638,6.1391,6.0757,6.0492,5.9896,5.9505,5.9271,5.9065,5.8483,5.7704,5.7094,5.6887,5.6887,5.6887,5.6887,5.693,5.7135,5.7261,5.7366,5.7615,5.7883,5.8122,5.8179,5.8343,5.8496,5.8524,5.8515,5.8481,5.8363,5.8338,5.8339,5.8339,5.8308,5.8292,5.83,5.8107,5.7676,5.6823,5.6155,5.5745,5.5745,5.5735,5.573,5.573,5.5714,5.5708,5.5708,5.5719,5.5724,5.5708,5.5719,5.6013,5.6651,5.667,5.6997,5.7646,5.7857,5.7973,5.7992,5.8819,5.9184,4.6073,4.6025,4.5999,4.5999,4.5999,4.6096,4.6482,4.6948,4.7498,4.8211,4.9064,4.9775,5.0035,5.0259,5.097,5.2634,5.2809,5.3219,5.4679,5.495,5.489,5.456,5.5319,5.6151,5.6839,5.769,5.8516,5.9243,5.9867,6.0353,6.0697,6.1403,6.2231,6.3172,6.348,6.3834,6.4294,6.4294,6.4294,6.4294,6.4294,6.4294,6.4294,6.4294,6.4294,6.4294,6.4294,6.4294,6.4257,6.3796,6.351,6.3228,6.2294,6.1463,6.0765,6.0321,5.9801,5.929,5.929,5.9099,5.877,5.8326,5.8062,5.8001,5.8261,5.8264,5.8233,5.8509,5.8683,5.8848,5.9026,5.9275,5.9463,5.9463,5.9572,5.965,5.9616,5.9567,5.953,5.9425,5.94,5.9396,5.9396,5.9396,5.9396,5.9396,5.9069,5.8646,5.8171,5.7357,5.6838,5.6838,5.6838,5.6838,5.6838,5.6838,5.6838,5.6838,5.6838,5.6838,5.6838,5.6838,5.7069,5.7555,5.7574,5.7819,5.8294,5.864,5.8833,5.8858,5.9685,6.0069,4.6002,4.5999,4.5999,4.5999,4.6096,4.6368,4.712,4.7478,4.801,4.9412,4.9752,4.9913,5.0253,5.0286,5.0726,5.2172,5.2463,5.3,5.4376,5.4716,5.4735,5.4441,5.5207,5.6071,5.6831,5.7723,5.8549,5.9253,6.021,6.0773,6.0773,6.2257,6.3158,6.3252,6.3937,6.4294,6.4294,6.4294,6.4324,6.4374,6.4374,6.4385,6.4424,6.4424,6.4414,6.4374,6.4414,6.4404,6.4365,6.4414,6.4019,6.3389,6.3305,6.2335,6.0952,6.0801,6.0191,5.9468,5.9392,5.9568,5.9791,5.9791,5.9635,5.9513,6.0033,6.003,5.9915,6.0189,6.047,6.071,6.0744,6.0922,6.1094,6.1089,6.1036,6.1002,6.0987,6.0938,6.0863,6.0812,6.0806,6.0806,6.0806,6.0806,6.0806,6.0806,6.0165,5.9665,5.9665,5.8877,5.8294,5.8294,5.8294,5.8294,5.8294,5.8294,5.8294,5.8294,5.8294,5.8294,5.8294,5.8294,5.8352,5.8467,5.8467,5.8525,5.8627,5.9338,5.9665,5.9685,6.0454,6.0806,4.6012,4.5999,4.5999,4.5999,4.654,4.7101,4.7276,4.8338,4.9357,4.9646,5.0053,5.038,5.0456,5.0201,5.0504,5.2129,5.219,5.2585,5.4205,5.4455,5.4474,5.4417,5.5742,5.6737,5.6887,5.822,5.9159,5.929,6.0717,6.1581,6.1581,6.2557,6.3402,6.4069,6.4238,6.4294,6.4294,6.4294,6.4443,6.4705,6.4705,6.4855,6.5128,6.5128,6.4983,6.4723,6.5016,0.0,6.4732,6.5005,6.5051,6.4866,6.4422,6.3738,6.2866,6.1758,6.0922,6.0313,5.9882,5.9741,5.9791,5.9791,5.9904,6.0055,6.0163,6.0163,6.0203,6.0527,6.0649,6.075,6.0977,6.107,6.1089,6.1027,6.1012,6.0977,6.0921,6.0869,6.0818,6.0806,6.0806,6.0806,6.0806,6.0806,6.0806,6.0806,6.0671,6.0569,6.0569,5.9242,5.8294,5.8294,5.8294,5.8294,5.8294,5.8294,5.8294,5.8294,5.8294,5.8294,5.8294,5.8294,5.8607,5.9281,5.93,5.9646,6.0358,6.0517,6.0569,6.0569,6.0729,6.0806,4.6007,4.5999,4.5999,4.5999,4.6657,4.7412,4.7881,4.8868,4.9798,5.0148,5.0374,5.0466,5.0328,5.0076,5.0422,5.1987,5.2057,5.2494,5.4165,5.4409,5.4409,5.4409,5.5873,5.6887,5.6887,5.8351,5.9497,5.9947,6.1111,6.1797,6.1797,6.3017,6.39,6.4294,6.4294,6.4375,6.4568,6.4568,6.4723,6.5055,6.5055,6.5136,6.5291,6.5291,6.5207,6.5063,6.5222,6.5207,6.5063,6.523,6.5291,6.5268,6.502,6.4445,6.3686,6.3046,6.2064,6.1034,6.0764,6.0511,6.0276,6.0276,6.025,6.0253,6.0562,6.0569,6.0514,6.0823,6.0906,6.0932,6.107,6.1099,6.1084,6.1017,6.0962,6.0932,6.0863,6.0823,6.0806,6.0806,6.0806,6.0806,6.0806,6.0806,6.0806,6.0806,6.0806,6.0806,6.0806,6.0108,5.9608,5.9608,5.9608,5.9608,5.9608,5.9608,5.9608,5.9608,5.9608,5.9608,5.9608,5.9608,5.9781,6.0165,6.0185,6.0377,6.0806,6.0806,6.0806,6.0806,6.0806,6.0806,4.5999,4.5999,4.6038,4.6232,4.6929,4.78,4.8677,4.9417,5.0063,5.0587,5.0572,5.0369,5.0132,4.9998,5.0408,5.1955,5.2026,5.2518,5.4246,5.4441,5.4409,5.4409,5.5873,5.6887,5.6887,5.8351,5.9666,6.052,6.1524,6.2154,6.2341,6.3581,6.4294,6.4294,6.4365,6.4539,6.4804,6.4863,6.5063,6.5396,6.5396,6.5413,6.5496,6.5496,6.5442,6.5384,6.5468,6.5461,6.5384,6.5468,6.5496,6.5496,6.5496,6.5027,6.4346,6.4181,6.3105,6.1748,6.1639,6.1211,6.0716,6.0767,6.0612,6.0482,6.0958,6.0942,6.0823,6.1032,6.1099,6.1099,6.1099,6.1089,6.1065,6.0982,6.0932,6.0858,6.0812,6.0806,6.0806,6.0806,6.0806,6.0806,6.0806,6.0806,6.0806,6.0806,6.0806,6.0806,6.0806,6.0806,6.0806,6.0806,6.0806,6.0806,6.0806,6.0806,6.0806,6.0806,6.0806,6.0806,6.0806,6.0806,6.0806,6.0806,6.0806,6.0806,6.0806,6.0806,6.0806,6.0806,6.0806,6.0806,4.5999,4.5999,4.6193,4.6984,4.7842,4.8716,4.9573,5.0215,5.0636,5.0686,5.0502,5.0259,5.0133,4.9998,5.0476,5.2269,5.2186,5.2562,5.4489,5.4552,5.4409,5.4409,5.5873,5.6887,5.6887,5.8351,5.9666,6.052,6.2088,6.3289,6.4031,6.4219,6.4294,6.4294,6.4596,6.4768,6.4804,6.5095,6.5391,6.5667,6.5667,6.5811,6.6123,6.6123,6.5949,6.568,6.5991,6.5944,0.0,6.5997,6.6123,6.6123,6.6123,6.588,6.5455,6.4731,6.3667,6.2534,6.2107,6.1398,6.0739,6.0987,6.1036,6.1027,6.1084,6.1084,6.1075,6.1094,6.1099,6.1099,6.1099,6.1046,6.0987,6.0935,6.0858,6.0812,6.0806,6.0806,6.0806,6.0806,6.0806,6.0806,6.0806,6.0806,6.0806,6.0806,6.0806,6.0806,6.0806,6.0806,6.0806,6.0806,6.0806,6.0806,6.0806,6.0806,6.0806,6.0806,6.0806,6.0806,6.0806,6.0806,6.0806,6.0806,6.0806,6.0806,6.0806,6.0806,6.0806,6.0806,6.0806,6.0806,4.5999,4.5999,4.6213,4.7082,4.7958,4.8818,4.9592,5.0268,5.0674,5.0601,5.0437,5.0261,5.0126,5.0063,5.0365,5.1405,5.1997,5.2684,5.3687,5.4443,5.4761,5.4441,5.6163,5.7312,5.7159,5.8778,6.0407,6.1763,6.3445,6.4565,6.4888,6.4705,6.4596,6.4596,6.4924,6.5172,6.5331,6.5472,6.5699,6.5989,6.5989,6.6077,6.6205,6.6205,6.6139,6.6014,6.6149,6.6114,0.0,6.6149,6.6205,6.6205,6.6205,6.6114,6.5956,6.5633,6.4902,6.3979,6.3265,6.2443,6.1642,6.1244,6.1099,6.1099,6.1099,6.1099,6.1099,6.1099,6.1099,6.1089,6.1041,6.0991,6.0932,6.0903,6.0846,6.0806,6.0806,6.0806,6.0806,6.0806,6.0806,6.0806,6.0806,6.0806,6.0806,6.0806,6.0806,6.0806,6.0806,6.0806,6.0806,6.0806,6.0806,6.0806,6.0806,6.0806,6.0806,6.0806,6.0806,6.0806,6.0806,6.0806,6.0806,6.0806,6.0806,6.0806,6.0806,6.0806,6.0806,6.0806,6.0806,6.0806,4.5999,4.6193,4.6579,4.7473,4.8305,4.9139,4.9916,5.0374,5.0601,5.0522,5.0388,5.0273,5.0176,5.0095,5.0271,5.0964,5.1877,5.2703,5.3238,5.4401,5.5101,5.4794,5.6508,5.7694,5.7696,5.9663,6.1421,6.2612,6.4305,6.5291,6.5291,6.514,6.5038,6.4949,6.5249,6.5519,6.5699,6.5799,6.5966,6.6205,6.6205,6.6205,6.6205,6.6205,6.6205,6.6205,6.6205,6.6205,0.0,6.6205,6.6205,6.6205,6.6205,6.6205,6.6205,6.6205,6.5682,6.4914,6.4295,6.3342,6.2293,6.1674,6.1311,6.1099,6.1099,6.1099,6.1099,6.1099,6.1084,6.1041,6.0991,6.0932,6.0905,6.0888,6.0835,6.0806,6.0806,6.0806,6.0806,6.0806,6.0806,6.0806,6.0806,6.0806,6.0806,6.0806,6.0806,6.0806,6.0806,6.0806,6.0806,6.0806,6.0806,6.0806,6.0806,6.0806,6.0806,6.0806,6.0806,6.0806,6.0806,6.0806,6.0806,6.0806,6.0806,6.0806,6.0806,6.071,6.0654,6.0647,6.0553,6.0495,4.5999,4.6638,4.7509,4.8366,4.9146,4.9917,5.0792,5.0745,5.0502,5.0502,5.0388,5.0302,5.0296,5.0076,5.0252,5.1317,5.1953,5.2622,5.3468,5.4513,5.5303,5.5556,5.6842,5.7934,5.8534,6.1073,6.2689,6.2708,6.4305,6.5291,6.5291,6.5541,6.5568,6.5299,6.5548,6.5699,6.5705,6.603,6.6205,6.6205,6.6205,6.6205,6.6205,6.6205,6.6205,6.6205,6.6205,6.6205,0.0,6.6205,6.6205,6.6205,6.6205,6.6205,6.6205,6.6205,6.5682,6.4991,6.4991,6.3845,6.239,6.239,6.179,6.1099,6.1099,6.1099,6.1099,6.1099,6.1041,6.1001,6.0924,6.0891,6.0875,6.0818,6.0806,6.0806,6.0806,6.0806,6.0806,6.0806,6.0806,6.0806,6.0806,6.0806,6.0806,6.0806,6.0806,6.0806,6.0806,6.0806,6.0806,6.0806,6.0806,6.0806,6.0806,6.0806,6.0806,6.0806,6.0806,6.0806,6.0806,6.0806,6.0806,6.0806,6.0806,6.0806,6.0806,6.0462,6.03,6.0293,5.9957,5.9807,4.6735,4.7014,4.754,4.909,4.9539,4.979,5.061,5.0634,5.0466,5.0372,5.0323,5.0273,5.0182,5.0095,5.0087,5.0234,5.1675,5.2755,5.2722,5.4466,5.5573,5.5106,5.6654,5.8445,6.0146,6.1623,6.2742,6.3351,6.4444,6.5325,6.5884,6.5997,6.5909,6.5581,6.5872,6.6041,6.6041,6.6149,6.6205,6.6205,6.6205,6.6205,6.6205,6.6205,6.6205,6.6205,6.6205,6.6205,6.6205,6.6205,6.6205,6.6205,6.6205,6.6205,6.6205,6.6205,6.6031,6.574,6.5185,6.4256,6.3192,6.2583,6.179,6.1027,6.1027,6.1027,6.1041,6.104,6.0989,6.0941,6.0922,6.0863,6.0829,6.0812,6.0806,6.0806,6.0806,6.0806,6.0806,6.0806,6.0319,5.9915,5.9915,5.9454,5.9088,5.9088,5.9088,5.9088,5.9088,5.9088,5.9088,5.9088,5.9588,6.0146,6.0748,6.0806,6.0806,6.0806,6.0578,6.0559,6.0794,6.0578,6.0455,6.0455,6.0455,6.0354,6.0128,6.0004,5.995,5.995,5.9847,5.9639,4.714,4.7436,4.7966,4.9511,4.9884,5.0027,5.0572,5.0558,5.0394,5.0325,5.0302,5.0278,5.0194,5.0182,5.0215,5.037,5.1904,5.3031,5.2944,5.4715,5.6069,5.6211,5.7526,5.9113,6.0911,6.1887,6.2762,6.3637,6.4508,6.5359,6.6166,6.6205,6.6104,6.5895,6.6093,6.6205,6.6205,6.6205,6.6205,6.6205,6.6205,6.6205,6.6205,6.6205,6.6205,6.6205,6.6205,6.6205,0.0,6.6205,6.6205,6.6205,6.6205,6.6205,6.6205,6.6205,6.6205,6.6127,6.5629,6.4682,6.3618,6.3071,6.2032,6.0997,6.0976,6.0976,6.0995,6.0976,6.0938,6.0886,6.0863,6.0829,6.0806,6.0806,6.0806,6.0704,6.0377,6.03,6.0223,5.9915,5.9415,5.905,5.905,5.8621,5.8294,5.8294,5.8294,5.8294,5.8294,5.8294,5.8294,5.8294,5.8742,5.9336,6.0066,6.0424,6.0623,6.0623,6.0293,6.0189,6.0415,6.0223,6.0102,6.0102,6.0102,6.0004,5.9791,5.9658,5.9513,5.938,5.938,5.9243,0.0,4.7982,4.8725,4.9744,5.0252,5.0547,5.0698,5.0507,0.0,5.0319,5.0308,5.0302,5.0302,5.0291,5.0568,5.137,5.2441,5.3395,5.3941,5.514,5.6633,5.8395,5.9018,5.978,6.0983,6.1829,6.2665,6.354,6.4411,6.5262,6.6069,6.6166,6.6205,6.6205,6.6205,6.6205,6.6205,6.6205,6.6205,6.6205,6.6205,6.6205,6.6205,6.6205,6.6205,0.0,6.6205,6.6205,6.6205,6.6205,6.6205,6.6205,6.6205,6.6205,6.6205,6.6205,6.6205,6.6205,6.6205,6.5102,6.3671,6.355,6.2351,6.0972,6.0919,6.0944,6.0976,6.0922,6.0886,6.0869,6.0818,6.0748,6.0704,6.0704,6.0666,6.0396,5.9588,5.9415,5.9184,5.8454,5.8256,5.8204,5.8204,5.8165,5.8127,5.8127,5.8127,5.8127,5.8127,5.8127,5.8127,5.8127,5.8148,5.8345,5.8798,5.9682,6.021,6.0265,5.995,5.9766,5.9791,5.9766,5.9758,5.9758,5.9733,5.9717,5.9717,5.9352,5.9006,5.8706,5.8706,5.8725,4.8932,0.0,4.9632,5.0635,5.0696,5.0577,0.0,5.0606,5.0323,5.0437,5.0374,5.0302,5.0302,5.0294,5.0549,5.1365,5.2409,5.3405,5.4188,5.5109,5.6425,5.8377,5.8522,5.9168,6.0925,6.1292,6.1776,6.2646,6.3502,6.4372,6.5243,6.5876,6.6205,6.6205,6.6205,6.6205,6.6205,6.6205,6.6205,6.6205,6.6205,6.6205,6.6205,6.6205,6.6205,6.6205,6.6205,6.6205,6.6205,6.6205,6.6205,6.6205,6.6205,6.6205,6.6205,6.6205,6.6205,6.6205,6.6205,6.5077,6.3408,6.2006,6.1274,6.0919,6.0846,6.0863,6.0916,6.0841,6.0823,6.0823,6.0806,6.03,5.9819,5.9819,5.9338,5.8833,5.8627,5.8583,5.8525,5.8333,5.7761,5.7305,5.7305,5.6747,5.6299,5.6299,5.6299,5.6299,5.6299,5.6299,5.6299,5.6299,5.6672,5.6964,5.7091,5.8453,5.9481,5.9888,5.9563,5.9485,5.9782,5.9502,5.9343,5.9343,5.9083,5.8965,5.8965,5.8855,5.8772,5.8706,5.8706,5.9022,4.9634,4.9795,4.9942,5.0942,5.0894,5.0657,5.0945,5.0686,5.041,5.0481,5.0448,5.0383,5.0383,5.049,5.0975,5.2185,5.2878,5.3724,5.4955,5.5856,5.6937,5.8421,5.8824,5.9533,6.0954,6.1099,6.1461,6.2332,6.3212,6.4082,6.4952,6.576,6.6205,6.6205,6.6205,6.6205,6.6205,6.6205,6.6205,6.6205,6.6205,6.6205,6.6205,6.6205,6.6205,6.6205,6.6205,6.6205,6.6205,6.6205,6.6205,6.6205,6.6205,6.6205,6.6205,6.6205,6.6205,6.62,6.6155,6.5006,6.3267,6.1478,6.0911,6.09,6.0823,6.0829,6.0846,6.0812,6.0806,6.0806,6.0806,6.0454,5.9992,5.9608,5.9165,5.8646,5.7877,5.7703,5.7588,5.7184,5.6728,5.6401,5.6401,5.6016,5.5708,5.5708,5.5708,5.5671,5.552,5.5527,5.5461,5.5294,5.5546,5.5812,5.6027,5.6873,5.7856,5.8904,5.8972,5.9073,5.929,5.9083,5.8967,5.8967,5.8793,5.8706,5.8706,5.8706,5.8706,5.8706,5.8706,5.9133,5.0067,5.0028,5.0137,5.0987,5.0981,5.0807,5.0986,5.0758,5.0512,5.0562,5.0537,5.0507,5.0522,5.0741,5.1443,5.3117,5.3663,5.4385,5.5799,5.6646,5.7477,5.8473,5.9246,6.0074,6.1002,6.1099,6.1408,6.2158,6.3013,6.3811,6.4566,6.5489,6.6011,6.6011,6.6147,6.6205,6.6205,6.6205,6.6205,6.6205,6.6205,6.6205,6.6205,6.6205,6.6205,6.6205,6.6205,0.0,6.6205,6.6205,6.6205,6.6205,6.6205,6.6205,6.6205,6.6205,6.618,6.6146,6.5807,6.4729,6.3208,6.1456,6.0875,6.0869,6.0818,6.0806,6.0806,6.0806,6.0806,6.0806,6.0806,6.071,6.0377,5.9511,5.9223,5.8684,5.7132,5.6805,5.6574,5.5843,5.5708,5.5708,5.5708,5.5676,5.5635,5.5635,5.5602,5.5485,5.5243,5.5211,5.5117,5.4829,5.4754,5.489,5.5281,5.539,5.6095,5.765,5.8231,5.8576,5.8687,5.8706,5.8706,5.8706,5.8706,5.8706,5.8706,5.8706,5.8706,5.8706,5.8836,5.9319,5.0802,5.0984,5.1007,5.1157,5.1075,5.0989,5.1137,5.0826,5.0577,5.0866,5.0705,5.0527,5.0659,5.0804,5.1435,5.3057,5.4611,5.5707,5.595,5.6124,5.6805,5.8415,5.8724,5.942,6.0944,6.1099,6.1157,6.1292,6.2104,6.266,6.2796,6.4309,6.5185,6.5185,6.5837,6.6205,6.6205,6.6205,6.6205,6.6205,6.6205,6.6205,6.6205,6.6205,6.6205,6.6205,0.0,6.6205,6.6205,6.6205,6.6205,6.6205,6.6205,6.6205,6.6205,6.6205,6.6155,6.5884,6.4351,6.365,6.3132,6.1374,6.0818,6.0818,6.0806,6.0806,6.0806,6.0806,6.0806,6.0806,6.0806,6.0242,5.9492,5.8684,5.7915,5.7113,5.6112,5.5901,5.5862,5.5728,5.5708,5.5708,5.5708,5.5502,5.5358,5.5358,5.5112,5.4924,5.488,5.4873,5.4858,5.4806,5.4552,5.4403,5.4475,5.4848,5.5498,5.6494,5.7261,5.7982,5.8669,5.8706,5.8706,5.8706,5.8706,5.8706,5.8706,5.8706,5.8706,5.8725,5.9393,6.0173,5.1152,5.1232,5.1199,5.1199,5.1146,5.1128,5.119,5.0986,5.0805,5.0963,5.0878,5.0776,5.0808,5.1269,5.2202,5.3838,5.5174,5.6008,5.6008,5.6414,5.7168,5.8453,5.9014,5.9783,6.0983,6.1099,6.1099,6.1099,6.1906,6.239,6.239,6.3618,6.4508,6.4991,6.5359,6.576,6.6205,6.6205,6.6205,6.6205,6.6205,6.6205,6.6205,6.6205,6.6205,6.6205,0.0,6.6205,6.6205,6.6205,6.6205,6.6205,6.6205,6.6205,6.62,6.6149,6.6105,6.5789,6.4016,6.3372,6.3067,6.1351,6.0806,6.0806,6.0806,6.0806,6.0806,6.0806,6.0806,6.0806,6.0806,6.0498,5.9877,5.8602,5.7992,5.7319,5.5997,5.5708,5.5708,5.5708,5.5708,5.5646,5.5522,5.5382,5.5243,5.5063,5.4895,5.4731,5.4552,5.4528,5.4463,5.4281,5.4518,5.4671,5.4671,5.5303,5.606,5.6896,5.7703,5.8297,5.8669,5.8706,5.8706,5.8706,5.8706,5.8706,5.8706,5.8706,5.891,5.9356,5.9728,6.06,5.13,5.1249,5.1199,5.1199,5.1199,5.1199,5.1199,5.1105,5.1016,5.1041,5.1027,5.0982,5.0948,5.1833,5.3065,5.4567,5.5475,5.6008,5.6008,5.6568,5.7381,5.8473,5.9188,5.9996,6.1002,6.1099,6.1099,6.1099,6.1713,6.21,6.21,6.2917,6.3695,6.4372,6.4585,6.5088,6.5915,6.5915,6.6011,6.6205,6.6205,6.6205,6.6205,6.6205,6.6205,6.6205,6.6205,6.6205,6.6205,6.6205,6.6205,6.6205,6.6205,6.6194,6.6179,6.6105,6.5905,6.5463,6.3917,6.3227,6.2781,6.1281,6.0806,6.0806,6.0806,6.0806,6.0806,6.0806,6.0806,6.0806,6.0806,6.0806,6.0377,5.8704,5.8294,5.7819,5.6074,5.5708,5.5708,5.5708,5.5646,5.5531,5.5333,5.5171,5.4981,5.4723,5.4785,5.4745,5.4493,5.4645,5.466,5.4417,5.4936,5.5289,5.5289,5.6097,5.684,5.7462,5.8075,5.8502,5.8687,5.8706,5.8706,5.8706,5.8706,5.8706,5.8706,5.8892,5.93,5.9913,6.0303,6.1176,5.13,5.1249,5.1199,5.1199,5.1199,5.1199,5.1199,5.1105,5.1037,5.1153,5.1098,5.1027,5.1076,5.2369,5.3712,5.4653,5.5472,5.6008,5.6008,5.6046,5.6728,5.8395,5.8666,5.9324,6.0944,6.1099,6.1099,6.1099,6.1157,6.1195,6.1195,6.2022,6.2525,6.2583,6.3366,6.4217,6.5088,6.5088,6.5455,6.6205,6.6205,6.6205,6.6205,6.6205,6.6205,6.6205,6.6205,6.6205,6.6205,6.6205,6.6205,6.6205,6.6205,6.6155,6.6091,6.6042,6.5488,6.4642,6.3652,6.2826,6.2037,6.1095,6.0806,6.0806,6.0806,6.0806,6.0806,6.0806,6.0806,6.0806,6.0806,6.0806,6.0377,5.8704,5.8294,5.7819,5.6074,5.5708,5.5708,5.5708,5.5491,5.532,5.5301,5.4773,5.4355,5.433,5.4698,5.4976,5.4947,5.5654,5.6146,5.6116,5.6172,5.6209,5.6209,5.6952,5.7453,5.7509,5.7555,5.7907,5.8669,5.8706,5.8706,5.8706,5.8706,5.8706,5.8706,5.9449,5.9839,5.9932,6.1492,6.2272,5.13,5.1249,5.1199,5.1199,5.1199,5.1199,5.1199,5.1153,5.1137,5.1193,5.1153,5.1431,5.2462,5.3557,5.4582,5.541,5.5803,5.6008,5.6008,5.6008,5.665,5.8395,5.8608,5.9266,6.0944,6.1099,6.1099,6.1099,6.1099,6.1099,6.1099,6.1403,6.1829,6.237,6.2723,6.3304,6.4179,6.472,6.5146,6.5455,6.5953,6.6205,6.6205,6.6205,6.6205,6.6205,6.6205,6.6205,6.6205,6.6205,6.6205,6.62,6.6144,6.6094,6.5971,6.5404,6.4951,6.4434,6.3043,6.2345,6.196,6.1075,6.0806,6.0806,6.0806,6.0806,6.0806,6.0806,6.0806,6.0806,6.0806,6.0396,5.9704,5.8569,5.7896,5.717,5.5958,5.5708,5.5646,5.5479,5.537,5.5164,5.4761,5.4877,5.497,5.4773,5.5349,5.5819,5.5819,5.6097,5.6302,5.6302,5.6747,5.7239,5.7751,5.8075,5.8242,5.8242,5.8242,5.8372,5.8687,5.8706,5.8706,5.8706,5.8706,5.8706,5.8706,5.9505,6.0173,6.073,6.1863,6.2662,5.1278,5.1237,5.1199,5.1199,5.1199,5.1199,5.1199,5.1199,5.1199,5.1199,5.1394,5.1997,5.334,5.427,5.5093,5.5877,5.6008,5.6008,5.6008,5.6008,5.653,5.8023,5.8434,5.9169,6.0576,6.0944,6.1099,6.1099,6.1099,6.1099,6.1099,6.1099,6.1369,6.1964,6.1984,6.2414,6.3289,6.3889,6.4469,6.5011,6.5571,6.5953,6.6205,6.6205,6.6205,6.6205,6.6205,6.6205,6.6205,6.6205,6.6194,6.613,6.5785,6.5629,6.5476,6.4591,6.4074,6.3647,6.2499,6.1922,6.1595,6.0998,6.0806,6.0806,6.0806,6.0806,6.0806,6.0806,6.0806,6.0748,6.0454,5.9954,5.93,5.8486,5.7627,5.6766,5.5882,5.5629,5.5527,5.5333,5.5131,5.4919,5.471,5.5046,5.5361,5.5412,5.6134,5.6692,5.6692,5.6896,5.7063,5.7063,5.7555,5.8093,5.865,5.8706,5.8706,5.8706,5.8706,5.8706,5.8706,5.8706,5.8706,5.8706,5.8947,5.9077,5.9077,6.0155,6.099,6.1596,6.2402,6.307,5.1208,5.1208,5.1199,5.1199,5.1199,5.1199,5.1199,5.1199,5.1199,5.1199,5.1843,5.2657,5.3457,5.4311,5.5157,5.5885,5.6008,5.6008,5.6008,5.6008,5.6317,5.7207,5.8062,5.8937,5.9827,6.0634,6.1099,6.1099,6.1099,6.1099,6.1099,6.1099,6.1099,6.1099,6.1099,6.15,6.237,6.239,6.3265,6.4972,6.4972,6.5417,6.6205,6.6205,6.6205,6.6205,6.6205,6.6205,6.6205,6.6205,6.6149,6.5989,6.5066,6.4692,6.4565,6.3627,6.2781,6.2095,6.2095,6.1518,6.0806,6.0806,6.0806,6.0806,6.0806,6.0806,6.0806,6.0806,6.0787,6.0589,5.9723,5.9492,5.9281,5.8486,5.7627,5.6747,5.5876,5.5479,5.5295,5.5295,5.4761,5.4569,5.5359,5.5231,5.5326,5.619,5.7008,5.7509,5.7509,5.8205,5.8706,5.8706,5.8706,5.8706,5.8706,5.8706,5.8706,5.8706,5.8706,5.8706,5.8706,5.8706,5.8706,5.8706,5.9486,5.9895,5.9913,6.1585,6.2402,6.242,6.3238,6.359,5.1208,5.1208,5.1199,5.1199,5.1199,5.1199,5.1199,5.1199,5.1199,5.1199,5.2289,5.3316,5.3566,5.4731,5.5747,5.5954,5.6008,5.6008,5.6008,5.6008,5.6317,5.7207,5.8062,5.8937,5.9827,6.0634,6.1099,6.1099,6.1099,6.1099,6.1099,6.1099,6.1099,6.1099,6.1046,6.1177,6.1481,6.1992,6.2577,6.3187,6.3733,6.4777,6.6205,6.6205,6.6205,6.6205,6.6205,6.6165,6.6123,6.608,6.5683,6.5086,6.48,6.4297,6.3614,6.2774,6.2306,6.1999,6.1402,6.1018,6.0806,6.0806,6.0806,6.0806,6.0806,6.0806,6.0806,6.0806,6.0358,5.9838,5.9569,5.8627,5.769,5.744,5.6585,5.5726,5.547,5.5178,5.488,5.4635,5.4882,5.513,5.5147,5.6036,5.6849,5.7119,5.7833,5.8335,5.8335,5.8539,5.8706,5.8706,5.8706,5.8706,5.8706,5.8706,5.8706,5.8706,5.8706,5.8706,5.8706,5.8706,5.8966,5.9523,5.9783,6.0192,6.0823,6.1882,6.2402,6.242,6.3238,6.359,5.1197,5.1209,5.1199,5.1199,5.1199,5.1199,5.1199,5.1199,5.1196,5.1165,5.2489,5.3612,5.356,5.4928,5.6029,5.5993,5.6008,5.6008,5.6008,5.6008,5.6182,5.6723,5.7559,5.843,5.9304,6.0132,6.077,6.1079,6.1099,6.1099,6.1099,6.1099,6.1099,6.1099,6.1032,6.1017,6.107,6.1507,6.1922,6.2331,6.2842,6.3824,6.5188,6.5556,6.5885,6.613,6.5786,6.5619,6.5542,6.5134,6.4664,6.4147,6.3796,6.3318,6.2724,6.1883,6.1575,6.1518,6.0979,6.0806,6.0806,6.0806,6.0806,6.0806,6.0806,6.0806,6.0806,6.0806,6.0165,5.9392,5.8933,5.7815,5.6798,5.6798,5.6026,5.5269,5.5131,5.4843,5.4544,5.433,5.4832,5.5352,5.5486,5.6607,5.761,5.7936,5.839,5.8706,5.8706,5.8706,5.8706,5.8706,5.8706,5.8706,5.8706,5.8706,5.8706,5.8706,5.9003,5.917,5.917,5.917,5.9393,5.9895,6.0545,6.1139,6.1678,6.2476,6.2885,6.2885,6.3368,6.359,5.1199,5.1199,5.1199,5.1199,5.1199,5.1196,5.1196,5.1193,5.1165,5.1101,5.2489,5.3645,5.3511,5.4928,5.6077,5.6016,5.6008,5.6008,5.6008,5.6008,5.6008,5.6008,5.6762,5.7632,5.8511,5.9382,6.0228,6.1041,6.1099,6.1099,6.1099,6.1099,6.1094,6.1089,6.1022,6.0997,6.0997,6.0989,6.1353,6.2083,6.215,6.2634,6.3508,6.4434,6.5221,6.582,6.5013,6.4663,6.4599,6.3746,6.3351,6.3191,6.2407,6.2056,6.1883,6.1095,6.0806,6.0806,6.0806,6.0806,6.0806,6.0806,6.0806,6.0806,6.0806,6.0806,6.0787,6.0704,6.0069,5.9133,5.7972,5.7033,5.639,5.6318,5.5732,5.5131,5.4821,5.4495,5.4255,5.4255,5.4727,5.5363,5.6172,5.7026,5.7852,5.8595,5.8706,5.8706,5.8706,5.8706,5.8706,5.8706,5.8706,5.8706,5.8706,5.8706,5.8725,5.8799,5.9444,5.9889,6.0006,6.0025,6.0043,6.0136,6.1622,6.2439,6.2513,6.3238,6.359,6.359,6.359,6.359,5.1199,5.1199,5.1199,5.1199,5.1165,5.1127,5.1127,5.1124,5.1127,5.1092,5.2406,5.3538,5.3519,5.4885,5.602,5.6008,5.6008,5.6008,5.6008,5.6008,5.6008,5.6008,5.6762,5.7632,5.8511,5.9382,6.0228,6.1041,6.1099,6.1099,6.1099,6.1099,6.108,6.1022,6.1005,6.0994,6.0994,6.0891,6.0982,6.1262,6.1216,6.167,6.2529,6.3469,6.3966,6.4048,6.3813,6.3708,6.3683,6.342,6.2953,6.2363,6.2159,6.1672,6.1056,6.0864,6.0806,6.0806,6.0806,6.0806,6.0806,6.0806,6.0806,6.0806,6.0806,6.0806,6.0666,5.9973,5.9184,5.8281,5.7086,5.6173,5.5431,5.49,5.4633,5.4503,5.4422,5.4133,5.3917,5.3917,5.506,5.6079,5.6265,5.748,5.8502,5.8669,5.8706,5.8706,5.8706,5.8706,5.8706,5.8706,5.8706,5.8706,5.8706,5.8706,5.8966,5.9598,5.9416,5.9759,6.0868,6.0927,6.1224,6.1845,6.2216,6.2699,6.333,6.3516,6.359,6.359,6.359,6.359,5.1199,5.1199,5.1199,5.1199,5.1159,5.1098,5.1098,5.1075,5.1041,5.1042,5.2367,5.3491,5.3491,5.4864,5.6008,5.6008,5.6008,5.6008,5.6008,5.6008,5.6008,5.6008,5.6394,5.7013,5.7888,5.8758,5.9614,6.046,6.0886,6.1089,6.1046,6.1041,6.1036,6.1,6.0962,6.0955,6.0955,6.0846,6.0835,6.0891,6.0891,6.1139,6.1615,6.2915,6.3494,6.3428,6.298,6.2777,6.2739,6.2293,6.1858,6.1479,6.1479,6.121,6.0806,6.0806,6.0806,6.0806,6.0806,6.0806,6.0806,6.0806,6.0806,6.0806,6.0806,6.0512,6.0089,5.9627,5.8502,5.7257,5.646,5.5534,5.4689,5.4177,5.4177,5.4255,5.4098,5.3917,5.3803,5.3803,5.515,5.6302,5.6302,5.7639,5.8706,5.8706,5.8706,5.8706,5.8706,5.8706,5.8706,5.8706,5.8479,5.8584,5.9224,5.8795,5.8957,6.0025,5.9914,6.0157,6.0878,6.1312,6.1672,6.1957,6.2089,6.2371,6.2793,6.3032,6.305,6.2787,6.3062,6.302,5.1199,5.1199,5.1199,5.1193,5.113,5.1105,5.1082,5.1029,5.0975,5.0975,5.233,5.3495,5.3506,5.4871,5.6008,5.6008,5.6008,5.6008,5.6008,5.6008,5.6008,5.6008,5.6008,5.6336,5.7226,5.7946,5.8802,5.9827,6.0518,6.092,6.1007,6.1002,6.0991,6.0981,6.0933,6.0886,6.0875,6.085,6.0825,6.085,6.0918,6.0955,6.0994,6.2359,6.2975,6.2916,6.2196,6.1883,6.1826,6.1095,6.0806,6.0806,6.0806,6.0806,6.0806,6.0806,6.0806,6.0806,6.0806,6.0806,6.0806,6.0806,6.0806,6.0762,6.0614,6.0069,5.9423,5.9075,5.778,5.6381,5.5834,5.501,5.4212,5.3879,5.3999,5.4143,5.386,5.3803,5.3803,5.3803,5.515,5.6395,5.6673,5.7815,5.8706,5.8706,5.8625,5.8604,5.8696,5.8532,5.8505,5.8746,5.8303,5.846,5.9705,5.9,5.9034,6.0274,6.0417,6.0571,6.0806,6.1311,6.1525,6.1423,6.1722,6.1897,6.1897,6.2339,6.2326,6.191,6.237,6.2313,5.1199,5.1199,5.1193,5.113,5.1115,5.1078,5.103,5.0963,5.091,5.091,5.2287,5.3506,5.3502,5.4871,5.6008,5.6008,5.6008,5.6008,5.6008,5.6008,5.6008,5.6008,5.6008,5.6336,5.7226,5.7419,5.8154,5.9783,5.9996,6.0345,6.0968,6.1002,6.0976,6.0922,6.0891,6.0863,6.0818,6.0927,6.0978,6.0959,6.1099,6.1155,6.1167,6.1261,6.1255,6.1145,6.1018,6.0979,6.096,6.0845,6.0806,6.0806,6.0806,6.0806,6.0806,6.0806,6.0806,6.0806,6.0806,6.0806,6.0806,6.0806,6.0806,6.0666,5.9896,5.9588,5.9138,5.7385,5.6715,5.62,5.4875,5.4397,5.4212,5.3879,5.3832,5.3851,5.3804,5.3803,5.3803,5.3803,5.515,5.6747,5.813,5.8557,5.8706,5.8706,5.8301,5.8161,5.8635,5.7882,5.7759,5.8919,5.8567,5.8589,5.9408,5.9351,5.9625,6.0496,6.0136,6.0447,6.167,6.0829,6.0562,6.1063,6.1622,6.1897,6.1897,6.1978,6.1978,6.1897,6.1978,6.1978,5.1142,5.1136,5.115,5.1115,5.1078,5.1046,5.1012,5.0952,5.0898,5.0898,5.2298,5.3502,5.3502,5.4871,5.6008,5.6008,5.6008,5.6008,5.6008,5.6008,5.6008,5.6008,5.6008,5.6143,5.653,5.7013,5.7604,5.834,5.8838,5.9437,6.0182,6.0215,6.0409,6.0827,6.0841,6.0872,6.0917,6.0974,6.1037,6.11,6.1177,6.1209,6.1206,6.1136,6.1079,6.103,6.0861,6.0842,6.0911,6.0819,6.0806,6.0806,6.0806,6.0806,6.0806,6.0806,6.0806,6.0806,6.0806,6.0806,6.0806,6.0806,6.0473,5.9992,5.9627,5.8707,5.7627,5.676,5.5898,5.512,5.4466,5.4151,5.3981,5.3851,5.3803,5.3803,5.3803,5.3803,5.3933,5.4379,5.5456,5.6574,5.7422,5.7951,5.8157,5.7847,5.7606,5.7534,5.7777,5.7789,5.8007,5.8578,5.854,5.8903,5.9988,5.9519,5.9648,6.0744,6.0297,6.0248,6.0867,6.037,6.0215,6.0479,6.0767,6.0885,6.0885,6.1221,6.1206,6.09,6.1235,6.1206,5.1111,5.1102,5.1095,5.1074,5.1046,5.1005,5.0975,5.1099,5.1231,5.1231,5.2627,5.3826,5.3826,5.5026,5.6008,5.6008,5.6008,5.6008,5.6008,5.6008,5.6008,5.6008,5.6008,5.6008,5.6008,5.6594,5.7021,5.7187,5.7791,5.8495,5.924,5.948,5.9881,6.046,6.0691,6.0861,6.0997,6.1077,6.1189,6.1331,6.1331,6.1331,6.1331,6.1298,6.1282,6.1266,6.0974,6.088,6.0948,6.0836,6.0806,6.0806,6.0806,6.0806,6.0806,6.0806,6.0806,6.0806,6.0806,6.0806,6.0768,6.0531,6.0031,5.9404,5.8879,5.7691,5.6427,5.6049,5.5154,5.4289,5.4194,5.399,5.3803,5.3803,5.3803,5.3803,5.3803,5.3803,5.3997,5.4687,5.5343,5.5939,5.6415,5.6987,5.7333,5.713,5.7152,5.724,5.7398,5.7839,5.8295,5.8646,5.8694,5.9169,6.0378,5.9734,5.9714,6.0702,6.0356,6.0089,6.0089,6.0089,6.0089,6.0089,6.0089,6.0089,6.0089,6.0556,6.0541,6.0105,6.0556,6.0525,5.1091,5.1101,5.1074,5.102,5.1009,5.0975,5.0914,5.1544,5.2128,5.2128,5.3521,5.4735,5.4735,5.5432,5.6008,5.6008,5.6008,5.6008,5.6008,5.6008,5.6008,5.6008,5.6008,5.6008,5.6008,5.6045,5.6385,5.7143,5.7236,5.7592,5.8321,5.9158,5.9587,5.9569,6.0358,6.0861,6.0997,6.1318,6.1541,6.1671,6.1671,6.1671,6.167,6.1543,6.1483,6.1471,6.1127,6.0918,6.0804,6.0806,6.0806,6.0806,6.0806,6.0806,6.0806,6.0806,6.0806,6.0806,6.0806,6.0806,6.0666,5.9838,5.955,5.9138,5.7226,5.6581,5.6206,5.48,5.4359,5.4229,5.3917,5.3804,5.3803,5.3803,5.3803,5.3803,5.3803,5.3803,5.3919,5.4281,5.4361,5.4723,5.5759,5.5976,5.6242,5.6989,5.7262,5.7598,5.8148,5.8,5.8303,5.9593,5.9277,5.9292,6.006,6.0067,6.007,6.0153,6.0121,6.0089,6.0089,6.0089,6.0089,6.0089,6.0089,6.0089,6.0089,6.0121,6.0121,6.0089,6.0137,6.0121,5.1731,5.1876,5.1984,5.2489,5.2593,5.2608,5.2573,5.3246,5.3865,5.3865,5.5219,5.6394,5.6394,5.6182,5.6008,5.6008,5.6008,5.6008,5.6008,5.6008,5.6008,5.6008,5.6001,5.6002,5.6002,5.5957,5.603,5.6276,5.6294,5.665,5.742,5.7761,5.8174,5.8704,5.9531,6.0333,6.112,6.1466,6.166,6.1699,6.1699,6.1642,6.1576,6.1526,6.1373,6.1171,6.1061,6.0978,6.0918,6.085,6.0806,6.0806,6.0806,6.0806,6.0806,6.0806,6.0806,6.0806,6.0806,6.0435,5.9915,5.9608,5.8638,5.7449,5.6715,5.5831,5.4982,5.4458,5.4152,5.3954,5.3823,5.3803,5.3803,5.3803,5.3803,5.3717,5.3414,5.3353,5.3386,5.3506,5.3705,5.4016,5.454,5.5043,5.5696,5.6638,5.6839,5.7152,5.7884,5.8328,5.8745,5.9225,5.953,5.9808,6.0072,6.0089,6.0089,6.0089,6.0089,6.0089,6.0089,6.0089,6.0089,6.0089,6.0089,6.0089,6.0089,6.0089,6.0089,6.0089,6.0089,6.0089,5.2562,5.2918,5.3263,5.3796,5.4136,5.4349,5.4349,5.5006,5.5644,5.5644,5.6762,5.7729,5.7729,5.7269,5.6786,5.6472,5.6433,5.6336,5.6046,5.5995,5.6005,5.6005,5.598,5.5967,5.5967,5.5905,5.5846,5.5797,5.5776,5.6001,5.6541,5.6843,5.7415,5.8331,5.8924,5.9629,6.0417,6.0983,6.125,6.127,6.1505,6.1586,6.151,6.1434,6.1255,6.0997,6.0997,6.0978,6.0923,6.0831,6.0806,6.0806,6.0806,6.0806,6.0806,6.0806,6.0806,6.0768,6.0473,5.9973,5.9379,5.8707,5.7583,5.6401,5.5898,5.5078,5.4281,5.4159,5.3972,5.3803,5.3803,5.3803,5.3803,5.3803,5.3688,5.3474,5.317,5.3107,5.2993,5.2659,5.2788,5.3096,5.358,5.4303,5.5224,5.641,5.7052,5.7596,5.8141,5.8895,5.9369,5.9369,5.9808,6.0089,6.0089,6.0089,6.0089,6.0089,6.0089,6.0089,6.0089,6.0041,6.0009,6.0009,5.9962,5.993,5.993,6.0059,6.0089,6.0089,6.0041,6.0009,0.0,0.0,0.0,5.4909,5.5509,5.6085,5.6085,5.6743,5.7381,5.7381,5.8062,5.8666,5.8666,5.8666,5.8395,5.7516,5.7323,5.6994,5.6124,5.6007,5.5994,5.5994,5.5948,5.5895,5.5895,5.5836,5.5792,5.5792,5.574,5.5708,5.5708,5.6497,5.7426,5.8431,5.8595,5.8741,5.8892,5.9875,6.0354,6.0351,6.1085,6.143,6.14,6.1208,6.1054,6.091,6.091,6.0855,6.0729,6.0787,6.0806,6.0806,6.0806,6.0806,6.0806,6.0762,6.0768,6.0633,5.9762,5.9454,5.9106,5.7143,5.6492,5.6187,5.473,5.4298,5.422,5.3898,5.3803,5.3803,5.3803,5.3803,5.3803,5.3775,5.3424,5.3096,5.3057,5.3064,5.2777,5.1799,5.1612,5.1949,5.3021,5.3805,5.484,5.6403,5.7965,5.8968,5.9036,5.9668,6.0089,6.0089,6.0089,6.0089,6.0089,6.0089,6.0089,6.0089,6.0089,6.0089,6.0089,5.9911,5.9796,5.9796,5.9668,5.9604,5.9604,5.993,6.0091,6.0073,5.9895,5.9796,5.5915,0.0,0.0,0.0,0.0,0.0,5.7873,5.8546,5.9184,5.9184,5.9841,6.0402,6.0402,6.0402,6.0132,5.9319,5.8116,5.6994,5.6124,5.6007,5.5994,5.5994,5.5905,5.5831,5.5831,5.5761,5.573,5.573,5.5714,5.5708,5.5708,5.5939,5.652,5.7527,5.7694,5.8128,5.8892,5.9269,5.9417,5.9313,5.9521,5.9527,5.9328,5.9281,5.9166,5.9053,5.9053,5.9034,5.9088,6.03,6.0806,6.0806,6.0806,6.0806,6.0723,6.0089,5.9858,5.9742,5.8915,5.8223,5.7555,5.676,5.5931,5.5143,5.4505,5.4124,5.3907,5.3841,5.3803,5.3803,5.3803,5.3803,5.3717,5.3373,5.319,5.2907,5.2178,5.2012,5.1928,5.1651,5.1766,5.2175,5.3057,5.3805,5.5033,5.7158,5.786,5.8527,5.965,5.9966,6.0089,6.0089,6.0089,6.0089,6.0089,6.0089,6.0089,6.0089,5.9959,5.9877,5.9877,5.9733,5.9652,5.9652,5.962,5.9604,5.9604,5.9686,5.9735,5.9735,5.9668,5.9652,5.6936,5.7574,5.8043,5.8918,0.0,0.0,5.9629,6.0035,6.0402,6.0402,6.077,6.1099,6.1099,6.1099,6.0818,5.9992,5.9016,5.7915,5.6677,5.6188,5.5957,5.5919,5.5826,5.5756,5.5756,5.5724,5.5708,5.5708,5.5708,5.5708,5.5708,5.5708,5.602,5.6726,5.6814,5.7175,5.7806,5.8248,5.8408,5.8278,5.8598,5.8658,5.8501,5.8433,5.8377,5.8294,5.8294,5.8294,5.8377,5.9358,5.9762,5.9762,5.9762,5.9762,5.9704,5.9184,5.9006,5.8877,5.805,5.7334,5.6687,5.6011,5.5245,5.4528,5.4186,5.3954,5.3803,5.3803,5.3803,5.3803,5.3803,5.364,5.3434,5.317,5.2769,5.2318,5.1725,5.1696,5.1776,5.1776,5.1899,5.2351,5.3485,5.4296,5.5475,5.7509,5.8088,5.8737,5.9931,6.0089,6.0073,5.9975,5.9975,5.9975,5.9975,5.9975,5.9975,5.9975,5.9861,5.9764,5.9733,5.9553,5.947,5.947,5.9386,5.9352,5.9352,5.952,5.9554,5.9487,5.9554,5.9554,5.7207,0.0,0.0,5.9556,6.0364,0.0,6.0963,6.1041,6.1099,6.1099,6.1099,6.1099,6.1099,6.1099,6.0852,6.0075,5.9853,5.9191,5.7448,5.6527,5.5972,5.5816,5.574,5.5708,5.5708,5.5708,5.5708,5.5708,5.5708,5.5708,5.5708,5.5708,5.5813,5.6064,5.6074,5.6141,5.6275,5.7054,5.7372,5.723,5.79,5.8202,5.8194,5.807,5.8011,5.8011,5.8011,5.8011,5.8011,5.8011,5.8121,5.8294,5.8294,5.8294,5.8294,5.8184,5.8165,5.8025,5.7124,5.6622,5.6197,5.5093,5.4544,5.4238,5.3889,5.3803,5.3803,5.3803,5.3803,5.3803,5.3803,5.3444,5.3078,5.3025,5.2295,5.1612,5.1638,5.1838,5.2053,5.2228,5.2263,5.2685,5.4054,5.4966,5.5984,5.7456,5.8336,5.9125,5.9863,6.0021,5.9993,5.9814,5.9781,5.9781,5.9781,5.9781,5.9781,5.9781,5.9747,5.9683,5.957,5.9369,5.9268,5.9268,5.9081,5.8995,5.8995,5.9352,5.9436,5.9268,5.9454,5.9454,5.8101,5.8473,5.8647,5.8802,5.9498,0.0,6.0132,6.0634,6.1099,6.1099,6.1099,6.1099,6.1099,6.1099,6.1036,6.0872,6.0259,5.9177,5.7366,5.6969,5.6606,5.5888,5.574,5.5708,5.5708,5.5708,5.5708,5.5708,5.5708,5.5708,5.5708,5.5708,5.5769,5.5938,5.5942,5.6005,5.6135,5.6312,5.632,5.6198,5.6338,5.6357,5.6258,5.623,5.6203,5.6203,5.6203,5.6203,5.6203,5.6203,5.703,5.8294,5.8294,5.8294,5.8204,5.7517,5.7247,5.711,5.6011,5.5594,5.5407,5.4656,5.4347,5.4238,5.3889,5.3803,5.3803,5.3803,5.3803,5.3803,5.3803,5.3444,5.2993,5.2567,5.2018,5.1671,5.1886,5.196,5.2369,5.3597,5.3843,5.3963,5.4247,5.4966,5.5791,5.6701,5.7526,5.8254,5.8899,5.9495,5.9797,5.9652,5.9653,5.9653,5.9653,5.9653,5.9653,5.9653,5.9486,5.9385,5.9352,5.9166,5.9047,5.9047,5.9012,5.8995,5.8995,5.9064,5.9098,5.9047,5.9098,5.9098,5.7714,5.7946,5.8062,5.8492,5.8937,0.0,0.0,5.9899,6.0499,6.0499,6.0828,6.1089,6.1065,6.1041,6.1041,6.101,6.0632,5.9877,5.8484,5.7611,5.6753,5.5866,5.5724,5.5708,5.5708,5.5708,5.5708,5.5708,5.5708,5.5708,5.5708,5.5708,5.5768,5.5902,5.5911,5.5934,5.6001,5.6001,5.5938,5.5808,5.5808,5.5773,5.5708,5.5708,5.5708,5.5708,5.5708,5.5708,5.5708,5.5708,5.6203,5.6992,5.6992,5.6992,5.6953,5.6516,5.6272,5.6073,5.5498,5.5071,5.4754,5.4405,5.4186,5.4027,5.3851,5.3803,5.3803,5.3803,5.3803,5.3746,5.3522,5.3088,5.2676,5.2576,5.2177,5.1949,5.2473,5.2821,5.3272,5.4043,5.4439,5.4702,5.4881,5.5153,5.5629,5.6458,5.7187,5.7899,5.8608,5.9296,5.9652,5.947,5.9454,5.9454,5.9454,5.9454,5.9454,5.9454,5.9352,5.9251,5.9166,5.9047,5.8995,5.8995,5.8995,5.8995,5.8995,5.8995,5.8995,5.8995,5.8995,5.8995,5.6859,5.7052,5.7226,5.7927,5.8241,5.8357,0.0,0.0,0.0,5.9865,6.0422,6.091,6.0973,6.1002,6.0875,6.0481,6.0685,6.047,5.9207,5.819,5.7156,5.6079,5.5805,5.5708,5.5708,5.5708,5.5708,5.5708,5.5708,5.5708,5.5708,5.5708,5.5748,5.5854,5.5858,5.5858,5.5858,5.5858,5.5818,5.5708,5.5708,5.5708,5.5708,5.5708,5.5708,5.5708,5.5708,5.5708,5.5708,5.5708,5.5708,5.5708,5.5708,5.5708,5.5708,5.5708,5.5539,5.5288,5.5236,5.4814,5.4298,5.422,5.4017,5.3803,5.3803,5.3803,5.3775,5.3698,5.3669,5.3543,5.3078,5.2672,5.245,5.2738,5.2506,5.2439,5.3215,5.3766,5.4136,5.4246,5.4652,5.507,5.5341,5.5279,5.5424,5.6175,5.6961,5.7672,5.8286,5.9062,5.947,5.9251,5.9234,5.9234,5.9234,5.9234,5.9234,5.9234,5.9234,5.9166,5.9012,5.8995,5.8995,5.8995,5.8995,5.8995,5.8995,5.8995,5.8995,5.8995,5.8995,5.8995,5.6124,5.6143,5.6162,5.6278,5.6878,5.7458,5.7458,0.0,5.8976,5.9749,0.0,6.0234,6.0877,0.0,0.0,5.8938,5.9922,6.0063,5.7713,5.8435,5.8638,5.7036,5.617,5.5708,5.5708,5.5708,5.5708,5.5708,5.5708,5.5708,5.5708,5.5708,5.5719,5.5726,5.5726,5.5726,5.5726,5.5726,5.571,5.5708,5.5708,5.5708,5.5708,5.5708,5.5708,5.5708,5.5708,5.5708,5.5708,5.5708,5.5708,5.5708,5.5708,5.5708,5.5708,5.5708,5.5539,5.5262,5.4952,5.4615,5.4255,5.3954,5.3823,5.3803,5.3803,5.3803,5.3717,5.3312,5.318,5.3057,5.2533,5.2576,5.2748,5.2791,5.2945,5.3232,5.3862,5.4046,5.4263,5.4791,5.4865,5.4873,5.5022,5.5037,5.5055,5.5175,5.6396,5.7292,5.7201,5.8451,5.9251,5.9064,5.903,5.903,5.903,5.903,5.903,5.903,5.903,5.903,5.8995,5.8995,5.8995,5.8995,5.8995,5.8995,5.8995,5.8995,5.8995,5.8995,5.8995,5.8995,5.6008,5.6005,5.5992,5.5999,5.6276,5.6552,5.654,0.0,5.7946,5.8309,0.0,0.0,0.0,0.0,0.0,0.0,6.0049,6.0475,5.9403,5.9394,5.8877,5.719,5.667,5.6266,5.5747,5.5708,5.5708,5.5708,5.5708,5.5708,5.5708,5.5708,5.5708,5.5708,5.5708,5.5708,5.5708,5.5708,5.5708,5.5708,5.5708,5.5708,5.5708,5.5708,5.5708,5.5708,5.5708,5.5708,5.5708,5.5708,5.5708,5.5708,5.5708,5.5708,5.5673,5.5533,5.5275,5.4959,5.4631,5.4298,5.399,5.3841,5.3803,5.3803,5.3803,5.3601,5.3353,5.3159,5.3215,5.3185,5.2587,5.2858,5.3331,5.3373,5.3476,5.3745,5.4468,5.457,5.4583,5.4834,5.4731,5.4637,5.4698,5.4809,5.4917,5.4992,5.6218,5.7113,5.7015,5.8249,5.9081,5.9012,5.8995,5.8995,5.8995,5.8995,5.8995,5.8995,5.8995,5.8995,5.8995,5.8995,5.8995,5.8995,5.8995,5.8995,5.8995,5.8995,5.8995,5.8995,5.8995,5.8995,5.6003,5.5992,5.6008,5.5995,5.6001,5.6002,5.5999,0.0,0.0,0.0,5.7811,0.0,0.0,0.0,5.9143,5.8547,0.0,6.0287,5.9825,5.98,5.9223,5.7555,5.692,5.6401,5.5766,5.5708,5.5708,5.5708,5.5708,5.5708,5.5708,5.5708,5.5708,5.5708,5.5708,5.5708,5.5708,5.5708,5.5708,5.5708,5.5708,5.5708,5.5708,5.5708,5.5708,5.5708,5.5708,5.5708,5.5708,5.5708,5.5671,5.559,5.559,5.5531,5.5436,5.5345,5.5023,5.4631,5.438,5.408,5.3803,5.3803,5.3803,5.3784,5.3659,5.3373,5.308,5.2959,5.3078,5.3119,5.2657,5.3141,5.3743,5.3791,5.397,5.4283,5.4841,5.4873,5.478,5.4733,5.459,5.4496,5.4496,5.4606,5.4747,5.4838,5.6044,5.6951,5.6951,5.8148,5.8995,5.8995,5.8995,5.8995,5.8995,5.8995,5.8995,5.8995,5.8995,5.8995,5.8995,5.8995,5.8995,5.8995,5.8995,5.8995,5.8995,5.8995,5.8995,5.8995,5.8995,5.9116,5.5995,5.5992,5.6008,5.5995,5.6008,5.6008,0.0,0.0,5.6278,0.0,0.0,0.0,0.0,0.0,0.0,0.0,0.0,0.0,0.0,5.9229,6.0146,5.8454,5.6761,5.5728,5.5708,5.5708,5.5708,5.5708,5.5708,5.5708,5.5708,5.5708,5.5708,5.5708,5.5708,5.5708,5.5708,5.5708,5.5708,5.5708,5.5708,5.5708,5.5708,5.5708,5.5708,5.5708,5.5708,5.5708,5.5708,5.5708,5.5556,5.5314,5.5314,5.5117,5.4866,5.5178,5.4887,5.4305,5.4288,5.408,5.3803,5.3803,5.3803,5.3717,5.3253,5.3117,5.301,5.264,5.2531,5.2555,5.2668,5.3234,5.3808,5.3796,5.4385,5.4944,5.4826,5.4795,5.4733,5.4543,5.4512,5.4496,5.4496,5.4512,5.4512,5.4512,5.5821,5.6822,5.6822,5.8099,5.8995,5.8995,5.8995,5.8995,5.8995,5.8995,5.8995,5.8995,5.8995,5.8995,5.8995,5.8995,5.8995,5.8995,5.8995,5.8995,5.8995,5.8995,5.8995,5.8995,5.8995,5.9426,5.5923,5.59,5.588,5.598,5.5975,5.5947,0.0,0.0,0.0,0.0,0.0,0.0,0.0,0.0,0.0,0.0,0.0,0.0,0.0,5.8113,5.811,5.7627,5.6466,5.5708,5.5708,5.5708,5.5708,5.5708,5.5708,5.5708,5.5708,5.5708,5.5708,5.5708,5.5708,5.5708,5.5708,5.5708,5.5708,5.5708,5.5708,5.5708,5.5708,5.5708,5.5708,5.5708,5.5708,5.5708,5.5698,5.5522,5.5382,5.5282,5.5063,5.4769,5.4487,5.4607,5.4495,5.4272,5.4044,5.3879,5.3803,5.3803,5.3803,5.3698,5.3138,5.3079,5.3097,5.2525,5.2858,5.334,5.3299,5.3886,5.4428,5.4287,5.4461,5.4669,5.4606,5.459,5.4575,5.4512,5.4496,5.4496,5.4496,5.4496,5.4496,5.4496,5.5805,5.6805,5.6805,5.8099,5.8995,5.8995,5.8995,5.8995,5.8995,5.8995,5.8995,5.8995,5.8995,5.8995,5.8995,5.8995,5.8995,5.8995,5.8995,5.8995,5.8995,5.8995,5.9271,5.9789,5.9789,5.9944,5.5895,5.5846,5.5831,5.5948,5.5924,0.0,5.5983,0.0,5.5964,0.0,0.0,0.0,0.0,0.0,0.0,0.0,0.0,0.0,0.0,5.7582,5.7106,5.7189,5.6319,5.5716,5.5773,5.5731,5.5708,5.5708,5.5708,5.5708,5.5708,5.5708,5.5708,5.5708,5.5708,5.5708,5.5708,5.5708,5.5708,5.5708,5.5708,5.5708,5.5708,5.5708,5.5708,5.5684,5.5602,5.5562,5.5545,5.5243,5.5043,5.4924,5.4708,5.4397,5.4098,5.4246,5.4203,5.4063,5.3841,5.3726,5.3678,5.3678,5.3562,5.3341,5.3072,5.2948,5.286,5.248,5.3038,5.3708,5.3556,5.4098,5.467,5.4527,5.4496,5.4496,5.4496,5.4496,5.4496,5.4496,5.4496,5.4496,5.4496,5.4496,5.4496,5.4496,5.5805,5.6805,5.6805,5.8099,5.8995,5.8995,5.8995,5.8995,5.8995,5.8995,5.8995,5.8995,5.8995,5.8995,5.8995,5.8995,5.8995,5.8995,5.8995,5.8995,5.8995,5.8995,5.9409,6.0202,6.0461,6.0737]}]]